Wetterdaten: Sonntag, 14.02.2016
Datum Zeit Temp. A. Feuchte A. Luftdruck Regen Wind Richtung Richtung Sonnenschein ET UV Solar Taupunkt Windchill Windben Empfang
14.02.2016 00:00 -0,3 C 95 % 991,7 hPa 0,0 l/m 1,5 km/h (1 Bft) SW 217 0 min 0,000 mm 0,0 UV-I 0 W/m -1,0 C -0,3 C 3,2 km/h (1 Bft) 100,00 %
14.02.2016 00:01 -0,3 C 96 % 991,7 hPa 0,0 l/m 0,9 km/h (0 Bft) SW 217 0 min 0,000 mm 0,0 UV-I 0 W/m -0,9 C -0,3 C 1,6 km/h (1 Bft) 92,86 %
14.02.2016 00:02 -0,3 C 96 % 991,7 hPa 0,0 l/m 1,0 km/h (0 Bft) SW 217 0 min 0,000 mm 0,0 UV-I 0 W/m -0,9 C -0,3 C 1,6 km/h (1 Bft) 100,00 %
14.02.2016 00:03 -0,3 C 96 % 991,8 hPa 0,0 l/m 1,7 km/h (1 Bft) SW 217 0 min 0,000 mm 0,0 UV-I 0 W/m -0,9 C -0,3 C 3,2 km/h (1 Bft) 100,00 %
14.02.2016 00:04 -0,3 C 96 % 991,8 hPa 0,0 l/m 1,7 km/h (1 Bft) S-SW 195 0 min 0,000 mm 0,0 UV-I 0 W/m -0,9 C -0,3 C 3,2 km/h (1 Bft) 100,00 %
14.02.2016 00:05 -0,3 C 96 % 991,9 hPa 0,0 l/m 3,6 km/h (1 Bft) S-SW 194 0 min 0,000 mm 0,0 UV-I 0 W/m -0,9 C -0,3 C 4,8 km/h (1 Bft) 95,83 %
14.02.2016 00:06 -0,3 C 96 % 991,8 hPa 0,0 l/m 1,7 km/h (1 Bft) S-SW 194 0 min 0,000 mm 0,0 UV-I 0 W/m -0,9 C -0,3 C 3,2 km/h (1 Bft) 100,00 %
14.02.2016 00:07 -0,2 C 96 % 991,9 hPa 0,0 l/m 2,5 km/h (1 Bft) S-SW 194 0 min 0,000 mm 0,0 UV-I 0 W/m -0,8 C -0,2 C 4,8 km/h (1 Bft) 100,00 %
14.02.2016 00:08 -0,2 C 96 % 991,9 hPa 0,0 l/m 5,9 km/h (2 Bft) S 180 0 min 0,000 mm 0,0 UV-I 0 W/m -0,8 C -0,2 C 6,4 km/h (2 Bft) 100,00 %
14.02.2016 00:09 -0,1 C 96 % 991,9 hPa 0,0 l/m 4,7 km/h (1 Bft) S 178 0 min 0,000 mm 0,0 UV-I 0 W/m -0,7 C -0,1 C 6,4 km/h (2 Bft) 100,00 %
14.02.2016 00:10 -0,1 C 96 % 992,0 hPa 0,0 l/m 3,4 km/h (1 Bft) S 178 0 min 0,000 mm 0,0 UV-I 0 W/m -0,7 C -0,1 C 4,8 km/h (1 Bft) 100,00 %
14.02.2016 00:11 0,0 C 97 % 992,0 hPa 0,0 l/m 4,6 km/h (1 Bft) S 171 0 min 0,000 mm 0,0 UV-I 0 W/m -0,4 C 0,0 C 8,0 km/h (2 Bft) 100,00 %
14.02.2016 00:12 0,1 C 97 % 992,0 hPa 0,0 l/m 4,0 km/h (1 Bft) S 184 0 min 0,000 mm 0,0 UV-I 0 W/m -0,3 C 0,1 C 6,4 km/h (2 Bft) 100,00 %
14.02.2016 00:13 0,1 C 97 % 992,0 hPa 0,0 l/m 3,2 km/h (1 Bft) S 184 0 min 0,000 mm 0,0 UV-I 0 W/m -0,3 C 0,1 C 4,8 km/h (1 Bft) 100,00 %
14.02.2016 00:14 0,2 C 96 % 992,0 hPa 0,0 l/m 4,6 km/h (1 Bft) S 185 0 min 0,000 mm 0,0 UV-I 0 W/m -0,4 C 0,2 C 6,4 km/h (2 Bft) 100,00 %
14.02.2016 00:15 0,2 C 96 % 992,0 hPa 0,0 l/m 5,4 km/h (1 Bft) S-SW 198 0 min 0,000 mm 0,0 UV-I 0 W/m -0,4 C 0,2 C 6,4 km/h (2 Bft) 96,15 %
14.02.2016 00:16 0,2 C 96 % 992,0 hPa 0,0 l/m 4,6 km/h (1 Bft) SW 216 0 min 0,000 mm 0,0 UV-I 0 W/m -0,4 C 0,2 C 6,4 km/h (2 Bft) 100,00 %
14.02.2016 00:17 0,2 C 97 % 992,0 hPa 0,0 l/m 2,5 km/h (1 Bft) SW 216 0 min 0,000 mm 0,0 UV-I 0 W/m -0,2 C 0,2 C 3,2 km/h (1 Bft) 100,00 %
14.02.2016 00:18 0,3 C 97 % 992,1 hPa 0,0 l/m 4,2 km/h (1 Bft) SW 219 0 min 0,000 mm 0,0 UV-I 0 W/m -0,1 C 0,3 C 6,4 km/h (2 Bft) 100,00 %
14.02.2016 00:19 0,3 C 97 % 992,2 hPa 0,0 l/m 4,0 km/h (1 Bft) SW 219 0 min 0,000 mm 0,0 UV-I 0 W/m -0,1 C 0,3 C 4,8 km/h (1 Bft) 100,00 %
14.02.2016 00:20 0,3 C 96 % 992,1 hPa 0,0 l/m 4,8 km/h (1 Bft) S 182 0 min 0,000 mm 0,0 UV-I 0 W/m -0,3 C 0,3 C 6,4 km/h (2 Bft) 100,00 %
14.02.2016 00:21 0,3 C 96 % 992,1 hPa 0,0 l/m 4,9 km/h (1 Bft) S-SO 167 0 min 0,000 mm 0,0 UV-I 0 W/m -0,3 C 0,3 C 8,0 km/h (2 Bft) 100,00 %
14.02.2016 00:22 0,3 C 96 % 992,1 hPa 0,0 l/m 4,6 km/h (1 Bft) S 186 0 min 0,000 mm 0,0 UV-I 0 W/m -0,3 C 0,3 C 6,4 km/h (2 Bft) 100,00 %
14.02.2016 00:23 0,3 C 96 % 992,1 hPa 0,0 l/m 3,3 km/h (1 Bft) SW 219 0 min 0,000 mm 0,0 UV-I 0 W/m -0,3 C 0,3 C 4,8 km/h (1 Bft) 100,00 %
14.02.2016 00:24 0,3 C 96 % 992,1 hPa 0,0 l/m 3,0 km/h (1 Bft) SW 236 0 min 0,000 mm 0,0 UV-I 0 W/m -0,3 C 0,3 C 4,8 km/h (1 Bft) 100,00 %
14.02.2016 00:25 0,4 C 96 % 992,1 hPa 0,0 l/m 5,5 km/h (1 Bft) SW 219 0 min 0,000 mm 0,0 UV-I 0 W/m -0,2 C 0,4 C 8,0 km/h (2 Bft) 100,00 %
14.02.2016 00:26 0,4 C 96 % 992,1 hPa 0,0 l/m 2,3 km/h (1 Bft) SW 219 0 min 0,000 mm 0,0 UV-I 0 W/m -0,2 C 0,4 C 4,8 km/h (1 Bft) 100,00 %
14.02.2016 00:27 0,4 C 96 % 992,0 hPa 0,0 l/m 0,3 km/h (0 Bft) SW 219 0 min 0,000 mm 0,0 UV-I 0 W/m -0,2 C 0,4 C 1,6 km/h (1 Bft) 100,00 %
14.02.2016 00:28 0,4 C 96 % 992,0 hPa 0,0 l/m 0,8 km/h (0 Bft) SW 219 0 min 0,000 mm 0,0 UV-I 0 W/m -0,2 C 0,4 C 1,6 km/h (1 Bft) 100,00 %
14.02.2016 00:29 0,4 C 96 % 991,9 hPa 0,0 l/m 1,5 km/h (1 Bft) SW 219 0 min 0,000 mm 0,0 UV-I 0 W/m -0,2 C 0,4 C 3,2 km/h (1 Bft) 100,00 %
14.02.2016 00:30 0,5 C 96 % 991,9 hPa 0,0 l/m 0,1 km/h (0 Bft) SW 219 0 min 0,000 mm 0,0 UV-I 0 W/m -0,1 C 0,5 C 1,6 km/h (1 Bft) 100,00 %
14.02.2016 00:31 0,5 C 96 % 992,1 hPa 0,0 l/m 4,3 km/h (1 Bft) S-SW 213 0 min 0,000 mm 0,0 UV-I 0 W/m -0,1 C 0,5 C 6,4 km/h (2 Bft) 100,00 %
14.02.2016 00:32 0,5 C 96 % 992,1 hPa 0,0 l/m 2,5 km/h (1 Bft) SW 215 0 min 0,000 mm 0,0 UV-I 0 W/m -0,1 C 0,5 C 4,8 km/h (1 Bft) 92,31 %
14.02.2016 00:33 0,5 C 96 % 991,9 hPa 0,0 l/m 0,1 km/h (0 Bft) SW 215 0 min 0,000 mm 0,0 UV-I 0 W/m -0,1 C 0,5 C 1,6 km/h (1 Bft) 100,00 %
14.02.2016 00:34 0,6 C 96 % 991,9 hPa 0,0 l/m 0,5 km/h (0 Bft) S-SW 209 0 min 0,000 mm 0,0 UV-I 0 W/m 0,0 C 0,6 C 1,6 km/h (1 Bft) 100,00 %
14.02.2016 00:35 0,6 C 96 % 991,8 hPa 0,0 l/m 1,3 km/h (1 Bft) S 175 0 min 0,000 mm 0,0 UV-I 0 W/m 0,0 C 0,6 C 3,2 km/h (1 Bft) 100,00 %
14.02.2016 00:36 0,6 C 96 % 991,6 hPa 0,0 l/m 4,9 km/h (1 Bft) O-SO 108 0 min 0,000 mm 0,0 UV-I 0 W/m 0,0 C 0,6 C 6,4 km/h (2 Bft) 100,00 %
14.02.2016 00:37 0,6 C 96 % 991,6 hPa 0,0 l/m 5,4 km/h (1 Bft) O-SO 107 0 min 0,000 mm 0,0 UV-I 0 W/m 0,0 C 0,6 C 6,4 km/h (2 Bft) 100,00 %
14.02.2016 00:38 0,6 C 96 % 991,5 hPa 0,0 l/m 5,1 km/h (1 Bft) O-SO 117 0 min 0,000 mm 0,0 UV-I 0 W/m 0,0 C 0,6 C 6,4 km/h (2 Bft) 100,00 %
14.02.2016 00:39 0,6 C 96 % 991,6 hPa 0,0 l/m 5,9 km/h (2 Bft) SO 134 0 min 0,000 mm 0,0 UV-I 0 W/m 0,0 C 0,6 C 8,0 km/h (2 Bft) 100,00 %
14.02.2016 00:40 0,6 C 96 % 991,5 hPa 0,0 l/m 6,2 km/h (2 Bft) O-SO 117 0 min 0,000 mm 0,0 UV-I 0 W/m 0,0 C 0,6 C 8,0 km/h (2 Bft) 100,00 %
14.02.2016 00:41 0,6 C 96 % 991,5 hPa 0,0 l/m 6,4 km/h (2 Bft) O-SO 112 0 min 0,000 mm 0,0 UV-I 0 W/m 0,0 C 0,6 C 9,7 km/h (2 Bft) 100,00 %
14.02.2016 00:42 0,6 C 96 % 991,5 hPa 0,0 l/m 4,8 km/h (1 Bft) O 80 0 min 0,000 mm 0,0 UV-I 0 W/m 0,0 C 0,6 C 6,4 km/h (2 Bft) 100,00 %
14.02.2016 00:43 0,6 C 96 % 991,4 hPa 0,0 l/m 6,6 km/h (2 Bft) O 85 0 min 0,000 mm 0,0 UV-I 0 W/m 0,0 C 0,4 C 8,0 km/h (2 Bft) 100,00 %
14.02.2016 00:44 0,6 C 96 % 991,2 hPa 0,0 l/m 6,5 km/h (2 Bft) O 85 0 min 0,000 mm 0,0 UV-I 0 W/m 0,0 C 0,5 C 8,0 km/h (2 Bft) 100,00 %
14.02.2016 00:45 0,6 C 96 % 991,2 hPa 0,0 l/m 5,6 km/h (1 Bft) O-NO 78 0 min 0,000 mm 0,0 UV-I 0 W/m 0,0 C 0,6 C 6,4 km/h (2 Bft) 100,00 %
14.02.2016 00:46 0,6 C 96 % 991,1 hPa 0,0 l/m 3,7 km/h (1 Bft) O-NO 78 0 min 0,000 mm 0,0 UV-I 0 W/m 0,0 C 0,6 C 4,8 km/h (1 Bft) 96,15 %
14.02.2016 00:47 0,7 C 96 % 991,1 hPa 0,0 l/m 3,8 km/h (1 Bft) O-NO 76 0 min 0,000 mm 0,0 UV-I 0 W/m 0,1 C 0,7 C 4,8 km/h (1 Bft) 100,00 %
14.02.2016 00:48 0,7 C 96 % 991,0 hPa 0,0 l/m 5,7 km/h (1 Bft) O-NO 68 0 min 0,000 mm 0,0 UV-I 0 W/m 0,1 C 0,7 C 6,4 km/h (2 Bft) 100,00 %
14.02.2016 00:49 0,8 C 96 % 990,9 hPa 0,0 l/m 8,8 km/h (2 Bft) O 80 0 min 0,000 mm 0,0 UV-I 0 W/m 0,2 C -1,5 C 11,3 km/h (2 Bft) 100,00 %
14.02.2016 00:50 0,8 C 96 % 990,8 hPa 0,0 l/m 11,8 km/h (2 Bft) O-NO 71 0 min 0,000 mm 0,0 UV-I 0 W/m 0,2 C -3,9 C 14,5 km/h (3 Bft) 95,83 %
14.02.2016 00:51 0,8 C 96 % 990,8 hPa 0,0 l/m 8,7 km/h (2 Bft) O 79 0 min 0,000 mm 0,0 UV-I 0 W/m 0,2 C -1,5 C 14,5 km/h (3 Bft) 100,00 %
14.02.2016 00:52 0,8 C 96 % 990,8 hPa 0,0 l/m 8,9 km/h (2 Bft) O-SO 108 0 min 0,000 mm 0,0 UV-I 0 W/m 0,2 C -1,6 C 11,3 km/h (2 Bft) 100,00 %
14.02.2016 00:53 0,8 C 96 % 990,9 hPa 0,0 l/m 10,1 km/h (2 Bft) O 89 0 min 0,000 mm 0,0 UV-I 0 W/m 0,2 C -2,6 C 12,9 km/h (3 Bft) 100,00 %
14.02.2016 00:54 0,8 C 96 % 991,0 hPa 0,0 l/m 6,8 km/h (2 Bft) O-SO 105 0 min 0,000 mm 0,0 UV-I 0 W/m 0,2 C 0,4 C 9,7 km/h (2 Bft) 100,00 %
14.02.2016 00:55 0,8 C 96 % 991,0 hPa 0,0 l/m 10,6 km/h (2 Bft) SO 128 0 min 0,000 mm 0,0 UV-I 0 W/m 0,2 C -3,0 C 12,9 km/h (3 Bft) 100,00 %
14.02.2016 00:56 0,8 C 96 % 991,0 hPa 0,0 l/m 9,8 km/h (2 Bft) SO 127 0 min 0,000 mm 0,0 UV-I 0 W/m 0,2 C -2,4 C 12,9 km/h (3 Bft) 100,00 %
14.02.2016 00:57 0,8 C 96 % 991,0 hPa 0,0 l/m 4,5 km/h (1 Bft) SO 132 0 min 0,000 mm 0,0 UV-I 0 W/m 0,2 C 0,8 C 6,4 km/h (2 Bft) 96,55 %
14.02.2016 00:58 0,7 C 95 % 991,0 hPa 0,0 l/m 4,2 km/h (1 Bft) SO 133 0 min 0,000 mm 0,0 UV-I 0 W/m -0,0 C 0,7 C 6,4 km/h (2 Bft) 100,00 %
14.02.2016 00:59 0,7 C 95 % 991,1 hPa 0,0 l/m 3,7 km/h (1 Bft) S-SO 157 0 min 0,000 mm 0,0 UV-I 0 W/m -0,0 C 0,7 C 4,8 km/h (1 Bft) 100,00 %
14.02.2016 01:00 0,7 C 95 % 991,1 hPa 0,0 l/m 4,7 km/h (1 Bft) S-SO 166 0 min 0,000 mm 0,0 UV-I 0 W/m -0,0 C 0,7 C 6,4 km/h (2 Bft) 100,00 %
14.02.2016 01:01 0,7 C 95 % 991,2 hPa 0,0 l/m 4,4 km/h (1 Bft) S-SO 159 0 min 0,000 mm 0,0 UV-I 0 W/m -0,0 C 0,7 C 8,0 km/h (2 Bft) 100,00 %
14.02.2016 01:02 0,6 C 95 % 991,3 hPa 0,0 l/m 5,6 km/h (1 Bft) S-SW 200 0 min 0,000 mm 0,0 UV-I 0 W/m -0,1 C 0,6 C 8,0 km/h (2 Bft) 100,00 %
14.02.2016 01:03 0,6 C 95 % 991,3 hPa 0,0 l/m 4,3 km/h (1 Bft) S-SW 213 0 min 0,000 mm 0,0 UV-I 0 W/m -0,1 C 0,6 C 6,4 km/h (2 Bft) 100,00 %
14.02.2016 01:04 0,6 C 95 % 991,5 hPa 0,0 l/m 5,3 km/h (1 Bft) SW 234 0 min 0,000 mm 0,0 UV-I 0 W/m -0,1 C 0,6 C 6,4 km/h (2 Bft) 100,00 %
14.02.2016 01:05 0,4 C 95 % 991,5 hPa 0,0 l/m 5,3 km/h (1 Bft) SW 222 0 min 0,000 mm 0,0 UV-I 0 W/m -0,3 C 0,4 C 6,4 km/h (2 Bft) 100,00 %
14.02.2016 01:06 0,4 C 95 % 991,6 hPa 0,0 l/m 7,3 km/h (2 Bft) S-SW 198 0 min 0,000 mm 0,0 UV-I 0 W/m -0,3 C -0,5 C 9,7 km/h (2 Bft) 100,00 %
14.02.2016 01:07 0,3 C 95 % 991,6 hPa 0,0 l/m 9,9 km/h (2 Bft) S 179 0 min 0,000 mm 0,0 UV-I 0 W/m -0,4 C -3,0 C 12,9 km/h (3 Bft) 95,65 %
14.02.2016 01:08 0,3 C 95 % 991,5 hPa 0,0 l/m 6,0 km/h (2 Bft) S-SO 161 0 min 0,000 mm 0,0 UV-I 0 W/m -0,4 C 0,3 C 9,7 km/h (2 Bft) 100,00 %
14.02.2016 01:09 0,3 C 95 % 991,4 hPa 0,0 l/m 5,6 km/h (1 Bft) S 169 0 min 0,000 mm 0,0 UV-I 0 W/m -0,4 C 0,3 C 9,7 km/h (2 Bft) 100,00 %
14.02.2016 01:10 0,3 C 95 % 991,4 hPa 0,0 l/m 4,2 km/h (1 Bft) SO 140 0 min 0,000 mm 0,0 UV-I 0 W/m -0,4 C 0,3 C 8,0 km/h (2 Bft) 96,55 %
14.02.2016 01:11 0,3 C 95 % 991,5 hPa 0,0 l/m 3,6 km/h (1 Bft) S 169 0 min 0,000 mm 0,0 UV-I 0 W/m -0,4 C 0,3 C 8,0 km/h (2 Bft) 100,00 %
14.02.2016 01:12 0,3 C 95 % 991,4 hPa 0,0 l/m 4,7 km/h (1 Bft) S-SO 161 0 min 0,000 mm 0,0 UV-I 0 W/m -0,4 C 0,3 C 8,0 km/h (2 Bft) 92,31 %
14.02.2016 01:13 0,3 C 96 % 991,4 hPa 0,0 l/m 3,2 km/h (1 Bft) S 172 0 min 0,000 mm 0,0 UV-I 0 W/m -0,3 C 0,3 C 8,0 km/h (2 Bft) 100,00 %
14.02.2016 01:14 0,3 C 96 % 991,4 hPa 0,0 l/m 2,0 km/h (1 Bft) S 172 0 min 0,000 mm 0,0 UV-I 0 W/m -0,3 C 0,3 C 3,2 km/h (1 Bft) 90,91 %
14.02.2016 01:15 0,3 C 96 % 991,4 hPa 0,0 l/m 1,2 km/h (1 Bft) S 172 0 min 0,000 mm 0,0 UV-I 0 W/m -0,3 C 0,3 C 3,2 km/h (1 Bft) 92,59 %
14.02.2016 01:16 0,3 C 96 % 991,3 hPa 0,0 l/m 0,7 km/h (0 Bft) S 172 0 min 0,000 mm 0,0 UV-I 0 W/m -0,3 C 0,3 C 1,6 km/h (1 Bft) 96,15 %
14.02.2016 01:17 0,2 C 96 % 991,3 hPa 0,0 l/m 1,1 km/h (1 Bft) S 172 0 min 0,000 mm 0,0 UV-I 0 W/m -0,4 C 0,2 C 1,6 km/h (1 Bft) 96,30 %
14.02.2016 01:18 0,2 C 96 % 991,3 hPa 0,0 l/m 0,6 km/h (0 Bft) S 172 0 min 0,000 mm 0,0 UV-I 0 W/m -0,4 C 0,2 C 1,6 km/h (1 Bft) 100,00 %
14.02.2016 01:19 0,2 C 95 % 991,2 hPa 0,0 l/m 1,5 km/h (1 Bft) S 172 0 min 0,000 mm 0,0 UV-I 0 W/m -0,5 C 0,2 C 3,2 km/h (1 Bft) 100,00 %
14.02.2016 01:20 0,2 C 96 % 991,2 hPa 0,0 l/m 1,2 km/h (1 Bft) S 172 0 min 0,000 mm 0,0 UV-I 0 W/m -0,4 C 0,2 C 1,6 km/h (1 Bft) 91,30 %
14.02.2016 01:21 0,2 C 96 % 991,2 hPa 0,0 l/m 1,5 km/h (1 Bft) S 172 0 min 0,000 mm 0,0 UV-I 0 W/m -0,4 C 0,2 C 3,2 km/h (1 Bft) 95,83 %
14.02.2016 01:22 0,2 C 96 % 991,2 hPa 0,0 l/m 4,1 km/h (1 Bft) S 172 0 min 0,000 mm 0,0 UV-I 0 W/m -0,4 C 0,2 C 4,8 km/h (1 Bft) 96,15 %
14.02.2016 01:23 0,2 C 95 % 991,2 hPa 0,0 l/m 2,5 km/h (1 Bft) S 172 0 min 0,000 mm 0,0 UV-I 0 W/m -0,5 C 0,2 C 4,8 km/h (1 Bft) 96,30 %
14.02.2016 01:24 0,1 C 95 % 991,2 hPa 0,0 l/m 1,2 km/h (1 Bft) S 172 0 min 0,000 mm 0,0 UV-I 0 W/m -0,6 C 0,1 C 3,2 km/h (1 Bft) 91,67 %
14.02.2016 01:25 0,1 C 95 % 991,2 hPa 0,0 l/m 2,7 km/h (1 Bft) S 172 0 min 0,000 mm 0,0 UV-I 0 W/m -0,6 C 0,1 C 3,2 km/h (1 Bft) 94,74 %
14.02.2016 01:26 0,1 C 95 % 991,3 hPa 0,0 l/m 2,3 km/h (1 Bft) S 172 0 min 0,000 mm 0,0 UV-I 0 W/m -0,6 C 0,1 C 3,2 km/h (1 Bft) 95,65 %
14.02.2016 01:27 0,1 C 95 % 991,3 hPa 0,0 l/m 0,9 km/h (0 Bft) S 172 0 min 0,000 mm 0,0 UV-I 0 W/m -0,6 C 0,1 C 1,6 km/h (1 Bft) 100,00 %
14.02.2016 01:28 0,0 C 96 % 991,3 hPa 0,0 l/m 2,6 km/h (1 Bft) S 172 0 min 0,000 mm 0,0 UV-I 0 W/m -0,6 C 0,0 C 4,8 km/h (1 Bft) 100,00 %
14.02.2016 01:29 -0,1 C 96 % 991,4 hPa 0,0 l/m 4,1 km/h (1 Bft) S-SO 152 0 min 0,000 mm 0,0 UV-I 0 W/m -0,7 C -0,1 C 8,0 km/h (2 Bft) 95,65 %
14.02.2016 01:30 -0,1 C 96 % 991,4 hPa 0,0 l/m 3,0 km/h (1 Bft) S-SO 152 0 min 0,000 mm 0,0 UV-I 0 W/m -0,7 C -0,1 C 4,8 km/h (1 Bft) 96,67 %
14.02.2016 01:31 -0,1 C 95 % 991,2 hPa 0,0 l/m 2,7 km/h (1 Bft) S-SO 158 0 min 0,000 mm 0,0 UV-I 0 W/m -0,8 C -0,1 C 6,4 km/h (2 Bft) 100,00 %
14.02.2016 01:32 -0,1 C 96 % 991,1 hPa 0,0 l/m 1,9 km/h (1 Bft) SO 145 0 min 0,000 mm 0,0 UV-I 0 W/m -0,7 C -0,1 C 3,2 km/h (1 Bft) 94,44 %
14.02.2016 01:33 -0,1 C 96 % 991,1 hPa 0,0 l/m 2,1 km/h (1 Bft) S 169 0 min 0,000 mm 0,0 UV-I 0 W/m -0,7 C -0,1 C 3,2 km/h (1 Bft) 100,00 %
14.02.2016 01:34 -0,1 C 96 % 991,1 hPa 0,0 l/m 2,7 km/h (1 Bft) S-SO 159 0 min 0,000 mm 0,0 UV-I 0 W/m -0,7 C -0,1 C 6,4 km/h (2 Bft) 95,83 %
14.02.2016 01:35 -0,1 C 96 % 991,1 hPa 0,0 l/m 4,1 km/h (1 Bft) S-SO 155 0 min 0,000 mm 0,0 UV-I 0 W/m -0,7 C -0,1 C 6,4 km/h (2 Bft) 100,00 %
14.02.2016 01:36 -0,1 C 96 % 991,1 hPa 0,0 l/m 5,4 km/h (1 Bft) S-SO 168 0 min 0,000 mm 0,0 UV-I 0 W/m -0,7 C -0,1 C 8,0 km/h (2 Bft) 93,33 %
14.02.2016 01:37 0,0 C 96 % 991,0 hPa 0,0 l/m 4,7 km/h (1 Bft) S-SO 157 0 min 0,000 mm 0,0 UV-I 0 W/m -0,6 C 0,0 C 8,0 km/h (2 Bft) 96,15 %
14.02.2016 01:38 0,0 C 96 % 991,0 hPa 0,0 l/m 3,1 km/h (1 Bft) S-SO 164 0 min 0,000 mm 0,0 UV-I 0 W/m -0,6 C 0,0 C 4,8 km/h (1 Bft) 100,00 %
14.02.2016 01:39 0,1 C 96 % 991,1 hPa 0,0 l/m 2,7 km/h (1 Bft) S-SO 162 0 min 0,000 mm 0,0 UV-I 0 W/m -0,5 C 0,1 C 3,2 km/h (1 Bft) 95,65 %
14.02.2016 01:40 0,1 C 96 % 991,0 hPa 0,0 l/m 3,4 km/h (1 Bft) S-SO 161 0 min 0,000 mm 0,0 UV-I 0 W/m -0,5 C 0,1 C 6,4 km/h (2 Bft) 100,00 %
14.02.2016 01:41 0,2 C 96 % 990,9 hPa 0,0 l/m 4,3 km/h (1 Bft) S-SO 157 0 min 0,000 mm 0,0 UV-I 0 W/m -0,4 C 0,2 C 6,4 km/h (2 Bft) 92,86 %
14.02.2016 01:42 0,2 C 96 % 990,9 hPa 0,0 l/m 5,2 km/h (1 Bft) SO 146 0 min 0,000 mm 0,0 UV-I 0 W/m -0,4 C 0,2 C 8,0 km/h (2 Bft) 100,00 %
14.02.2016 01:43 0,2 C 96 % 990,8 hPa 0,0 l/m 4,7 km/h (1 Bft) SO 141 0 min 0,000 mm 0,0 UV-I 0 W/m -0,4 C 0,2 C 9,7 km/h (2 Bft) 96,15 %
14.02.2016 01:44 0,2 C 96 % 990,8 hPa 0,0 l/m 3,4 km/h (1 Bft) SO 133 0 min 0,000 mm 0,0 UV-I 0 W/m -0,4 C 0,2 C 4,8 km/h (1 Bft) 100,00 %
14.02.2016 01:45 0,2 C 96 % 990,9 hPa 0,0 l/m 2,3 km/h (1 Bft) S-SO 159 0 min 0,000 mm 0,0 UV-I 0 W/m -0,4 C 0,2 C 3,2 km/h (1 Bft) 100,00 %
14.02.2016 01:46 0,2 C 96 % 990,9 hPa 0,0 l/m 4,1 km/h (1 Bft) S-SO 153 0 min 0,000 mm 0,0 UV-I 0 W/m -0,4 C 0,2 C 8,0 km/h (2 Bft) 100,00 %
14.02.2016 01:47 0,3 C 96 % 990,9 hPa 0,0 l/m 4,7 km/h (1 Bft) O-SO 120 0 min 0,000 mm 0,0 UV-I 0 W/m -0,3 C 0,3 C 8,0 km/h (2 Bft) 100,00 %
14.02.2016 01:48 0,3 C 96 % 990,9 hPa 0,0 l/m 4,3 km/h (1 Bft) SO 139 0 min 0,000 mm 0,0 UV-I 0 W/m -0,3 C 0,3 C 6,4 km/h (2 Bft) 100,00 %
14.02.2016 01:49 0,3 C 96 % 990,8 hPa 0,0 l/m 3,4 km/h (1 Bft) SO 127 0 min 0,000 mm 0,0 UV-I 0 W/m -0,3 C 0,3 C 4,8 km/h (1 Bft) 100,00 %
14.02.2016 01:50 0,3 C 96 % 990,8 hPa 0,0 l/m 3,1 km/h (1 Bft) S-SO 150 0 min 0,000 mm 0,0 UV-I 0 W/m -0,3 C 0,3 C 6,4 km/h (2 Bft) 100,00 %
14.02.2016 01:51 0,3 C 96 % 990,7 hPa 0,0 l/m 2,7 km/h (1 Bft) SO 146 0 min 0,000 mm 0,0 UV-I 0 W/m -0,3 C 0,3 C 4,8 km/h (1 Bft) 100,00 %
14.02.2016 01:52 0,3 C 96 % 990,7 hPa 0,0 l/m 4,6 km/h (1 Bft) S-SO 166 0 min 0,000 mm 0,0 UV-I 0 W/m -0,3 C 0,3 C 8,0 km/h (2 Bft) 90,91 %
14.02.2016 01:53 0,3 C 96 % 990,7 hPa 0,0 l/m 2,9 km/h (1 Bft) S-SO 150 0 min 0,000 mm 0,0 UV-I 0 W/m -0,3 C 0,3 C 4,8 km/h (1 Bft) 96,30 %
14.02.2016 01:54 0,3 C 96 % 990,9 hPa 0,0 l/m 4,2 km/h (1 Bft) S 169 0 min 0,000 mm 0,0 UV-I 0 W/m -0,3 C 0,3 C 6,4 km/h (2 Bft) 100,00 %
14.02.2016 01:55 0,3 C 96 % 990,9 hPa 0,0 l/m 3,0 km/h (1 Bft) S-SO 159 0 min 0,000 mm 0,0 UV-I 0 W/m -0,3 C 0,3 C 6,4 km/h (2 Bft) 100,00 %
14.02.2016 01:56 0,3 C 96 % 991,0 hPa 0,0 l/m 2,6 km/h (1 Bft) S 191 0 min 0,000 mm 0,0 UV-I 0 W/m -0,3 C 0,3 C 6,4 km/h (2 Bft) 100,00 %
14.02.2016 01:57 0,3 C 96 % 991,0 hPa 0,0 l/m 2,1 km/h (1 Bft) S-SW 213 0 min 0,000 mm 0,0 UV-I 0 W/m -0,3 C 0,3 C 4,8 km/h (1 Bft) 100,00 %
14.02.2016 01:58 0,2 C 96 % 990,8 hPa 0,0 l/m 0,3 km/h (0 Bft) S-SW 213 0 min 0,000 mm 0,0 UV-I 0 W/m -0,4 C 0,2 C 1,6 km/h (1 Bft) 100,00 %
14.02.2016 01:59 0,2 C 96 % 990,7 hPa 0,0 l/m 1,6 km/h (1 Bft) S-SW 213 0 min 0,000 mm 0,0 UV-I 0 W/m -0,4 C 0,2 C 3,2 km/h (1 Bft) 100,00 %
14.02.2016 02:00 0,2 C 96 % 990,7 hPa 0,0 l/m 2,5 km/h (1 Bft) SO 126 0 min 0,000 mm 0,0 UV-I 0 W/m -0,4 C 0,2 C 4,8 km/h (1 Bft) 100,00 %
14.02.2016 02:01 0,2 C 96 % 990,7 hPa 0,0 l/m 1,6 km/h (1 Bft) SO 126 0 min 0,000 mm 0,0 UV-I 0 W/m -0,4 C 0,2 C 3,2 km/h (1 Bft) 100,00 %
14.02.2016 02:02 0,2 C 96 % 990,9 hPa 0,0 l/m 0,3 km/h (0 Bft) SO 126 0 min 0,000 mm 0,0 UV-I 0 W/m -0,4 C 0,2 C 1,6 km/h (1 Bft) 100,00 %
14.02.2016 02:03 0,2 C 96 % 990,9 hPa 0,0 l/m 0,1 km/h (0 Bft) SO 126 0 min 0,000 mm 0,0 UV-I 0 W/m -0,4 C 0,2 C 1,6 km/h (1 Bft) 100,00 %
14.02.2016 02:04 0,2 C 96 % 991,0 hPa 0,0 l/m 0,7 km/h (0 Bft) O-SO 119 0 min 0,000 mm 0,0 UV-I 0 W/m -0,4 C 0,2 C 1,6 km/h (1 Bft) 95,65 %
14.02.2016 02:05 0,1 C 96 % 990,9 hPa 0,0 l/m 0,0 km/h (0 Bft) O-SO 114 0 min 0,000 mm 0,0 UV-I 0 W/m -0,5 C 0,1 C 0,0 km/h (0 Bft) 100,00 %
14.02.2016 02:06 0,1 C 96 % 991,0 hPa 0,0 l/m 0,1 km/h (0 Bft) O-SO 114 0 min 0,000 mm 0,0 UV-I 0 W/m -0,5 C 0,1 C 1,6 km/h (1 Bft) 100,00 %
14.02.2016 02:07 0,0 C 96 % 990,9 hPa 0,0 l/m 0,0 km/h (0 Bft) O-SO 114 0 min 0,000 mm 0,0 UV-I 0 W/m -0,6 C 0,0 C 0,0 km/h (0 Bft) 100,00 %
14.02.2016 02:08 -0,1 C 96 % 990,8 hPa 0,0 l/m 0,6 km/h (0 Bft) O-SO 114 0 min 0,000 mm 0,0 UV-I 0 W/m -0,7 C -0,1 C 1,6 km/h (1 Bft) 100,00 %
14.02.2016 02:09 -0,2 C 95 % 990,8 hPa 0,0 l/m 0,6 km/h (0 Bft) O-SO 114 0 min 0,000 mm 0,0 UV-I 0 W/m -0,9 C -0,2 C 1,6 km/h (1 Bft) 100,00 %
14.02.2016 02:10 -0,2 C 95 % 990,8 hPa 0,0 l/m 1,9 km/h (1 Bft) O-SO 114 0 min 0,000 mm 0,0 UV-I 0 W/m -0,9 C -0,2 C 3,2 km/h (1 Bft) 100,00 %
14.02.2016 02:11 -0,3 C 96 % 990,8 hPa 0,0 l/m 1,6 km/h (1 Bft) O-SO 114 0 min 0,000 mm 0,0 UV-I 0 W/m -0,9 C -0,3 C 3,2 km/h (1 Bft) 100,00 %
14.02.2016 02:12 -0,3 C 96 % 990,7 hPa 0,0 l/m 1,8 km/h (1 Bft) O-SO 114 0 min 0,000 mm 0,0 UV-I 0 W/m -0,9 C -0,3 C 3,2 km/h (1 Bft) 100,00 %
14.02.2016 02:13 -0,2 C 96 % 990,7 hPa 0,0 l/m 0,7 km/h (0 Bft) O-SO 114 0 min 0,000 mm 0,0 UV-I 0 W/m -0,8 C -0,2 C 3,2 km/h (1 Bft) 100,00 %
14.02.2016 02:14 -0,2 C 96 % 990,8 hPa 0,0 l/m 0,1 km/h (0 Bft) O-SO 113 0 min 0,000 mm 0,0 UV-I 0 W/m -0,8 C -0,2 C 1,6 km/h (1 Bft) 100,00 %
14.02.2016 02:15 -0,2 C 96 % 990,8 hPa 0,0 l/m 0,1 km/h (0 Bft) O-SO 113 0 min 0,000 mm 0,0 UV-I 0 W/m -0,8 C -0,2 C 1,6 km/h (1 Bft) 100,00 %
14.02.2016 02:16 -0,2 C 96 % 990,9 hPa 0,0 l/m 0,1 km/h (0 Bft) O-SO 113 0 min 0,000 mm 0,0 UV-I 0 W/m -0,8 C -0,2 C 1,6 km/h (1 Bft) 100,00 %
14.02.2016 02:17 -0,3 C 96 % 990,9 hPa 0,0 l/m 0,0 km/h (0 Bft) O-SO 113 0 min 0,000 mm 0,0 UV-I 0 W/m -0,9 C -0,3 C 0,0 km/h (0 Bft) 100,00 %
14.02.2016 02:18 -0,3 C 96 % 990,9 hPa 0,0 l/m 0,0 km/h (0 Bft) O-SO 113 0 min 0,000 mm 0,0 UV-I 0 W/m -0,9 C -0,3 C 0,0 km/h (0 Bft) 100,00 %
14.02.2016 02:19 -0,3 C 96 % 990,9 hPa 0,0 l/m 0,3 km/h (0 Bft) O-SO 113 0 min 0,000 mm 0,0 UV-I 0 W/m -0,9 C -0,3 C 1,6 km/h (1 Bft) 96,15 %
14.02.2016 02:20 -0,3 C 96 % 990,8 hPa 0,0 l/m 1,3 km/h (1 Bft) O-SO 113 0 min 0,000 mm 0,0 UV-I 0 W/m -0,9 C -0,3 C 3,2 km/h (1 Bft) 100,00 %
14.02.2016 02:21 -0,3 C 96 % 990,7 hPa 0,0 l/m 3,5 km/h (1 Bft) O-SO 110 0 min 0,000 mm 0,0 UV-I 0 W/m -0,9 C -0,3 C 4,8 km/h (1 Bft) 100,00 %
14.02.2016 02:22 -0,3 C 96 % 990,7 hPa 0,0 l/m 4,0 km/h (1 Bft) O-NO 74 0 min 0,000 mm 0,0 UV-I 0 W/m -0,9 C -0,3 C 4,8 km/h (1 Bft) 100,00 %
14.02.2016 02:23 -0,3 C 96 % 990,8 hPa 0,0 l/m 3,5 km/h (1 Bft) O-NO 74 0 min 0,000 mm 0,0 UV-I 0 W/m -0,9 C -0,3 C 4,8 km/h (1 Bft) 100,00 %
14.02.2016 02:24 -0,3 C 96 % 990,9 hPa 0,0 l/m 1,1 km/h (1 Bft) N-NW 327 0 min 0,000 mm 0,0 UV-I 0 W/m -0,9 C -0,3 C 3,2 km/h (1 Bft) 100,00 %
14.02.2016 02:25 -0,3 C 96 % 991,0 hPa 0,0 l/m 4,9 km/h (1 Bft) W-NW 296 0 min 0,000 mm 0,0 UV-I 0 W/m -0,9 C -0,3 C 6,4 km/h (2 Bft) 100,00 %
14.02.2016 02:26 -0,3 C 96 % 990,9 hPa 0,0 l/m 2,0 km/h (1 Bft) NW 308 0 min 0,000 mm 0,0 UV-I 0 W/m -0,9 C -0,3 C 4,8 km/h (1 Bft) 100,00 %
14.02.2016 02:27 -0,3 C 96 % 990,8 hPa 0,0 l/m 1,9 km/h (1 Bft) N 355 0 min 0,000 mm 0,0 UV-I 0 W/m -0,9 C -0,3 C 4,8 km/h (1 Bft) 100,00 %
14.02.2016 02:28 -0,3 C 96 % 990,8 hPa 0,0 l/m 2,8 km/h (1 Bft) N 360 0 min 0,000 mm 0,0 UV-I 0 W/m -0,9 C -0,3 C 3,2 km/h (1 Bft) 100,00 %
14.02.2016 02:29 -0,4 C 96 % 990,8 hPa 0,0 l/m 3,5 km/h (1 Bft) O-NO 61 0 min 0,000 mm 0,0 UV-I 0 W/m -1,0 C -0,4 C 4,8 km/h (1 Bft) 98,85 %
14.02.2016 02:30 -0,4 C 96 % 990,8 hPa 0,0 l/m 4,4 km/h (1 Bft) O-NO 73 0 min 0,000 mm 0,0 UV-I 0 W/m -1,0 C -0,4 C 4,8 km/h (1 Bft) 100,00 %
14.02.2016 02:31 -0,5 C 96 % 990,8 hPa 0,0 l/m 3,0 km/h (1 Bft) O-NO 73 0 min 0,000 mm 0,0 UV-I 0 W/m -1,1 C -0,5 C 4,8 km/h (1 Bft) 100,00 %
14.02.2016 02:32 -0,5 C 96 % 990,9 hPa 0,0 l/m 1,4 km/h (1 Bft) O-NO 73 0 min 0,000 mm 0,0 UV-I 0 W/m -1,1 C -0,5 C 3,2 km/h (1 Bft) 96,15 %
14.02.2016 02:33 -0,6 C 96 % 990,9 hPa 0,0 l/m 0,0 km/h (0 Bft) O-NO 73 0 min 0,000 mm 0,0 UV-I 0 W/m -1,2 C -0,6 C 0,0 km/h (0 Bft) 100,00 %
14.02.2016 02:34 -0,5 C 96 % 991,0 hPa 0,0 l/m 0,0 km/h (0 Bft) O-NO 73 0 min 0,000 mm 0,0 UV-I 0 W/m -1,1 C -0,5 C 0,0 km/h (0 Bft) 100,00 %
14.02.2016 02:35 -0,5 C 96 % 991,0 hPa 0,0 l/m 0,0 km/h (0 Bft) O-NO 73 0 min 0,000 mm 0,0 UV-I 0 W/m -1,1 C -0,5 C 0,0 km/h (0 Bft) 100,00 %
14.02.2016 02:36 -0,4 C 96 % 991,0 hPa 0,0 l/m 0,2 km/h (0 Bft) O-NO 73 0 min 0,000 mm 0,0 UV-I 0 W/m -1,0 C -0,4 C 1,6 km/h (1 Bft) 100,00 %
14.02.2016 02:37 -0,4 C 96 % 991,1 hPa 0,0 l/m 0,5 km/h (0 Bft) O-NO 73 0 min 0,000 mm 0,0 UV-I 0 W/m -1,0 C -0,4 C 1,6 km/h (1 Bft) 100,00 %
14.02.2016 02:38 -0,4 C 96 % 991,1 hPa 0,0 l/m 0,0 km/h (0 Bft) O-NO 73 0 min 0,000 mm 0,0 UV-I 0 W/m -1,0 C -0,4 C 0,0 km/h (0 Bft) 100,00 %
14.02.2016 02:39 -0,4 C 97 % 991,1 hPa 0,0 l/m 0,2 km/h (0 Bft) O-NO 73 0 min 0,000 mm 0,0 UV-I 0 W/m -0,8 C -0,4 C 1,6 km/h (1 Bft) 100,00 %
14.02.2016 02:40 -0,4 C 97 % 991,1 hPa 0,0 l/m 0,2 km/h (0 Bft) O-NO 73 0 min 0,000 mm 0,0 UV-I 0 W/m -0,8 C -0,4 C 1,6 km/h (1 Bft) 100,00 %
14.02.2016 02:41 -0,4 C 96 % 991,1 hPa 0,0 l/m 1,1 km/h (1 Bft) O-NO 73 0 min 0,000 mm 0,0 UV-I 0 W/m -1,0 C -0,4 C 3,2 km/h (1 Bft) 100,00 %
14.02.2016 02:42 -0,4 C 96 % 991,2 hPa 0,0 l/m 0,3 km/h (0 Bft) O-NO 73 0 min 0,000 mm 0,0 UV-I 0 W/m -1,0 C -0,4 C 1,6 km/h (1 Bft) 100,00 %
14.02.2016 02:43 -0,4 C 96 % 991,2 hPa 0,0 l/m 0,3 km/h (0 Bft) O-NO 73 0 min 0,000 mm 0,0 UV-I 0 W/m -1,0 C -0,4 C 1,6 km/h (1 Bft) 95,83 %
14.02.2016 02:44 -0,5 C 96 % 991,2 hPa 0,0 l/m 0,1 km/h (0 Bft) O-NO 73 0 min 0,000 mm 0,0 UV-I 0 W/m -1,1 C -0,5 C 1,6 km/h (1 Bft) 95,65 %
14.02.2016 02:45 -0,5 C 96 % 991,2 hPa 0,0 l/m 2,0 km/h (1 Bft) O-NO 73 0 min 0,000 mm 0,0 UV-I 0 W/m -1,1 C -0,5 C 3,2 km/h (1 Bft) 100,00 %
14.02.2016 02:46 -0,5 C 96 % 991,1 hPa 0,0 l/m 3,1 km/h (1 Bft) O-NO 73 0 min 0,000 mm 0,0 UV-I 0 W/m -1,1 C -0,5 C 4,8 km/h (1 Bft) 100,00 %
14.02.2016 02:47 -0,5 C 96 % 991,1 hPa 0,0 l/m 2,7 km/h (1 Bft) O-NO 73 0 min 0,000 mm 0,0 UV-I 0 W/m -1,1 C -0,5 C 3,2 km/h (1 Bft) 91,30 %
14.02.2016 02:48 -0,4 C 96 % 991,1 hPa 0,0 l/m 1,3 km/h (1 Bft) O-NO 73 0 min 0,000 mm 0,0 UV-I 0 W/m -1,0 C -0,4 C 3,2 km/h (1 Bft) 100,00 %
14.02.2016 02:49 -0,4 C 97 % 991,1 hPa 0,0 l/m 0,2 km/h (0 Bft) O-NO 73 0 min 0,000 mm 0,0 UV-I 0 W/m -0,8 C -0,4 C 1,6 km/h (1 Bft) 100,00 %
14.02.2016 02:50 -0,4 C 97 % 991,1 hPa 0,0 l/m 0,2 km/h (0 Bft) O-NO 73 0 min 0,000 mm 0,0 UV-I 0 W/m -0,8 C -0,4 C 1,6 km/h (1 Bft) 100,00 %
14.02.2016 02:51 -0,4 C 97 % 991,0 hPa 0,0 l/m 1,6 km/h (1 Bft) O-NO 73 0 min 0,000 mm 0,0 UV-I 0 W/m -0,8 C -0,4 C 3,2 km/h (1 Bft) 100,00 %
14.02.2016 02:52 -0,4 C 97 % 991,0 hPa 0,0 l/m 4,0 km/h (1 Bft) O-NO 73 0 min 0,000 mm 0,0 UV-I 0 W/m -0,8 C -0,4 C 4,8 km/h (1 Bft) 100,00 %
14.02.2016 02:53 -0,4 C 97 % 991,0 hPa 0,0 l/m 4,6 km/h (1 Bft) O-NO 74 0 min 0,000 mm 0,0 UV-I 0 W/m -0,8 C -0,4 C 6,4 km/h (2 Bft) 95,65 %
14.02.2016 02:54 -0,4 C 97 % 991,0 hPa 0,0 l/m 5,8 km/h (2 Bft) O-NO 57 0 min 0,000 mm 0,0 UV-I 0 W/m -0,8 C -0,4 C 8,0 km/h (2 Bft) 100,00 %
14.02.2016 02:55 -0,4 C 97 % 991,0 hPa 0,0 l/m 6,9 km/h (2 Bft) NO 52 0 min 0,000 mm 0,0 UV-I 0 W/m -0,8 C -0,9 C 8,0 km/h (2 Bft) 100,00 %
14.02.2016 02:56 -0,4 C 97 % 991,0 hPa 0,0 l/m 5,8 km/h (2 Bft) NO 36 0 min 0,000 mm 0,0 UV-I 0 W/m -0,8 C -0,4 C 6,4 km/h (2 Bft) 100,00 %
14.02.2016 02:57 -0,4 C 97 % 991,0 hPa 0,0 l/m 7,2 km/h (2 Bft) N-NO 31 0 min 0,000 mm 0,0 UV-I 0 W/m -0,8 C -1,2 C 8,0 km/h (2 Bft) 100,00 %
14.02.2016 02:58 -0,4 C 97 % 991,0 hPa 0,0 l/m 7,6 km/h (2 Bft) N-NO 26 0 min 0,000 mm 0,0 UV-I 0 W/m -0,8 C -1,7 C 9,7 km/h (2 Bft) 96,30 %
14.02.2016 02:59 -0,4 C 97 % 991,1 hPa 0,0 l/m 7,2 km/h (2 Bft) N-NO 13 0 min 0,000 mm 0,0 UV-I 0 W/m -0,8 C -1,2 C 11,3 km/h (2 Bft) 100,00 %
14.02.2016 03:00 -0,4 C 97 % 991,2 hPa 0,0 l/m 1,9 km/h (1 Bft) N 11 0 min 0,000 mm 0,0 UV-I 0 W/m -0,8 C -0,4 C 4,8 km/h (1 Bft) 100,00 %
14.02.2016 03:01 -0,5 C 97 % 991,3 hPa 0,0 l/m 0,6 km/h (0 Bft) N 9 0 min 0,000 mm 0,0 UV-I 0 W/m -0,9 C -0,5 C 1,6 km/h (1 Bft) 100,00 %
14.02.2016 03:02 -0,5 C 97 % 991,4 hPa 0,0 l/m 0,7 km/h (0 Bft) N-NW 329 0 min 0,000 mm 0,0 UV-I 0 W/m -0,9 C -0,5 C 1,6 km/h (1 Bft) 100,00 %
14.02.2016 03:03 -0,5 C 97 % 991,3 hPa 0,0 l/m 1,9 km/h (1 Bft) N-NO 13 0 min 0,000 mm 0,0 UV-I 0 W/m -0,9 C -0,5 C 4,8 km/h (1 Bft) 100,00 %
14.02.2016 03:04 -0,6 C 97 % 991,3 hPa 0,0 l/m 6,0 km/h (2 Bft) O-NO 57 0 min 0,000 mm 0,0 UV-I 0 W/m -1,0 C -0,6 C 8,0 km/h (2 Bft) 100,00 %
14.02.2016 03:05 -0,5 C 97 % 991,3 hPa 0,0 l/m 7,1 km/h (2 Bft) NO 51 0 min 0,000 mm 0,0 UV-I 0 W/m -0,9 C -1,2 C 9,7 km/h (2 Bft) 100,00 %
14.02.2016 03:06 -0,5 C 97 % 991,2 hPa 0,0 l/m 6,0 km/h (2 Bft) N-NO 17 0 min 0,000 mm 0,0 UV-I 0 W/m -0,9 C -0,5 C 8,0 km/h (2 Bft) 100,00 %
14.02.2016 03:07 -0,5 C 97 % 991,2 hPa 0,0 l/m 6,9 km/h (2 Bft) NO 43 0 min 0,000 mm 0,0 UV-I 0 W/m -0,9 C -1,0 C 8,0 km/h (2 Bft) 100,00 %
14.02.2016 03:08 -0,5 C 97 % 991,3 hPa 0,0 l/m 5,5 km/h (1 Bft) NO 37 0 min 0,000 mm 0,0 UV-I 0 W/m -0,9 C -0,5 C 6,4 km/h (2 Bft) 100,00 %
14.02.2016 03:09 -0,5 C 97 % 991,3 hPa 0,0 l/m 4,7 km/h (1 Bft) N-NO 19 0 min 0,000 mm 0,0 UV-I 0 W/m -0,9 C -0,5 C 6,4 km/h (2 Bft) 100,00 %
14.02.2016 03:10 -0,5 C 97 % 991,3 hPa 0,0 l/m 4,8 km/h (1 Bft) NO 38 0 min 0,000 mm 0,0 UV-I 0 W/m -0,9 C -0,5 C 6,4 km/h (2 Bft) 100,00 %
14.02.2016 03:11 -0,5 C 97 % 991,3 hPa 0,0 l/m 2,6 km/h (1 Bft) N-NO 24 0 min 0,000 mm 0,0 UV-I 0 W/m -0,9 C -0,5 C 4,8 km/h (1 Bft) 100,00 %
14.02.2016 03:12 -0,5 C 97 % 991,3 hPa 0,0 l/m 3,2 km/h (1 Bft) N-NO 24 0 min 0,000 mm 0,0 UV-I 0 W/m -0,9 C -0,5 C 4,8 km/h (1 Bft) 100,00 %
14.02.2016 03:13 -0,5 C 97 % 991,3 hPa 0,0 l/m 3,6 km/h (1 Bft) N-NO 24 0 min 0,000 mm 0,0 UV-I 0 W/m -0,9 C -0,5 C 4,8 km/h (1 Bft) 100,00 %
14.02.2016 03:14 -0,5 C 97 % 991,3 hPa 0,0 l/m 1,4 km/h (1 Bft) N-NO 24 0 min 0,000 mm 0,0 UV-I 0 W/m -0,9 C -0,5 C 3,2 km/h (1 Bft) 92,31 %
14.02.2016 03:15 -0,5 C 97 % 991,3 hPa 0,0 l/m 0,7 km/h (0 Bft) N-NO 31 0 min 0,000 mm 0,0 UV-I 0 W/m -0,9 C -0,5 C 1,6 km/h (1 Bft) 100,00 %
14.02.2016 03:16 -0,5 C 97 % 991,3 hPa 0,0 l/m 0,5 km/h (0 Bft) N-NO 15 0 min 0,000 mm 0,0 UV-I 0 W/m -0,9 C -0,5 C 1,6 km/h (1 Bft) 96,15 %
14.02.2016 03:17 -0,5 C 97 % 991,3 hPa 0,0 l/m 0,8 km/h (0 Bft) N-NO 15 0 min 0,000 mm 0,0 UV-I 0 W/m -0,9 C -0,5 C 1,6 km/h (1 Bft) 100,00 %
14.02.2016 03:18 -0,5 C 97 % 991,3 hPa 0,0 l/m 0,3 km/h (0 Bft) N-NO 15 0 min 0,000 mm 0,0 UV-I 0 W/m -0,9 C -0,5 C 1,6 km/h (1 Bft) 96,15 %
14.02.2016 03:19 -0,6 C 97 % 991,4 hPa 0,0 l/m 0,8 km/h (0 Bft) N-NO 15 0 min 0,000 mm 0,0 UV-I 0 W/m -1,0 C -0,6 C 1,6 km/h (1 Bft) 100,00 %
14.02.2016 03:20 -0,6 C 97 % 991,4 hPa 0,0 l/m 1,2 km/h (1 Bft) N 11 0 min 0,000 mm 0,0 UV-I 0 W/m -1,0 C -0,6 C 3,2 km/h (1 Bft) 96,15 %
14.02.2016 03:21 -0,6 C 97 % 991,4 hPa 0,0 l/m 0,2 km/h (0 Bft) N 11 0 min 0,000 mm 0,0 UV-I 0 W/m -1,0 C -0,6 C 1,6 km/h (1 Bft) 96,30 %
14.02.2016 03:22 -0,6 C 97 % 991,4 hPa 0,0 l/m 0,4 km/h (0 Bft) N 11 0 min 0,000 mm 0,0 UV-I 0 W/m -1,0 C -0,6 C 1,6 km/h (1 Bft) 100,00 %
14.02.2016 03:23 -0,6 C 97 % 991,4 hPa 0,0 l/m 0,1 km/h (0 Bft) N 11 0 min 0,000 mm 0,0 UV-I 0 W/m -1,0 C -0,6 C 1,6 km/h (1 Bft) 95,83 %
14.02.2016 03:24 -0,6 C 97 % 991,4 hPa 0,0 l/m 0,9 km/h (0 Bft) N 11 0 min 0,000 mm 0,0 UV-I 0 W/m -1,0 C -0,6 C 3,2 km/h (1 Bft) 100,00 %
14.02.2016 03:25 -0,6 C 97 % 991,5 hPa 0,0 l/m 0,8 km/h (0 Bft) N 10 0 min 0,000 mm 0,0 UV-I 0 W/m -1,0 C -0,6 C 3,2 km/h (1 Bft) 96,15 %
14.02.2016 03:26 -0,6 C 97 % 991,6 hPa 0,0 l/m 0,1 km/h (0 Bft) N 10 0 min 0,000 mm 0,0 UV-I 0 W/m -1,0 C -0,6 C 1,6 km/h (1 Bft) 100,00 %
14.02.2016 03:27 -0,6 C 97 % 991,5 hPa 0,0 l/m 1,9 km/h (1 Bft) N 10 0 min 0,000 mm 0,0 UV-I 0 W/m -1,0 C -0,6 C 3,2 km/h (1 Bft) 96,30 %
14.02.2016 03:28 -0,7 C 97 % 991,6 hPa 0,0 l/m 2,9 km/h (1 Bft) N 11 0 min 0,000 mm 0,0 UV-I 0 W/m -1,1 C -0,7 C 3,2 km/h (1 Bft) 91,30 %
14.02.2016 03:29 -0,7 C 97 % 991,7 hPa 0,0 l/m 1,8 km/h (1 Bft) N 11 0 min 0,000 mm 0,0 UV-I 0 W/m -1,1 C -0,7 C 4,8 km/h (1 Bft) 100,00 %
14.02.2016 03:30 -0,7 C 97 % 991,7 hPa 0,0 l/m 0,4 km/h (0 Bft) N 5 0 min 0,000 mm 0,0 UV-I 0 W/m -1,1 C -0,7 C 1,6 km/h (1 Bft) 100,00 %
14.02.2016 03:31 -0,7 C 97 % 991,6 hPa 0,0 l/m 0,4 km/h (0 Bft) N 5 0 min 0,000 mm 0,0 UV-I 0 W/m -1,1 C -0,7 C 1,6 km/h (1 Bft) 96,15 %
14.02.2016 03:32 -0,7 C 97 % 991,6 hPa 0,0 l/m 0,3 km/h (0 Bft) N 5 0 min 0,000 mm 0,0 UV-I 0 W/m -1,1 C -0,7 C 1,6 km/h (1 Bft) 96,30 %
14.02.2016 03:33 -0,7 C 97 % 991,6 hPa 0,0 l/m 3,6 km/h (1 Bft) N-NO 23 0 min 0,000 mm 0,0 UV-I 0 W/m -1,1 C -0,7 C 6,4 km/h (2 Bft) 100,00 %
14.02.2016 03:34 -0,6 C 97 % 991,5 hPa 0,0 l/m 5,0 km/h (1 Bft) N-NO 32 0 min 0,000 mm 0,0 UV-I 0 W/m -1,0 C -0,6 C 6,4 km/h (2 Bft) 95,83 %
14.02.2016 03:35 -0,6 C 97 % 991,5 hPa 0,0 l/m 4,2 km/h (1 Bft) N-NO 32 0 min 0,000 mm 0,0 UV-I 0 W/m -1,0 C -0,6 C 6,4 km/h (2 Bft) 100,00 %
14.02.2016 03:36 -0,6 C 97 % 991,6 hPa 0,0 l/m 1,5 km/h (1 Bft) N-NO 32 0 min 0,000 mm 0,0 UV-I 0 W/m -1,0 C -0,6 C 3,2 km/h (1 Bft) 95,83 %
14.02.2016 03:37 -0,6 C 97 % 991,5 hPa 0,0 l/m 4,9 km/h (1 Bft) O-NO 61 0 min 0,000 mm 0,0 UV-I 0 W/m -1,0 C -0,6 C 8,0 km/h (2 Bft) 92,31 %
14.02.2016 03:38 -0,6 C 97 % 991,4 hPa 0,0 l/m 6,4 km/h (2 Bft) NO 55 0 min 0,000 mm 0,0 UV-I 0 W/m -1,0 C -0,6 C 9,7 km/h (2 Bft) 95,83 %
14.02.2016 03:39 -0,6 C 97 % 991,3 hPa 0,0 l/m 6,9 km/h (2 Bft) NO 49 0 min 0,000 mm 0,0 UV-I 0 W/m -1,0 C -1,1 C 9,7 km/h (2 Bft) 94,12 %
14.02.2016 03:40 -0,6 C 97 % 991,3 hPa 0,0 l/m 6,3 km/h (2 Bft) NO 53 0 min 0,000 mm 0,0 UV-I 0 W/m -1,0 C -0,6 C 8,0 km/h (2 Bft) 100,00 %
14.02.2016 03:41 -0,6 C 97 % 991,3 hPa 0,0 l/m 4,3 km/h (1 Bft) NO 46 0 min 0,000 mm 0,0 UV-I 0 W/m -1,0 C -0,6 C 6,4 km/h (2 Bft) 96,15 %
14.02.2016 03:42 -0,6 C 97 % 991,3 hPa 0,0 l/m 2,5 km/h (1 Bft) NO 46 0 min 0,000 mm 0,0 UV-I 0 W/m -1,0 C -0,6 C 3,2 km/h (1 Bft) 100,00 %
14.02.2016 03:43 -0,6 C 97 % 991,3 hPa 0,0 l/m 4,0 km/h (1 Bft) NO 50 0 min 0,000 mm 0,0 UV-I 0 W/m -1,0 C -0,6 C 6,4 km/h (2 Bft) 92,31 %
14.02.2016 03:44 -0,6 C 97 % 991,3 hPa 0,0 l/m 5,4 km/h (1 Bft) N-NO 30 0 min 0,000 mm 0,0 UV-I 0 W/m -1,0 C -0,6 C 6,4 km/h (2 Bft) 100,00 %
14.02.2016 03:45 -0,6 C 97 % 991,2 hPa 0,0 l/m 7,0 km/h (2 Bft) NO 42 0 min 0,000 mm 0,0 UV-I 0 W/m -1,0 C -1,2 C 8,0 km/h (2 Bft) 93,10 %
14.02.2016 03:46 -0,7 C 97 % 991,1 hPa 0,0 l/m 5,8 km/h (2 Bft) NO 54 0 min 0,000 mm 0,0 UV-I 0 W/m -1,1 C -0,7 C 8,0 km/h (2 Bft) 96,30 %
14.02.2016 03:47 -0,7 C 97 % 991,1 hPa 0,0 l/m 6,1 km/h (2 Bft) NO 42 0 min 0,000 mm 0,0 UV-I 0 W/m -1,1 C -0,7 C 8,0 km/h (2 Bft) 100,00 %
14.02.2016 03:48 -0,7 C 97 % 991,2 hPa 0,0 l/m 6,1 km/h (2 Bft) NO 34 0 min 0,000 mm 0,0 UV-I 0 W/m -1,1 C -0,7 C 8,0 km/h (2 Bft) 95,83 %
14.02.2016 03:49 -0,7 C 97 % 991,2 hPa 0,0 l/m 6,0 km/h (2 Bft) NO 40 0 min 0,000 mm 0,0 UV-I 0 W/m -1,1 C -0,7 C 8,0 km/h (2 Bft) 95,65 %
14.02.2016 03:50 -0,7 C 97 % 991,2 hPa 0,0 l/m 5,0 km/h (1 Bft) NO 34 0 min 0,000 mm 0,0 UV-I 0 W/m -1,1 C -0,7 C 6,4 km/h (2 Bft) 100,00 %
14.02.2016 03:51 -0,8 C 97 % 991,2 hPa 0,0 l/m 5,0 km/h (1 Bft) N-NO 28 0 min 0,000 mm 0,0 UV-I 0 W/m -1,2 C -0,8 C 6,4 km/h (2 Bft) 96,30 %
14.02.2016 03:52 -0,8 C 97 % 991,2 hPa 0,0 l/m 2,3 km/h (1 Bft) N-NO 27 0 min 0,000 mm 0,0 UV-I 0 W/m -1,2 C -0,8 C 4,8 km/h (1 Bft) 96,15 %
14.02.2016 03:53 -0,8 C 97 % 991,2 hPa 0,0 l/m 4,2 km/h (1 Bft) N-NO 27 0 min 0,000 mm 0,0 UV-I 0 W/m -1,2 C -0,8 C 4,8 km/h (1 Bft) 100,00 %
14.02.2016 03:54 -0,8 C 97 % 991,2 hPa 0,0 l/m 1,4 km/h (1 Bft) N-NO 27 0 min 0,000 mm 0,0 UV-I 0 W/m -1,2 C -0,8 C 3,2 km/h (1 Bft) 100,00 %
14.02.2016 03:55 -0,8 C 97 % 991,3 hPa 0,0 l/m 3,3 km/h (1 Bft) N-NO 27 0 min 0,000 mm 0,0 UV-I 0 W/m -1,2 C -0,8 C 4,8 km/h (1 Bft) 100,00 %
14.02.2016 03:56 -0,8 C 97 % 991,3 hPa 0,0 l/m 3,4 km/h (1 Bft) NO 38 0 min 0,000 mm 0,0 UV-I 0 W/m -1,2 C -0,8 C 4,8 km/h (1 Bft) 100,00 %
14.02.2016 03:57 -0,8 C 97 % 991,1 hPa 0,0 l/m 4,1 km/h (1 Bft) NO 49 0 min 0,000 mm 0,0 UV-I 0 W/m -1,2 C -0,8 C 4,8 km/h (1 Bft) 96,30 %
14.02.2016 03:58 -0,8 C 97 % 991,1 hPa 0,0 l/m 4,9 km/h (1 Bft) O-NO 64 0 min 0,000 mm 0,0 UV-I 0 W/m -1,2 C -0,8 C 6,4 km/h (2 Bft) 96,55 %
14.02.2016 03:59 -0,8 C 97 % 991,1 hPa 0,0 l/m 6,3 km/h (2 Bft) O 79 0 min 0,000 mm 0,0 UV-I 0 W/m -1,2 C -0,8 C 8,0 km/h (2 Bft) 100,00 %
14.02.2016 04:00 -0,8 C 97 % 991,1 hPa 0,0 l/m 5,6 km/h (1 Bft) O 82 0 min 0,000 mm 0,0 UV-I 0 W/m -1,2 C -0,8 C 6,4 km/h (2 Bft) 100,00 %
14.02.2016 04:01 -0,8 C 97 % 991,0 hPa 0,0 l/m 4,7 km/h (1 Bft) O 80 0 min 0,000 mm 0,0 UV-I 0 W/m -1,2 C -0,8 C 6,4 km/h (2 Bft) 100,00 %
14.02.2016 04:02 -0,8 C 97 % 991,0 hPa 0,0 l/m 5,2 km/h (1 Bft) O 91 0 min 0,000 mm 0,0 UV-I 0 W/m -1,2 C -0,8 C 6,4 km/h (2 Bft) 100,00 %
14.02.2016 04:03 -0,8 C 97 % 991,1 hPa 0,0 l/m 3,9 km/h (1 Bft) O 82 0 min 0,000 mm 0,0 UV-I 0 W/m -1,2 C -0,8 C 4,8 km/h (1 Bft) 100,00 %
14.02.2016 04:04 -0,8 C 97 % 991,1 hPa 0,0 l/m 5,1 km/h (1 Bft) O-NO 65 0 min 0,000 mm 0,0 UV-I 0 W/m -1,2 C -0,8 C 6,4 km/h (2 Bft) 100,00 %
14.02.2016 04:05 -0,9 C 97 % 991,1 hPa 0,0 l/m 4,3 km/h (1 Bft) O-NO 65 0 min 0,000 mm 0,0 UV-I 0 W/m -1,3 C -0,9 C 6,4 km/h (2 Bft) 100,00 %
14.02.2016 04:06 -0,8 C 97 % 991,1 hPa 0,0 l/m 5,0 km/h (1 Bft) O-NO 78 0 min 0,000 mm 0,0 UV-I 0 W/m -1,2 C -0,8 C 6,4 km/h (2 Bft) 100,00 %
14.02.2016 04:07 -0,8 C 97 % 991,1 hPa 0,0 l/m 5,2 km/h (1 Bft) O 94 0 min 0,000 mm 0,0 UV-I 0 W/m -1,2 C -0,8 C 6,4 km/h (2 Bft) 100,00 %
14.02.2016 04:08 -0,8 C 97 % 991,1 hPa 0,0 l/m 6,8 km/h (2 Bft) O-SO 112 0 min 0,000 mm 0,0 UV-I 0 W/m -1,2 C -1,2 C 9,7 km/h (2 Bft) 100,00 %
14.02.2016 04:09 -0,8 C 97 % 991,0 hPa 0,0 l/m 6,1 km/h (2 Bft) SO 133 0 min 0,000 mm 0,0 UV-I 0 W/m -1,2 C -0,8 C 8,0 km/h (2 Bft) 100,00 %
14.02.2016 04:10 -0,7 C 97 % 991,0 hPa 0,0 l/m 5,4 km/h (1 Bft) SO 131 0 min 0,000 mm 0,0 UV-I 0 W/m -1,1 C -0,7 C 8,0 km/h (2 Bft) 100,00 %
14.02.2016 04:11 -0,7 C 97 % 991,0 hPa 0,0 l/m 5,8 km/h (2 Bft) O-SO 115 0 min 0,000 mm 0,0 UV-I 0 W/m -1,1 C -0,7 C 9,7 km/h (2 Bft) 96,30 %
14.02.2016 04:12 -0,7 C 97 % 991,0 hPa 0,0 l/m 6,3 km/h (2 Bft) S-SO 147 0 min 0,000 mm 0,0 UV-I 0 W/m -1,1 C -0,7 C 9,7 km/h (2 Bft) 100,00 %
14.02.2016 04:13 -0,6 C 97 % 991,0 hPa 0,0 l/m 4,7 km/h (1 Bft) O-SO 109 0 min 0,000 mm 0,0 UV-I 0 W/m -1,0 C -0,6 C 6,4 km/h (2 Bft) 100,00 %
14.02.2016 04:14 -0,6 C 97 % 991,0 hPa 0,0 l/m 4,8 km/h (1 Bft) O-SO 117 0 min 0,000 mm 0,0 UV-I 0 W/m -1,0 C -0,6 C 6,4 km/h (2 Bft) 100,00 %
14.02.2016 04:15 -0,6 C 97 % 991,1 hPa 0,0 l/m 7,8 km/h (2 Bft) SO 132 0 min 0,000 mm 0,0 UV-I 0 W/m -1,0 C -2,1 C 12,9 km/h (3 Bft) 100,00 %
14.02.2016 04:16 -0,6 C 97 % 991,1 hPa 0,0 l/m 9,4 km/h (2 Bft) O-SO 116 0 min 0,000 mm 0,0 UV-I 0 W/m -1,0 C -3,6 C 11,3 km/h (2 Bft) 100,00 %
14.02.2016 04:17 -0,6 C 97 % 991,1 hPa 0,0 l/m 6,4 km/h (2 Bft) S-SO 162 0 min 0,000 mm 0,0 UV-I 0 W/m -1,0 C -0,6 C 11,3 km/h (2 Bft) 100,00 %
14.02.2016 04:18 -0,6 C 97 % 991,1 hPa 0,0 l/m 3,8 km/h (1 Bft) S-SO 158 0 min 0,000 mm 0,0 UV-I 0 W/m -1,0 C -0,6 C 9,7 km/h (2 Bft) 100,00 %
14.02.2016 04:19 -0,5 C 97 % 991,2 hPa 0,0 l/m 5,2 km/h (1 Bft) S 171 0 min 0,000 mm 0,0 UV-I 0 W/m -0,9 C -0,5 C 9,7 km/h (2 Bft) 100,00 %
14.02.2016 04:20 -0,5 C 97 % 991,2 hPa 0,0 l/m 3,8 km/h (1 Bft) S-SO 151 0 min 0,000 mm 0,0 UV-I 0 W/m -0,9 C -0,5 C 9,7 km/h (2 Bft) 100,00 %
14.02.2016 04:21 -0,5 C 97 % 991,3 hPa 0,0 l/m 3,5 km/h (1 Bft) S-SO 165 0 min 0,000 mm 0,0 UV-I 0 W/m -0,9 C -0,5 C 6,4 km/h (2 Bft) 100,00 %
14.02.2016 04:22 -0,4 C 97 % 991,3 hPa 0,0 l/m 5,0 km/h (1 Bft) S-SO 149 0 min 0,000 mm 0,0 UV-I 0 W/m -0,8 C -0,4 C 8,0 km/h (2 Bft) 100,00 %
14.02.2016 04:23 -0,4 C 97 % 991,3 hPa 0,0 l/m 4,2 km/h (1 Bft) SO 131 0 min 0,000 mm 0,0 UV-I 0 W/m -0,8 C -0,4 C 6,4 km/h (2 Bft) 100,00 %
14.02.2016 04:24 -0,4 C 97 % 991,3 hPa 0,0 l/m 2,1 km/h (1 Bft) S-SO 154 0 min 0,000 mm 0,0 UV-I 0 W/m -0,8 C -0,4 C 4,8 km/h (1 Bft) 100,00 %
14.02.2016 04:25 -0,4 C 97 % 991,3 hPa 0,0 l/m 2,0 km/h (1 Bft) S-SO 156 0 min 0,000 mm 0,0 UV-I 0 W/m -0,8 C -0,4 C 3,2 km/h (1 Bft) 96,15 %
14.02.2016 04:26 -0,4 C 97 % 991,3 hPa 0,0 l/m 2,5 km/h (1 Bft) SO 146 0 min 0,000 mm 0,0 UV-I 0 W/m -0,8 C -0,4 C 4,8 km/h (1 Bft) 100,00 %
14.02.2016 04:27 -0,4 C 97 % 991,3 hPa 0,0 l/m 1,7 km/h (1 Bft) S-SO 155 0 min 0,000 mm 0,0 UV-I 0 W/m -0,8 C -0,4 C 3,2 km/h (1 Bft) 100,00 %
14.02.2016 04:28 -0,4 C 97 % 991,3 hPa 0,0 l/m 2,9 km/h (1 Bft) S-SO 149 0 min 0,000 mm 0,0 UV-I 0 W/m -0,8 C -0,4 C 8,0 km/h (2 Bft) 100,00 %
14.02.2016 04:29 -0,4 C 97 % 991,3 hPa 0,0 l/m 2,7 km/h (1 Bft) S-SO 151 0 min 0,000 mm 0,0 UV-I 0 W/m -0,8 C -0,4 C 4,8 km/h (1 Bft) 100,00 %
14.02.2016 04:30 -0,4 C 97 % 991,3 hPa 0,0 l/m 3,2 km/h (1 Bft) SO 137 0 min 0,000 mm 0,0 UV-I 0 W/m -0,8 C -0,4 C 4,8 km/h (1 Bft) 100,00 %
14.02.2016 04:31 -0,4 C 97 % 991,3 hPa 0,0 l/m 2,9 km/h (1 Bft) S-SO 163 0 min 0,000 mm 0,0 UV-I 0 W/m -0,8 C -0,4 C 6,4 km/h (2 Bft) 100,00 %
14.02.2016 04:32 -0,4 C 97 % 991,2 hPa 0,0 l/m 3,4 km/h (1 Bft) S-SO 155 0 min 0,000 mm 0,0 UV-I 0 W/m -0,8 C -0,4 C 4,8 km/h (1 Bft) 100,00 %
14.02.2016 04:33 -0,4 C 97 % 991,2 hPa 0,0 l/m 3,6 km/h (1 Bft) SO 146 0 min 0,000 mm 0,0 UV-I 0 W/m -0,8 C -0,4 C 6,4 km/h (2 Bft) 100,00 %
14.02.2016 04:34 -0,4 C 97 % 991,3 hPa 0,0 l/m 4,3 km/h (1 Bft) SO 144 0 min 0,000 mm 0,0 UV-I 0 W/m -0,8 C -0,4 C 6,4 km/h (2 Bft) 100,00 %
14.02.2016 04:35 -0,4 C 97 % 991,4 hPa 0,0 l/m 4,2 km/h (1 Bft) S-SO 151 0 min 0,000 mm 0,0 UV-I 0 W/m -0,8 C -0,4 C 6,4 km/h (2 Bft) 100,00 %
14.02.2016 04:36 -0,4 C 97 % 991,4 hPa 0,0 l/m 3,0 km/h (1 Bft) S-SO 154 0 min 0,000 mm 0,0 UV-I 0 W/m -0,8 C -0,4 C 6,4 km/h (2 Bft) 96,55 %
14.02.2016 04:37 -0,4 C 97 % 991,3 hPa 0,0 l/m 2,7 km/h (1 Bft) SO 144 0 min 0,000 mm 0,0 UV-I 0 W/m -0,8 C -0,4 C 4,8 km/h (1 Bft) 100,00 %
14.02.2016 04:38 -0,4 C 97 % 991,4 hPa 0,0 l/m 3,0 km/h (1 Bft) S-SO 159 0 min 0,000 mm 0,0 UV-I 0 W/m -0,8 C -0,4 C 6,4 km/h (2 Bft) 100,00 %
14.02.2016 04:39 -0,4 C 97 % 991,4 hPa 0,0 l/m 4,2 km/h (1 Bft) SO 141 0 min 0,000 mm 0,0 UV-I 0 W/m -0,8 C -0,4 C 8,0 km/h (2 Bft) 100,00 %
14.02.2016 04:40 -0,4 C 97 % 991,4 hPa 0,0 l/m 2,8 km/h (1 Bft) S 173 0 min 0,000 mm 0,0 UV-I 0 W/m -0,8 C -0,4 C 4,8 km/h (1 Bft) 91,30 %
14.02.2016 04:41 -0,4 C 97 % 991,4 hPa 0,0 l/m 3,7 km/h (1 Bft) S-SO 158 0 min 0,000 mm 0,0 UV-I 0 W/m -0,8 C -0,4 C 6,4 km/h (2 Bft) 99,46 %
14.02.2016 04:42 -0,4 C 97 % 991,3 hPa 0,0 l/m 4,0 km/h (1 Bft) SO 140 0 min 0,000 mm 0,0 UV-I 0 W/m -0,8 C -0,4 C 8,0 km/h (2 Bft) 97,73 %
14.02.2016 04:43 -0,4 C 97 % 991,3 hPa 0,0 l/m 4,2 km/h (1 Bft) S-SO 154 0 min 0,000 mm 0,0 UV-I 0 W/m -0,8 C -0,4 C 9,7 km/h (2 Bft) 96,30 %
14.02.2016 04:44 -0,4 C 97 % 991,3 hPa 0,0 l/m 3,6 km/h (1 Bft) S-SO 157 0 min 0,000 mm 0,0 UV-I 0 W/m -0,8 C -0,4 C 8,0 km/h (2 Bft) 100,00 %
14.02.2016 04:45 -0,4 C 97 % 991,3 hPa 0,0 l/m 3,8 km/h (1 Bft) S-SO 152 0 min 0,000 mm 0,0 UV-I 0 W/m -0,8 C -0,4 C 9,7 km/h (2 Bft) 100,00 %
14.02.2016 04:46 -0,4 C 97 % 991,3 hPa 0,0 l/m 2,5 km/h (1 Bft) S-SO 167 0 min 0,000 mm 0,0 UV-I 0 W/m -0,8 C -0,4 C 4,8 km/h (1 Bft) 100,00 %
14.02.2016 04:47 -0,4 C 97 % 991,3 hPa 0,0 l/m 2,9 km/h (1 Bft) S 169 0 min 0,000 mm 0,0 UV-I 0 W/m -0,8 C -0,4 C 4,8 km/h (1 Bft) 100,00 %
14.02.2016 04:48 -0,4 C 97 % 991,4 hPa 0,0 l/m 2,7 km/h (1 Bft) S-SW 198 0 min 0,000 mm 0,0 UV-I 0 W/m -0,8 C -0,4 C 6,4 km/h (2 Bft) 100,00 %
14.02.2016 04:49 -0,4 C 97 % 991,4 hPa 0,0 l/m 2,8 km/h (1 Bft) S 175 0 min 0,000 mm 0,0 UV-I 0 W/m -0,8 C -0,4 C 6,4 km/h (2 Bft) 100,00 %
14.02.2016 04:50 -0,4 C 97 % 991,4 hPa 0,0 l/m 1,4 km/h (1 Bft) S 175 0 min 0,000 mm 0,0 UV-I 0 W/m -0,8 C -0,4 C 3,2 km/h (1 Bft) 100,00 %
14.02.2016 04:51 -0,4 C 97 % 991,4 hPa 0,0 l/m 3,3 km/h (1 Bft) S 188 0 min 0,000 mm 0,0 UV-I 0 W/m -0,8 C -0,4 C 6,4 km/h (2 Bft) 100,00 %
14.02.2016 04:52 -0,4 C 97 % 991,4 hPa 0,0 l/m 1,8 km/h (1 Bft) S 181 0 min 0,000 mm 0,0 UV-I 0 W/m -0,8 C -0,4 C 3,2 km/h (1 Bft) 100,00 %
14.02.2016 04:53 -0,4 C 97 % 991,5 hPa 0,0 l/m 2,5 km/h (1 Bft) S 180 0 min 0,000 mm 0,0 UV-I 0 W/m -0,8 C -0,4 C 3,2 km/h (1 Bft) 95,65 %
14.02.2016 04:54 -0,4 C 97 % 991,5 hPa 0,0 l/m 3,2 km/h (1 Bft) S 184 0 min 0,000 mm 0,0 UV-I 0 W/m -0,8 C -0,4 C 4,8 km/h (1 Bft) 100,00 %
14.02.2016 04:55 -0,5 C 97 % 991,5 hPa 0,0 l/m 3,2 km/h (1 Bft) S 185 0 min 0,000 mm 0,0 UV-I 0 W/m -0,9 C -0,5 C 4,8 km/h (1 Bft) 90,91 %
14.02.2016 04:56 -0,5 C 97 % 991,5 hPa 0,0 l/m 0,9 km/h (0 Bft) S 185 0 min 0,000 mm 0,0 UV-I 0 W/m -0,9 C -0,5 C 1,6 km/h (1 Bft) 100,00 %
14.02.2016 04:57 -0,6 C 97 % 991,6 hPa 0,0 l/m 1,1 km/h (1 Bft) S 185 0 min 0,000 mm 0,0 UV-I 0 W/m -1,0 C -0,6 C 1,6 km/h (1 Bft) 100,00 %
14.02.2016 04:58 -0,6 C 97 % 991,6 hPa 0,0 l/m 0,6 km/h (0 Bft) S 185 0 min 0,000 mm 0,0 UV-I 0 W/m -1,0 C -0,6 C 1,6 km/h (1 Bft) 100,00 %
14.02.2016 04:59 -0,6 C 97 % 991,6 hPa 0,0 l/m 0,2 km/h (0 Bft) S 185 0 min 0,000 mm 0,0 UV-I 0 W/m -1,0 C -0,6 C 1,6 km/h (1 Bft) 100,00 %
14.02.2016 05:00 -0,6 C 97 % 991,6 hPa 0,0 l/m 0,9 km/h (0 Bft) S 185 0 min 0,000 mm 0,0 UV-I 0 W/m -1,0 C -0,6 C 1,6 km/h (1 Bft) 100,00 %
14.02.2016 05:01 -0,6 C 97 % 991,6 hPa 0,0 l/m 0,5 km/h (0 Bft) S 185 0 min 0,000 mm 0,0 UV-I 0 W/m -1,0 C -0,6 C 3,2 km/h (1 Bft) 100,00 %
14.02.2016 05:02 -0,6 C 97 % 991,7 hPa 0,0 l/m 3,0 km/h (1 Bft) S 172 0 min 0,000 mm 0,0 UV-I 0 W/m -1,0 C -0,6 C 4,8 km/h (1 Bft) 100,00 %
14.02.2016 05:03 -0,6 C 97 % 991,8 hPa 0,0 l/m 2,7 km/h (1 Bft) S 177 0 min 0,000 mm 0,0 UV-I 0 W/m -1,0 C -0,6 C 3,2 km/h (1 Bft) 100,00 %
14.02.2016 05:04 -0,6 C 97 % 991,9 hPa 0,0 l/m 2,8 km/h (1 Bft) S 177 0 min 0,000 mm 0,0 UV-I 0 W/m -1,0 C -0,6 C 3,2 km/h (1 Bft) 100,00 %
14.02.2016 05:05 -0,6 C 97 % 991,9 hPa 0,0 l/m 2,2 km/h (1 Bft) S 177 0 min 0,000 mm 0,0 UV-I 0 W/m -1,0 C -0,6 C 3,2 km/h (1 Bft) 100,00 %
14.02.2016 05:06 -0,6 C 97 % 991,9 hPa 0,0 l/m 2,8 km/h (1 Bft) S-SW 205 0 min 0,000 mm 0,0 UV-I 0 W/m -1,0 C -0,6 C 4,8 km/h (1 Bft) 100,00 %
14.02.2016 05:07 -0,6 C 97 % 991,9 hPa 0,0 l/m 2,1 km/h (1 Bft) S-SW 205 0 min 0,000 mm 0,0 UV-I 0 W/m -1,0 C -0,6 C 4,8 km/h (1 Bft) 100,00 %
14.02.2016 05:08 -0,6 C 97 % 991,9 hPa 0,0 l/m 1,9 km/h (1 Bft) S-SW 205 0 min 0,000 mm 0,0 UV-I 0 W/m -1,0 C -0,6 C 3,2 km/h (1 Bft) 91,30 %
14.02.2016 05:09 -0,6 C 97 % 991,9 hPa 0,0 l/m 2,3 km/h (1 Bft) S-SW 205 0 min 0,000 mm 0,0 UV-I 0 W/m -1,0 C -0,6 C 3,2 km/h (1 Bft) 100,00 %
14.02.2016 05:10 -0,6 C 97 % 992,0 hPa 0,0 l/m 1,8 km/h (1 Bft) S-SW 205 0 min 0,000 mm 0,0 UV-I 0 W/m -1,0 C -0,6 C 3,2 km/h (1 Bft) 100,00 %
14.02.2016 05:11 -0,6 C 97 % 992,0 hPa 0,0 l/m 1,2 km/h (1 Bft) S-SW 205 0 min 0,000 mm 0,0 UV-I 0 W/m -1,0 C -0,6 C 1,6 km/h (1 Bft) 100,00 %
14.02.2016 05:12 -0,6 C 97 % 992,0 hPa 0,0 l/m 1,9 km/h (1 Bft) S-SW 205 0 min 0,000 mm 0,0 UV-I 0 W/m -1,0 C -0,6 C 3,2 km/h (1 Bft) 100,00 %
14.02.2016 05:13 -0,6 C 97 % 992,0 hPa 0,0 l/m 1,6 km/h (1 Bft) S-SW 205 0 min 0,000 mm 0,0 UV-I 0 W/m -1,0 C -0,6 C 1,6 km/h (1 Bft) 96,30 %
14.02.2016 05:14 -0,7 C 97 % 992,0 hPa 0,0 l/m 1,7 km/h (1 Bft) S-SW 205 0 min 0,000 mm 0,0 UV-I 0 W/m -1,1 C -0,7 C 3,2 km/h (1 Bft) 100,00 %
14.02.2016 05:15 -0,6 C 97 % 992,0 hPa 0,0 l/m 1,7 km/h (1 Bft) S-SW 205 0 min 0,000 mm 0,0 UV-I 0 W/m -1,0 C -0,6 C 3,2 km/h (1 Bft) 100,00 %
14.02.2016 05:16 -0,6 C 97 % 992,0 hPa 0,0 l/m 0,8 km/h (0 Bft) S-SW 205 0 min 0,000 mm 0,0 UV-I 0 W/m -1,0 C -0,6 C 1,6 km/h (1 Bft) 100,00 %
14.02.2016 05:17 -0,6 C 97 % 992,0 hPa 0,0 l/m 0,9 km/h (0 Bft) S-SW 205 0 min 0,000 mm 0,0 UV-I 0 W/m -1,0 C -0,6 C 1,6 km/h (1 Bft) 100,00 %
14.02.2016 05:18 -0,6 C 97 % 992,0 hPa 0,0 l/m 1,1 km/h (1 Bft) S-SW 205 0 min 0,000 mm 0,0 UV-I 0 W/m -1,0 C -0,6 C 1,6 km/h (1 Bft) 100,00 %
14.02.2016 05:19 -0,6 C 97 % 992,0 hPa 0,0 l/m 1,6 km/h (1 Bft) S-SW 205 0 min 0,000 mm 0,0 UV-I 0 W/m -1,0 C -0,6 C 3,2 km/h (1 Bft) 100,00 %
14.02.2016 05:20 -0,6 C 97 % 992,0 hPa 0,0 l/m 1,8 km/h (1 Bft) S-SW 205 0 min 0,000 mm 0,0 UV-I 0 W/m -1,0 C -0,6 C 3,2 km/h (1 Bft) 95,65 %
14.02.2016 05:21 -0,6 C 97 % 992,0 hPa 0,0 l/m 1,7 km/h (1 Bft) S-SW 205 0 min 0,000 mm 0,0 UV-I 0 W/m -1,0 C -0,6 C 3,2 km/h (1 Bft) 100,00 %
14.02.2016 05:22 -0,6 C 97 % 992,0 hPa 0,0 l/m 0,6 km/h (0 Bft) S-SW 205 0 min 0,000 mm 0,0 UV-I 0 W/m -1,0 C -0,6 C 1,6 km/h (1 Bft) 86,96 %
14.02.2016 05:23 -0,7 C 97 % 991,9 hPa 0,0 l/m 0,0 km/h (0 Bft) S-SW 205 0 min 0,000 mm 0,0 UV-I 0 W/m -1,1 C -0,7 C 0,0 km/h (0 Bft) 96,30 %
14.02.2016 05:24 -0,7 C 97 % 991,9 hPa 0,0 l/m 0,0 km/h (0 Bft) S-SW 205 0 min 0,000 mm 0,0 UV-I 0 W/m -1,1 C -0,7 C 0,0 km/h (0 Bft) 100,00 %
14.02.2016 05:25 -0,8 C 97 % 991,9 hPa 0,0 l/m 0,0 km/h (0 Bft) S-SW 205 0 min 0,000 mm 0,0 UV-I 0 W/m -1,2 C -0,8 C 0,0 km/h (0 Bft) 95,83 %
14.02.2016 05:26 -0,8 C 97 % 991,8 hPa 0,0 l/m 0,0 km/h (0 Bft) S-SW 205 0 min 0,000 mm 0,0 UV-I 0 W/m -1,2 C -0,8 C 0,0 km/h (0 Bft) 95,65 %
14.02.2016 05:27 -0,8 C 97 % 991,8 hPa 0,0 l/m 0,1 km/h (0 Bft) S-SW 205 0 min 0,000 mm 0,0 UV-I 0 W/m -1,2 C -0,8 C 1,6 km/h (1 Bft) 91,67 %
14.02.2016 05:28 -0,9 C 97 % 991,9 hPa 0,0 l/m 0,0 km/h (0 Bft) S-SW 205 0 min 0,000 mm 0,0 UV-I 0 W/m -1,3 C -0,9 C 0,0 km/h (0 Bft) 100,00 %
14.02.2016 05:29 -0,9 C 97 % 991,9 hPa 0,0 l/m 0,0 km/h (0 Bft) S-SW 205 0 min 0,000 mm 0,0 UV-I 0 W/m -1,3 C -0,9 C 0,0 km/h (0 Bft) 95,65 %
14.02.2016 05:30 -0,9 C 97 % 991,9 hPa 0,0 l/m 0,0 km/h (0 Bft) S-SW 205 0 min 0,000 mm 0,0 UV-I 0 W/m -1,3 C -0,9 C 0,0 km/h (0 Bft) 96,30 %
14.02.2016 05:31 -0,9 C 97 % 991,9 hPa 0,0 l/m 0,7 km/h (0 Bft) S-SW 205 0 min 0,000 mm 0,0 UV-I 0 W/m -1,3 C -0,9 C 3,2 km/h (1 Bft) 100,00 %
14.02.2016 05:32 -0,9 C 97 % 991,9 hPa 0,0 l/m 2,5 km/h (1 Bft) S-SW 205 0 min 0,000 mm 0,0 UV-I 0 W/m -1,3 C -0,9 C 3,2 km/h (1 Bft) 91,67 %
14.02.2016 05:33 -1,0 C 97 % 991,9 hPa 0,0 l/m 0,1 km/h (0 Bft) S-SW 205 0 min 0,000 mm 0,0 UV-I 0 W/m -1,4 C -1,0 C 1,6 km/h (1 Bft) 100,00 %
14.02.2016 05:34 -1,0 C 97 % 991,9 hPa 0,0 l/m 0,0 km/h (0 Bft) S-SW 205 0 min 0,000 mm 0,0 UV-I 0 W/m -1,4 C -1,0 C 0,0 km/h (0 Bft) 96,30 %
14.02.2016 05:35 -1,1 C 97 % 991,8 hPa 0,0 l/m 0,0 km/h (0 Bft) S-SW 205 0 min 0,000 mm 0,0 UV-I 0 W/m -1,5 C -1,1 C 0,0 km/h (0 Bft) 100,00 %
14.02.2016 05:36 -1,1 C 97 % 991,8 hPa 0,0 l/m 0,1 km/h (0 Bft) S-SW 205 0 min 0,000 mm 0,0 UV-I 0 W/m -1,5 C -1,1 C 1,6 km/h (1 Bft) 95,83 %
14.02.2016 05:37 -1,1 C 97 % 991,8 hPa 0,0 l/m 0,0 km/h (0 Bft) S-SW 205 0 min 0,000 mm 0,0 UV-I 0 W/m -1,5 C -1,1 C 0,0 km/h (0 Bft) 100,00 %
14.02.2016 05:38 -1,2 C 97 % 991,7 hPa 0,0 l/m 0,0 km/h (0 Bft) S-SW 205 0 min 0,000 mm 0,0 UV-I 0 W/m -1,6 C -1,2 C 0,0 km/h (0 Bft) 96,30 %
14.02.2016 05:39 -1,2 C 97 % 991,7 hPa 0,0 l/m 1,5 km/h (1 Bft) S-SW 205 0 min 0,000 mm 0,0 UV-I 0 W/m -1,6 C -1,2 C 1,6 km/h (1 Bft) 100,00 %
14.02.2016 05:40 -1,1 C 97 % 991,8 hPa 0,0 l/m 1,5 km/h (1 Bft) S-SW 205 0 min 0,000 mm 0,0 UV-I 0 W/m -1,5 C -1,1 C 1,6 km/h (1 Bft) 95,83 %
14.02.2016 05:41 -1,1 C 97 % 991,8 hPa 0,0 l/m 1,7 km/h (1 Bft) S-SW 205 0 min 0,000 mm 0,0 UV-I 0 W/m -1,5 C -1,1 C 3,2 km/h (1 Bft) 96,15 %
14.02.2016 05:42 -1,1 C 97 % 991,7 hPa 0,0 l/m 1,2 km/h (1 Bft) S-SW 205 0 min 0,000 mm 0,0 UV-I 0 W/m -1,5 C -1,1 C 1,6 km/h (1 Bft) 100,00 %
14.02.2016 05:43 -1,1 C 97 % 991,7 hPa 0,0 l/m 0,6 km/h (0 Bft) S-SW 205 0 min 0,000 mm 0,0 UV-I 0 W/m -1,5 C -1,1 C 1,6 km/h (1 Bft) 94,12 %
14.02.2016 05:44 -1,1 C 97 % 991,7 hPa 0,0 l/m 0,0 km/h (0 Bft) S-SW 205 0 min 0,000 mm 0,0 UV-I 0 W/m -1,5 C -1,1 C 0,0 km/h (0 Bft) 100,00 %
14.02.2016 05:45 -1,1 C 97 % 991,6 hPa 0,0 l/m 0,7 km/h (0 Bft) S-SW 205 0 min 0,000 mm 0,0 UV-I 0 W/m -1,5 C -1,1 C 1,6 km/h (1 Bft) 95,65 %
14.02.2016 05:46 -1,1 C 97 % 991,6 hPa 0,0 l/m 2,9 km/h (1 Bft) O-SO 109 0 min 0,000 mm 0,0 UV-I 0 W/m -1,5 C -1,1 C 4,8 km/h (1 Bft) 100,00 %
14.02.2016 05:47 -1,1 C 97 % 991,6 hPa 0,0 l/m 4,3 km/h (1 Bft) O 98 0 min 0,000 mm 0,0 UV-I 0 W/m -1,5 C -1,1 C 4,8 km/h (1 Bft) 95,83 %
14.02.2016 05:48 -1,1 C 97 % 991,5 hPa 0,0 l/m 4,3 km/h (1 Bft) O 98 0 min 0,000 mm 0,0 UV-I 0 W/m -1,5 C -1,1 C 4,8 km/h (1 Bft) 96,15 %
14.02.2016 05:49 -1,2 C 97 % 991,5 hPa 0,0 l/m 3,2 km/h (1 Bft) O 98 0 min 0,000 mm 0,0 UV-I 0 W/m -1,6 C -1,2 C 4,8 km/h (1 Bft) 91,67 %
14.02.2016 05:50 -1,2 C 97 % 991,6 hPa 0,0 l/m 2,3 km/h (1 Bft) O 98 0 min 0,000 mm 0,0 UV-I 0 W/m -1,6 C -1,2 C 3,2 km/h (1 Bft) 96,55 %
14.02.2016 05:51 -1,3 C 97 % 991,6 hPa 0,0 l/m 0,1 km/h (0 Bft) O 98 0 min 0,000 mm 0,0 UV-I 0 W/m -1,7 C -1,3 C 1,6 km/h (1 Bft) 100,00 %
14.02.2016 05:52 -1,3 C 97 % 991,7 hPa 0,0 l/m 0,0 km/h (0 Bft) O 98 0 min 0,000 mm 0,0 UV-I 0 W/m -1,7 C -1,3 C 0,0 km/h (0 Bft) 95,65 %
14.02.2016 05:53 -1,3 C 97 % 991,7 hPa 0,0 l/m 2,3 km/h (1 Bft) NW 305 0 min 0,000 mm 0,0 UV-I 0 W/m -1,7 C -1,3 C 4,8 km/h (1 Bft) 100,00 %
14.02.2016 05:54 -1,3 C 97 % 991,7 hPa 0,0 l/m 2,5 km/h (1 Bft) NW 319 0 min 0,000 mm 0,0 UV-I 0 W/m -1,7 C -1,3 C 3,2 km/h (1 Bft) 96,15 %
14.02.2016 05:55 -1,3 C 97 % 991,8 hPa 0,0 l/m 1,1 km/h (1 Bft) NW 319 0 min 0,000 mm 0,0 UV-I 0 W/m -1,7 C -1,3 C 1,6 km/h (1 Bft) 100,00 %
14.02.2016 05:56 -1,3 C 97 % 991,7 hPa 0,0 l/m 1,2 km/h (1 Bft) NW 319 0 min 0,000 mm 0,0 UV-I 0 W/m -1,7 C -1,3 C 1,6 km/h (1 Bft) 100,00 %
14.02.2016 05:57 -1,3 C 97 % 991,7 hPa 0,0 l/m 0,2 km/h (0 Bft) NW 319 0 min 0,000 mm 0,0 UV-I 0 W/m -1,7 C -1,3 C 1,6 km/h (1 Bft) 100,00 %
14.02.2016 05:58 -1,3 C 97 % 991,7 hPa 0,0 l/m 0,0 km/h (0 Bft) NW 319 0 min 0,000 mm 0,0 UV-I 0 W/m -1,7 C -1,3 C 0,0 km/h (0 Bft) 100,00 %
14.02.2016 05:59 -1,3 C 97 % 991,8 hPa 0,0 l/m 0,0 km/h (0 Bft) NW 319 0 min 0,000 mm 0,0 UV-I 0 W/m -1,7 C -1,3 C 0,0 km/h (0 Bft) 95,83 %
14.02.2016 06:00 -1,3 C 97 % 991,8 hPa 0,0 l/m 0,4 km/h (0 Bft) NW 319 0 min 0,000 mm 0,0 UV-I 0 W/m -1,7 C -1,3 C 1,6 km/h (1 Bft) 100,00 %
14.02.2016 06:01 -1,3 C 97 % 991,8 hPa 0,0 l/m 0,2 km/h (0 Bft) NW 319 0 min 0,000 mm 0,0 UV-I 0 W/m -1,7 C -1,3 C 1,6 km/h (1 Bft) 100,00 %
14.02.2016 06:02 -1,4 C 97 % 991,8 hPa 0,0 l/m 0,1 km/h (0 Bft) NW 319 0 min 0,000 mm 0,0 UV-I 0 W/m -1,8 C -1,4 C 1,6 km/h (1 Bft) 100,00 %
14.02.2016 06:03 -1,4 C 97 % 991,8 hPa 0,0 l/m 0,8 km/h (0 Bft) NW 319 0 min 0,000 mm 0,0 UV-I 0 W/m -1,8 C -1,4 C 1,6 km/h (1 Bft) 95,83 %
14.02.2016 06:04 -1,4 C 97 % 991,7 hPa 0,0 l/m 1,4 km/h (1 Bft) NW 319 0 min 0,000 mm 0,0 UV-I 0 W/m -1,8 C -1,4 C 1,6 km/h (1 Bft) 100,00 %
14.02.2016 06:05 -1,4 C 97 % 991,7 hPa 0,0 l/m 2,2 km/h (1 Bft) NW 319 0 min 0,000 mm 0,0 UV-I 0 W/m -1,8 C -1,4 C 3,2 km/h (1 Bft) 100,00 %
14.02.2016 06:06 -1,4 C 97 % 991,6 hPa 0,0 l/m 3,3 km/h (1 Bft) N-NO 23 0 min 0,000 mm 0,0 UV-I 0 W/m -1,8 C -1,4 C 4,8 km/h (1 Bft) 100,00 %
14.02.2016 06:07 -1,4 C 97 % 991,6 hPa 0,0 l/m 4,4 km/h (1 Bft) N-NO 23 0 min 0,000 mm 0,0 UV-I 0 W/m -1,8 C -1,4 C 4,8 km/h (1 Bft) 95,83 %
14.02.2016 06:08 -1,4 C 97 % 991,7 hPa 0,0 l/m 2,2 km/h (1 Bft) N-NO 23 0 min 0,000 mm 0,0 UV-I 0 W/m -1,8 C -1,4 C 3,2 km/h (1 Bft) 100,00 %
14.02.2016 06:09 -1,4 C 97 % 991,7 hPa 0,0 l/m 1,0 km/h (0 Bft) N-NO 22 0 min 0,000 mm 0,0 UV-I 0 W/m -1,8 C -1,4 C 3,2 km/h (1 Bft) 100,00 %
14.02.2016 06:10 -1,4 C 97 % 991,7 hPa 0,0 l/m 0,1 km/h (0 Bft) N-NO 22 0 min 0,000 mm 0,0 UV-I 0 W/m -1,8 C -1,4 C 1,6 km/h (1 Bft) 100,00 %
14.02.2016 06:11 -1,4 C 97 % 991,7 hPa 0,0 l/m 0,1 km/h (0 Bft) N-NO 22 0 min 0,000 mm 0,0 UV-I 0 W/m -1,8 C -1,4 C 1,6 km/h (1 Bft) 100,00 %
14.02.2016 06:12 -1,3 C 97 % 991,7 hPa 0,0 l/m 0,0 km/h (0 Bft) N-NO 22 0 min 0,000 mm 0,0 UV-I 0 W/m -1,7 C -1,3 C 0,0 km/h (0 Bft) 100,00 %
14.02.2016 06:13 -1,4 C 97 % 991,7 hPa 0,0 l/m 0,0 km/h (0 Bft) N-NO 22 0 min 0,000 mm 0,0 UV-I 0 W/m -1,8 C -1,4 C 0,0 km/h (0 Bft) 95,83 %
14.02.2016 06:14 -1,4 C 97 % 991,7 hPa 0,0 l/m 2,2 km/h (1 Bft) NO 34 0 min 0,000 mm 0,0 UV-I 0 W/m -1,8 C -1,4 C 4,8 km/h (1 Bft) 100,00 %
14.02.2016 06:15 -1,4 C 97 % 991,7 hPa 0,0 l/m 4,5 km/h (1 Bft) NO 46 0 min 0,000 mm 0,0 UV-I 0 W/m -1,8 C -1,4 C 4,8 km/h (1 Bft) 100,00 %
14.02.2016 06:17 -1,3 C 97 % 991,7 hPa 0,0 l/m 3,4 km/h (1 Bft) NO 51 0 min 0,000 mm 0,0 UV-I 0 W/m -1,7 C -1,3 C 4,8 km/h (1 Bft) 100,00 %
14.02.2016 06:18 -1,3 C 97 % 991,7 hPa 0,0 l/m 0,5 km/h (0 Bft) NO 51 0 min 0,000 mm 0,0 UV-I 0 W/m -1,7 C -1,3 C 1,6 km/h (1 Bft) 95,83 %
14.02.2016 06:19 -1,3 C 97 % 991,7 hPa 0,0 l/m 0,0 km/h (0 Bft) NO 51 0 min 0,000 mm 0,0 UV-I 0 W/m -1,7 C -1,3 C 0,0 km/h (0 Bft) 95,65 %
14.02.2016 06:20 -1,3 C 97 % 991,7 hPa 0,0 l/m 0,0 km/h (0 Bft) NO 51 0 min 0,000 mm 0,0 UV-I 0 W/m -1,7 C -1,3 C 0,0 km/h (0 Bft) 100,00 %
14.02.2016 06:21 -1,4 C 97 % 991,7 hPa 0,0 l/m 1,1 km/h (1 Bft) NO 51 0 min 0,000 mm 0,0 UV-I 0 W/m -1,8 C -1,4 C 3,2 km/h (1 Bft) 96,15 %
14.02.2016 06:22 -1,4 C 97 % 991,7 hPa 0,0 l/m 3,9 km/h (1 Bft) NO 51 0 min 0,000 mm 0,0 UV-I 0 W/m -1,8 C -1,4 C 4,8 km/h (1 Bft) 100,00 %
14.02.2016 06:23 -1,4 C 97 % 991,7 hPa 0,0 l/m 4,8 km/h (1 Bft) O-NO 61 0 min 0,000 mm 0,0 UV-I 0 W/m -1,8 C -1,4 C 6,4 km/h (2 Bft) 100,00 %
14.02.2016 06:24 -1,4 C 97 % 991,7 hPa 0,0 l/m 5,0 km/h (1 Bft) O-NO 70 0 min 0,000 mm 0,0 UV-I 0 W/m -1,8 C -1,4 C 6,4 km/h (2 Bft) 100,00 %
14.02.2016 06:25 -1,5 C 97 % 991,7 hPa 0,0 l/m 4,6 km/h (1 Bft) O-NO 70 0 min 0,000 mm 0,0 UV-I 0 W/m -1,9 C -1,5 C 4,8 km/h (1 Bft) 100,00 %
14.02.2016 06:26 -1,5 C 97 % 991,7 hPa 0,0 l/m 4,1 km/h (1 Bft) O-NO 70 0 min 0,000 mm 0,0 UV-I 0 W/m -1,9 C -1,5 C 4,8 km/h (1 Bft) 100,00 %
14.02.2016 06:27 -1,5 C 97 % 991,7 hPa 0,0 l/m 1,5 km/h (1 Bft) O-NO 70 0 min 0,000 mm 0,0 UV-I 0 W/m -1,9 C -1,5 C 3,2 km/h (1 Bft) 96,15 %
14.02.2016 06:28 -1,5 C 97 % 991,7 hPa 0,0 l/m 0,1 km/h (0 Bft) O-NO 70 0 min 0,000 mm 0,0 UV-I 0 W/m -1,9 C -1,5 C 1,6 km/h (1 Bft) 93,33 %
14.02.2016 06:29 -1,5 C 97 % 991,7 hPa 0,0 l/m 0,0 km/h (0 Bft) O-NO 70 0 min 0,000 mm 0,0 UV-I 0 W/m -1,9 C -1,5 C 0,0 km/h (0 Bft) 100,00 %
14.02.2016 06:30 -1,5 C 97 % 991,7 hPa 0,0 l/m 0,6 km/h (0 Bft) O-NO 70 0 min 0,000 mm 0,0 UV-I 0 W/m -1,9 C -1,5 C 3,2 km/h (1 Bft) 100,00 %
14.02.2016 06:31 -1,6 C 97 % 991,6 hPa 0,0 l/m 4,0 km/h (1 Bft) O-NO 70 0 min 0,000 mm 0,0 UV-I 0 W/m -2,0 C -1,6 C 4,8 km/h (1 Bft) 100,00 %
14.02.2016 06:32 -1,6 C 97 % 991,6 hPa 0,0 l/m 5,8 km/h (2 Bft) O-NO 70 0 min 0,000 mm 0,0 UV-I 0 W/m -2,0 C -1,6 C 6,4 km/h (2 Bft) 96,55 %
14.02.2016 06:33 -1,6 C 97 % 991,6 hPa 0,0 l/m 6,0 km/h (2 Bft) O-NO 71 0 min 0,000 mm 0,0 UV-I 0 W/m -2,0 C -1,6 C 6,4 km/h (2 Bft) 100,00 %
14.02.2016 06:34 -1,6 C 97 % 991,6 hPa 0,0 l/m 6,2 km/h (2 Bft) O-NO 76 0 min 0,000 mm 0,0 UV-I 0 W/m -2,0 C -1,6 C 6,4 km/h (2 Bft) 94,12 %
14.02.2016 06:35 -1,6 C 97 % 991,6 hPa 0,0 l/m 4,8 km/h (1 Bft) O-NO 69 0 min 0,000 mm 0,0 UV-I 0 W/m -2,0 C -1,6 C 4,8 km/h (1 Bft) 100,00 %
14.02.2016 06:36 -1,6 C 97 % 991,6 hPa 0,0 l/m 4,9 km/h (1 Bft) O-NO 66 0 min 0,000 mm 0,0 UV-I 0 W/m -2,0 C -1,6 C 6,4 km/h (2 Bft) 100,00 %
14.02.2016 06:37 -1,6 C 97 % 991,6 hPa 0,0 l/m 3,3 km/h (1 Bft) O-NO 74 0 min 0,000 mm 0,0 UV-I 0 W/m -2,0 C -1,6 C 4,8 km/h (1 Bft) 100,00 %
14.02.2016 06:38 -1,6 C 97 % 991,6 hPa 0,0 l/m 2,3 km/h (1 Bft) O-NO 74 0 min 0,000 mm 0,0 UV-I 0 W/m -2,0 C -1,6 C 3,2 km/h (1 Bft) 100,00 %
14.02.2016 06:39 -1,5 C 97 % 991,7 hPa 0,0 l/m 1,2 km/h (1 Bft) O-NO 74 0 min 0,000 mm 0,0 UV-I 0 W/m -1,9 C -1,5 C 3,2 km/h (1 Bft) 91,67 %
14.02.2016 06:40 -1,5 C 97 % 991,7 hPa 0,0 l/m 1,0 km/h (0 Bft) O-NO 74 0 min 0,000 mm 0,0 UV-I 0 W/m -1,9 C -1,5 C 3,2 km/h (1 Bft) 100,00 %
14.02.2016 06:41 -1,6 C 97 % 991,7 hPa 0,0 l/m 2,6 km/h (1 Bft) O-NO 74 0 min 0,000 mm 0,0 UV-I 0 W/m -2,0 C -1,6 C 3,2 km/h (1 Bft) 100,00 %
14.02.2016 06:42 -1,7 C 97 % 991,7 hPa 0,0 l/m 0,3 km/h (0 Bft) O-NO 74 0 min 0,000 mm 0,0 UV-I 0 W/m -2,1 C -1,7 C 1,6 km/h (1 Bft) 96,15 %
14.02.2016 06:43 -1,7 C 97 % 991,7 hPa 0,0 l/m 0,7 km/h (0 Bft) O-NO 74 0 min 0,000 mm 0,0 UV-I 0 W/m -2,1 C -1,7 C 1,6 km/h (1 Bft) 100,00 %
14.02.2016 06:44 -1,7 C 97 % 991,7 hPa 0,0 l/m 1,5 km/h (1 Bft) O-NO 74 0 min 0,000 mm 0,0 UV-I 0 W/m -2,1 C -1,7 C 3,2 km/h (1 Bft) 95,65 %
14.02.2016 06:45 -1,7 C 97 % 991,7 hPa 0,0 l/m 2,3 km/h (1 Bft) O-NO 74 0 min 0,000 mm 0,0 UV-I 0 W/m -2,1 C -1,7 C 3,2 km/h (1 Bft) 100,00 %
14.02.2016 06:46 -1,7 C 97 % 991,7 hPa 0,0 l/m 2,7 km/h (1 Bft) O-NO 73 0 min 0,000 mm 0,0 UV-I 0 W/m -2,1 C -1,7 C 3,2 km/h (1 Bft) 100,00 %
14.02.2016 06:47 -1,7 C 97 % 991,7 hPa 0,0 l/m 0,7 km/h (0 Bft) O-NO 71 0 min 0,000 mm 0,0 UV-I 0 W/m -2,1 C -1,7 C 3,2 km/h (1 Bft) 95,83 %
14.02.2016 06:48 -1,7 C 97 % 991,7 hPa 0,0 l/m 1,7 km/h (1 Bft) NO 45 0 min 0,000 mm 0,0 UV-I 0 W/m -2,1 C -1,7 C 4,8 km/h (1 Bft) 100,00 %
14.02.2016 06:49 -1,8 C 97 % 991,7 hPa 0,0 l/m 0,2 km/h (0 Bft) NO 45 0 min 0,000 mm 0,0 UV-I 0 W/m -2,2 C -1,8 C 1,6 km/h (1 Bft) 100,00 %
14.02.2016 06:50 -1,8 C 97 % 991,7 hPa 0,0 l/m 0,0 km/h (0 Bft) NO 45 0 min 0,000 mm 0,0 UV-I 0 W/m -2,2 C -1,8 C 0,0 km/h (0 Bft) 100,00 %
14.02.2016 06:51 -1,8 C 97 % 991,7 hPa 0,0 l/m 0,0 km/h (0 Bft) NO 45 0 min 0,000 mm 0,0 UV-I 0 W/m -2,2 C -1,8 C 0,0 km/h (0 Bft) 100,00 %
14.02.2016 06:52 -1,8 C 97 % 991,7 hPa 0,0 l/m 0,0 km/h (0 Bft) NO 45 0 min 0,000 mm 0,0 UV-I 0 W/m -2,2 C -1,8 C 0,0 km/h (0 Bft) 100,00 %
14.02.2016 06:53 -1,9 C 97 % 991,7 hPa 0,0 l/m 0,9 km/h (0 Bft) NO 45 0 min 0,000 mm 0,0 UV-I 0 W/m -2,3 C -1,9 C 3,2 km/h (1 Bft) 100,00 %
14.02.2016 06:54 -1,9 C 97 % 991,7 hPa 0,0 l/m 2,9 km/h (1 Bft) NO 45 0 min 0,000 mm 0,0 UV-I 0 W/m -2,3 C -1,9 C 3,2 km/h (1 Bft) 100,00 %
14.02.2016 06:55 -1,9 C 97 % 991,7 hPa 0,0 l/m 3,8 km/h (1 Bft) NO 44 0 min 0,000 mm 0,0 UV-I 0 W/m -2,3 C -1,9 C 4,8 km/h (1 Bft) 96,15 %
14.02.2016 06:56 -1,9 C 97 % 991,7 hPa 0,0 l/m 4,1 km/h (1 Bft) NO 44 0 min 0,000 mm 0,0 UV-I 0 W/m -2,3 C -1,9 C 4,8 km/h (1 Bft) 100,00 %
14.02.2016 06:57 -1,9 C 97 % 991,7 hPa 0,0 l/m 4,4 km/h (1 Bft) N-NO 32 0 min 0,000 mm 0,0 UV-I 0 W/m -2,3 C -1,9 C 4,8 km/h (1 Bft) 100,00 %
14.02.2016 06:58 -1,8 C 97 % 991,7 hPa 0,0 l/m 3,5 km/h (1 Bft) N-NO 32 0 min 0,000 mm 0,0 UV-I 0 W/m -2,2 C -1,8 C 4,8 km/h (1 Bft) 100,00 %
14.02.2016 06:59 -1,8 C 97 % 991,7 hPa 0,0 l/m 2,0 km/h (1 Bft) N-NO 32 0 min 0,000 mm 0,0 UV-I 0 W/m -2,2 C -1,8 C 3,2 km/h (1 Bft) 100,00 %
14.02.2016 07:00 -1,8 C 97 % 991,7 hPa 0,0 l/m 1,6 km/h (1 Bft) N-NO 32 0 min 0,000 mm 0,0 UV-I 0 W/m -2,2 C -1,8 C 3,2 km/h (1 Bft) 95,83 %
14.02.2016 07:01 -1,7 C 97 % 991,7 hPa 0,0 l/m 2,3 km/h (1 Bft) N-NO 32 0 min 0,000 mm 0,0 UV-I 0 W/m -2,1 C -1,7 C 3,2 km/h (1 Bft) 100,00 %
14.02.2016 07:02 -1,7 C 97 % 991,7 hPa 0,0 l/m 3,1 km/h (1 Bft) N-NO 32 0 min 0,000 mm 0,0 UV-I 0 W/m -2,1 C -1,7 C 4,8 km/h (1 Bft) 100,00 %
14.02.2016 07:03 -1,7 C 97 % 991,7 hPa 0,0 l/m 4,4 km/h (1 Bft) N-NO 32 0 min 0,000 mm 0,0 UV-I 0 W/m -2,1 C -1,7 C 4,8 km/h (1 Bft) 100,00 %
14.02.2016 07:04 -1,7 C 97 % 991,7 hPa 0,0 l/m 3,8 km/h (1 Bft) N-NO 32 0 min 0,000 mm 0,0 UV-I 0 W/m -2,1 C -1,7 C 4,8 km/h (1 Bft) 100,00 %
14.02.2016 07:05 -1,7 C 97 % 991,6 hPa 0,0 l/m 3,1 km/h (1 Bft) N-NO 32 0 min 0,000 mm 0,0 UV-I 0 W/m -2,1 C -1,7 C 4,8 km/h (1 Bft) 100,00 %
14.02.2016 07:06 -1,7 C 97 % 991,6 hPa 0,0 l/m 2,2 km/h (1 Bft) N-NO 32 0 min 0,000 mm 0,0 UV-I 0 W/m -2,1 C -1,7 C 4,8 km/h (1 Bft) 100,00 %
14.02.2016 07:07 -1,7 C 97 % 991,6 hPa 0,0 l/m 2,0 km/h (1 Bft) N-NO 32 0 min 0,000 mm 0,0 UV-I 0 W/m -2,1 C -1,7 C 3,2 km/h (1 Bft) 100,00 %
14.02.2016 07:08 -1,7 C 97 % 991,6 hPa 0,0 l/m 3,3 km/h (1 Bft) N-NO 32 0 min 0,000 mm 0,0 UV-I 0 W/m -2,1 C -1,7 C 4,8 km/h (1 Bft) 100,00 %
14.02.2016 07:09 -1,7 C 97 % 991,6 hPa 0,0 l/m 3,6 km/h (1 Bft) N-NO 32 0 min 0,000 mm 0,0 UV-I 0 W/m -2,1 C -1,7 C 4,8 km/h (1 Bft) 100,00 %
14.02.2016 07:10 -1,6 C 97 % 991,5 hPa 0,0 l/m 4,5 km/h (1 Bft) NO 55 0 min 0,000 mm 0,0 UV-I 0 W/m -2,0 C -1,6 C 4,8 km/h (1 Bft) 100,00 %
14.02.2016 07:11 -1,6 C 97 % 991,5 hPa 0,0 l/m 5,8 km/h (2 Bft) O-NO 57 0 min 0,000 mm 0,0 UV-I 0 W/m -2,0 C -1,6 C 6,4 km/h (2 Bft) 100,00 %
14.02.2016 07:12 -1,6 C 97 % 991,4 hPa 0,0 l/m 5,5 km/h (1 Bft) NO 56 0 min 0,000 mm 0,0 UV-I 0 W/m -2,0 C -1,6 C 6,4 km/h (2 Bft) 100,00 %
14.02.2016 07:13 -1,6 C 97 % 991,5 hPa 0,0 l/m 5,1 km/h (1 Bft) O-NO 57 0 min 0,000 mm 0,0 UV-I 0 W/m -2,0 C -1,6 C 6,4 km/h (2 Bft) 100,00 %
14.02.2016 07:14 -1,6 C 97 % 991,5 hPa 0,0 l/m 4,2 km/h (1 Bft) NO 53 0 min 0,000 mm 0,0 UV-I 0 W/m -2,0 C -1,6 C 4,8 km/h (1 Bft) 100,00 %
14.02.2016 07:15 -1,6 C 98 % 991,5 hPa 0,0 l/m 4,1 km/h (1 Bft) NO 55 0 min 0,000 mm 0,0 UV-I 4 W/m -1,9 C -1,6 C 6,4 km/h (2 Bft) 100,00 %
14.02.2016 07:16 -1,6 C 98 % 991,6 hPa 0,0 l/m 4,9 km/h (1 Bft) N-NO 31 0 min 0,000 mm 0,0 UV-I 5 W/m -1,9 C -1,6 C 6,4 km/h (2 Bft) 100,00 %
14.02.2016 07:17 -1,6 C 97 % 991,6 hPa 0,0 l/m 6,5 km/h (2 Bft) NO 36 0 min 0,000 mm 0,0 UV-I 5 W/m -2,0 C -1,7 C 8,0 km/h (2 Bft) 100,00 %
14.02.2016 07:18 -1,6 C 98 % 991,5 hPa 0,0 l/m 6,2 km/h (2 Bft) NO 46 0 min 0,000 mm 0,0 UV-I 5 W/m -1,9 C -1,6 C 8,0 km/h (2 Bft) 91,30 %
14.02.2016 07:19 -1,6 C 97 % 991,6 hPa 0,0 l/m 4,1 km/h (1 Bft) NO 49 0 min 0,000 mm 0,0 UV-I 5 W/m -2,0 C -1,6 C 6,4 km/h (2 Bft) 100,00 %
14.02.2016 07:20 -1,6 C 98 % 991,5 hPa 0,0 l/m 3,8 km/h (1 Bft) NO 54 0 min 0,000 mm 0,0 UV-I 5 W/m -1,9 C -1,6 C 4,8 km/h (1 Bft) 100,00 %
14.02.2016 07:21 -1,6 C 97 % 991,4 hPa 0,0 l/m 4,5 km/h (1 Bft) NO 55 0 min 0,000 mm 0,0 UV-I 5 W/m -2,0 C -1,6 C 6,4 km/h (2 Bft) 100,00 %
14.02.2016 07:22 -1,5 C 98 % 991,5 hPa 0,0 l/m 4,8 km/h (1 Bft) NO 53 0 min 0,000 mm 0,0 UV-I 5 W/m -1,8 C -1,5 C 6,4 km/h (2 Bft) 98,81 %
14.02.2016 07:23 -1,5 C 98 % 991,5 hPa 0,0 l/m 3,6 km/h (1 Bft) NO 53 0 min 0,000 mm 0,0 UV-I 5 W/m -1,8 C -1,5 C 6,4 km/h (2 Bft) 100,00 %
14.02.2016 07:24 -1,5 C 98 % 991,5 hPa 0,0 l/m 3,9 km/h (1 Bft) NO 53 0 min 0,000 mm 0,0 UV-I 6 W/m -1,8 C -1,5 C 4,8 km/h (1 Bft) 100,00 %
14.02.2016 07:25 -1,5 C 98 % 991,5 hPa 0,0 l/m 2,8 km/h (1 Bft) NO 53 0 min 0,000 mm 0,0 UV-I 7 W/m -1,8 C -1,5 C 4,8 km/h (1 Bft) 100,00 %
14.02.2016 07:26 -1,5 C 98 % 991,5 hPa 0,0 l/m 3,1 km/h (1 Bft) N-NO 33 0 min 0,000 mm 0,0 UV-I 9 W/m -1,8 C -1,5 C 6,4 km/h (2 Bft) 100,00 %
14.02.2016 07:27 -1,4 C 98 % 991,5 hPa 0,0 l/m 6,7 km/h (2 Bft) N-NO 22 0 min 0,000 mm 0,0 UV-I 11 W/m -1,7 C -1,7 C 11,3 km/h (2 Bft) 100,00 %
14.02.2016 07:28 -1,4 C 98 % 991,6 hPa 0,0 l/m 6,9 km/h (2 Bft) N-NO 31 0 min 0,000 mm 0,0 UV-I 9 W/m -1,7 C -1,9 C 9,7 km/h (2 Bft) 100,00 %
14.02.2016 07:29 -1,4 C 98 % 991,6 hPa 0,0 l/m 6,5 km/h (2 Bft) NO 44 0 min 0,000 mm 0,0 UV-I 7 W/m -1,7 C -1,5 C 8,0 km/h (2 Bft) 96,15 %
14.02.2016 07:30 -1,4 C 98 % 991,6 hPa 0,0 l/m 5,6 km/h (1 Bft) NO 46 0 min 0,000 mm 0,0 UV-I 7 W/m -1,7 C -1,4 C 6,4 km/h (2 Bft) 100,00 %
14.02.2016 07:31 -1,4 C 98 % 991,6 hPa 0,0 l/m 4,9 km/h (1 Bft) NO 46 0 min 0,000 mm 0,0 UV-I 7 W/m -1,7 C -1,4 C 6,4 km/h (2 Bft) 95,65 %
14.02.2016 07:32 -1,4 C 98 % 991,7 hPa 0,0 l/m 4,0 km/h (1 Bft) NO 39 0 min 0,000 mm 0,0 UV-I 8 W/m -1,7 C -1,4 C 6,4 km/h (2 Bft) 96,30 %
14.02.2016 07:33 -1,4 C 98 % 991,7 hPa 0,0 l/m 2,5 km/h (1 Bft) NO 35 0 min 0,000 mm 0,0 UV-I 9 W/m -1,7 C -1,4 C 4,8 km/h (1 Bft) 100,00 %
14.02.2016 07:34 -1,4 C 98 % 991,6 hPa 0,0 l/m 2,4 km/h (1 Bft) NO 35 0 min 0,000 mm 0,0 UV-I 11 W/m -1,7 C -1,4 C 4,8 km/h (1 Bft) 100,00 %
14.02.2016 07:35 -1,4 C 98 % 991,6 hPa 0,0 l/m 1,7 km/h (1 Bft) NO 35 0 min 0,000 mm 0,0 UV-I 9 W/m -1,7 C -1,4 C 3,2 km/h (1 Bft) 97,56 %
14.02.2016 07:36 -1,4 C 98 % 991,7 hPa 0,0 l/m 0,0 km/h (0 Bft) NO 35 0 min 0,000 mm 0,0 UV-I 9 W/m -1,7 C -1,4 C 0,0 km/h (0 Bft) 95,83 %
14.02.2016 07:37 -1,4 C 98 % 991,7 hPa 0,0 l/m 0,0 km/h (0 Bft) NO 35 0 min 0,000 mm 0,0 UV-I 9 W/m -1,7 C -1,4 C 0,0 km/h (0 Bft) 95,65 %
14.02.2016 07:38 -1,4 C 98 % 991,7 hPa 0,0 l/m 0,5 km/h (0 Bft) NO 35 0 min 0,000 mm 0,0 UV-I 9 W/m -1,7 C -1,4 C 1,6 km/h (1 Bft) 91,67 %
14.02.2016 07:39 -1,4 C 98 % 991,7 hPa 0,0 l/m 0,0 km/h (0 Bft) NO 35 0 min 0,000 mm 0,0 UV-I 9 W/m -1,7 C -1,4 C 0,0 km/h (0 Bft) 100,00 %
14.02.2016 07:40 -1,4 C 98 % 991,8 hPa 0,0 l/m 0,0 km/h (0 Bft) NO 35 0 min 0,000 mm 0,0 UV-I 9 W/m -1,7 C -1,4 C 0,0 km/h (0 Bft) 95,83 %
14.02.2016 07:41 -1,4 C 98 % 991,7 hPa 0,0 l/m 0,0 km/h (0 Bft) NO 35 0 min 0,000 mm 0,0 UV-I 10 W/m -1,7 C -1,4 C 0,0 km/h (0 Bft) 96,15 %
14.02.2016 07:42 -1,4 C 98 % 991,7 hPa 0,0 l/m 0,0 km/h (0 Bft) NO 35 0 min 0,000 mm 0,0 UV-I 11 W/m -1,7 C -1,4 C 0,0 km/h (0 Bft) 100,00 %
14.02.2016 07:43 -1,4 C 98 % 991,7 hPa 0,0 l/m 1,3 km/h (1 Bft) N-NO 30 0 min 0,000 mm 0,0 UV-I 10 W/m -1,7 C -1,4 C 3,2 km/h (1 Bft) 96,15 %
14.02.2016 07:44 -1,4 C 98 % 991,8 hPa 0,0 l/m 0,5 km/h (0 Bft) N-NO 30 0 min 0,000 mm 0,0 UV-I 11 W/m -1,7 C -1,4 C 1,6 km/h (1 Bft) 100,00 %
14.02.2016 07:45 -1,4 C 98 % 991,8 hPa 0,0 l/m 0,8 km/h (0 Bft) N-NW 340 0 min 0,000 mm 0,0 UV-I 11 W/m -1,7 C -1,4 C 3,2 km/h (1 Bft) 91,67 %
14.02.2016 07:46 -1,4 C 98 % 991,8 hPa 0,0 l/m 0,7 km/h (0 Bft) N 350 0 min 0,000 mm 0,0 UV-I 9 W/m -1,7 C -1,4 C 1,6 km/h (1 Bft) 100,00 %
14.02.2016 07:47 -1,4 C 98 % 991,9 hPa 0,0 l/m 0,4 km/h (0 Bft) N-NW 344 0 min 0,000 mm 0,0 UV-I 10 W/m -1,7 C -1,4 C 1,6 km/h (1 Bft) 95,83 %
14.02.2016 07:48 -1,4 C 98 % 991,9 hPa 0,0 l/m 0,3 km/h (0 Bft) N 355 0 min 0,000 mm 0,0 UV-I 11 W/m -1,7 C -1,4 C 1,6 km/h (1 Bft) 100,00 %
14.02.2016 07:49 -1,4 C 98 % 992,0 hPa 0,0 l/m 0,1 km/h (0 Bft) N 355 0 min 0,000 mm 0,0 UV-I 11 W/m -1,7 C -1,4 C 1,6 km/h (1 Bft) 93,33 %
14.02.2016 07:50 -1,4 C 98 % 992,1 hPa 0,0 l/m 0,0 km/h (0 Bft) N 355 0 min 0,000 mm 0,0 UV-I 9 W/m -1,7 C -1,4 C 0,0 km/h (0 Bft) 97,37 %
14.02.2016 07:51 -1,4 C 98 % 992,1 hPa 0,0 l/m 0,1 km/h (0 Bft) N 355 0 min 0,000 mm 0,0 UV-I 11 W/m -1,7 C -1,4 C 1,6 km/h (1 Bft) 100,00 %
14.02.2016 07:52 -1,3 C 98 % 992,1 hPa 0,0 l/m 0,0 km/h (0 Bft) N 355 0 min 0,000 mm 0,0 UV-I 11 W/m -1,6 C -1,3 C 0,0 km/h (0 Bft) 95,65 %
14.02.2016 07:53 -1,3 C 98 % 992,1 hPa 0,0 l/m 1,0 km/h (0 Bft) N 355 0 min 0,000 mm 0,0 UV-I 13 W/m -1,6 C -1,3 C 3,2 km/h (1 Bft) 100,00 %
14.02.2016 07:54 -1,3 C 98 % 992,2 hPa 0,0 l/m 3,4 km/h (1 Bft) N-NO 19 0 min 0,000 mm 0,0 UV-I 13 W/m -1,6 C -1,3 C 4,8 km/h (1 Bft) 96,15 %
14.02.2016 07:55 -1,3 C 98 % 992,2 hPa 0,0 l/m 1,9 km/h (1 Bft) N-NO 19 0 min 0,000 mm 0,0 UV-I 11 W/m -1,6 C -1,3 C 3,2 km/h (1 Bft) 100,00 %
14.02.2016 07:56 -1,3 C 98 % 992,3 hPa 0,0 l/m 2,7 km/h (1 Bft) NO 49 0 min 0,000 mm 0,0 UV-I 11 W/m -1,6 C -1,3 C 4,8 km/h (1 Bft) 95,65 %
14.02.2016 07:57 -1,3 C 98 % 992,3 hPa 0,0 l/m 3,5 km/h (1 Bft) NO 49 0 min 0,000 mm 0,0 UV-I 11 W/m -1,6 C -1,3 C 4,8 km/h (1 Bft) 95,83 %
14.02.2016 07:58 -1,3 C 98 % 992,4 hPa 0,0 l/m 2,2 km/h (1 Bft) NO 49 0 min 0,000 mm 0,0 UV-I 13 W/m -1,6 C -1,3 C 3,2 km/h (1 Bft) 100,00 %
14.02.2016 07:59 -1,3 C 98 % 992,4 hPa 0,0 l/m 1,7 km/h (1 Bft) NO 49 0 min 0,000 mm 0,0 UV-I 17 W/m -1,6 C -1,3 C 3,2 km/h (1 Bft) 95,83 %
14.02.2016 08:00 -1,3 C 98 % 992,4 hPa 0,0 l/m 2,1 km/h (1 Bft) NO 49 0 min 0,000 mm 0,0 UV-I 22 W/m -1,6 C -1,3 C 3,2 km/h (1 Bft) 100,00 %
14.02.2016 08:01 -1,3 C 98 % 992,4 hPa 0,0 l/m 1,9 km/h (1 Bft) NO 49 0 min 0,000 mm 0,0 UV-I 27 W/m -1,6 C -1,3 C 3,2 km/h (1 Bft) 95,83 %
14.02.2016 08:02 -1,3 C 98 % 992,3 hPa 0,0 l/m 1,3 km/h (1 Bft) NO 49 0 min 0,000 mm 0,0 UV-I 34 W/m -1,6 C -1,3 C 1,6 km/h (1 Bft) 100,00 %
14.02.2016 08:03 -1,3 C 98 % 992,3 hPa 0,0 l/m 2,0 km/h (1 Bft) NO 49 0 min 0,000 mm 0,0 UV-I 32 W/m -1,6 C -1,3 C 3,2 km/h (1 Bft) 95,83 %
14.02.2016 08:04 -1,3 C 98 % 992,2 hPa 0,0 l/m 2,3 km/h (1 Bft) NO 49 0 min 0,000 mm 0,0 UV-I 32 W/m -1,6 C -1,3 C 3,2 km/h (1 Bft) 100,00 %
14.02.2016 08:05 -1,3 C 98 % 992,1 hPa 0,0 l/m 2,1 km/h (1 Bft) NO 49 0 min 0,000 mm 0,0 UV-I 35 W/m -1,6 C -1,3 C 3,2 km/h (1 Bft) 95,83 %
14.02.2016 08:06 -1,3 C 98 % 992,1 hPa 0,0 l/m 2,9 km/h (1 Bft) NO 49 0 min 0,000 mm 0,0 UV-I 39 W/m -1,6 C -1,3 C 3,2 km/h (1 Bft) 100,00 %
14.02.2016 08:07 -1,2 C 98 % 992,0 hPa 0,0 l/m 2,8 km/h (1 Bft) NO 46 0 min 0,000 mm 0,0 UV-I 44 W/m -1,5 C -1,2 C 3,2 km/h (1 Bft) 100,00 %
14.02.2016 08:08 -1,2 C 98 % 991,9 hPa 0,0 l/m 4,2 km/h (1 Bft) N-NO 29 0 min 0,000 mm 0,0 UV-I 44 W/m -1,5 C -1,2 C 6,4 km/h (2 Bft) 95,45 %
14.02.2016 08:09 -1,2 C 98 % 991,9 hPa 0,0 l/m 5,2 km/h (1 Bft) N-NO 18 0 min 0,000 mm 0,0 UV-I 44 W/m -1,5 C -1,2 C 6,4 km/h (2 Bft) 100,00 %
14.02.2016 08:10 -1,2 C 98 % 991,9 hPa 0,0 l/m 4,2 km/h (1 Bft) N-NO 27 0 min 0,000 mm 0,0 UV-I 41 W/m -1,5 C -1,2 C 6,4 km/h (2 Bft) 100,00 %
14.02.2016 08:11 -1,1 C 98 % 991,9 hPa 0,0 l/m 5,8 km/h (2 Bft) N-NO 29 0 min 0,000 mm 0,0 UV-I 40 W/m -1,4 C -1,1 C 6,4 km/h (2 Bft) 96,30 %
14.02.2016 08:12 -1,1 C 98 % 991,9 hPa 0,0 l/m 6,0 km/h (2 Bft) N-NO 19 0 min 0,000 mm 0,0 UV-I 38 W/m -1,4 C -1,1 C 6,4 km/h (2 Bft) 100,00 %
14.02.2016 08:13 -1,1 C 98 % 991,9 hPa 0,0 l/m 7,6 km/h (2 Bft) N-NO 31 0 min 0,000 mm 0,0 UV-I 37 W/m -1,4 C -2,4 C 9,7 km/h (2 Bft) 96,15 %
14.02.2016 08:14 -1,1 C 98 % 991,8 hPa 0,0 l/m 7,6 km/h (2 Bft) NO 46 0 min 0,000 mm 0,0 UV-I 40 W/m -1,4 C -2,4 C 8,0 km/h (2 Bft) 100,00 %
14.02.2016 08:15 -1,0 C 98 % 991,8 hPa 0,0 l/m 8,6 km/h (2 Bft) NO 39 0 min 0,000 mm 0,0 UV-I 40 W/m -1,3 C -3,3 C 9,7 km/h (2 Bft) 95,65 %
14.02.2016 08:16 -1,0 C 98 % 991,8 hPa 0,0 l/m 8,9 km/h (2 Bft) NO 38 0 min 0,000 mm 0,0 UV-I 39 W/m -1,3 C -3,6 C 11,3 km/h (2 Bft) 100,00 %
14.02.2016 08:17 -1,0 C 98 % 991,7 hPa 0,0 l/m 9,5 km/h (2 Bft) NO 47 0 min 0,000 mm 0,0 UV-I 42 W/m -1,3 C -4,1 C 11,3 km/h (2 Bft) 95,65 %
14.02.2016 08:18 -1,0 C 98 % 991,8 hPa 0,0 l/m 7,2 km/h (2 Bft) NO 41 0 min 0,000 mm 0,0 UV-I 44 W/m -1,3 C -1,9 C 9,7 km/h (2 Bft) 100,00 %
14.02.2016 08:19 -1,0 C 98 % 991,7 hPa 0,0 l/m 8,9 km/h (2 Bft) NO 35 0 min 0,000 mm 0,0 UV-I 46 W/m -1,3 C -3,6 C 11,3 km/h (2 Bft) 100,00 %
14.02.2016 08:20 -0,9 C 98 % 991,7 hPa 0,0 l/m 9,4 km/h (2 Bft) NO 39 0 min 0,000 mm 0,0 UV-I 47 W/m -1,2 C -3,9 C 11,3 km/h (2 Bft) 100,00 %
14.02.2016 08:21 -0,9 C 98 % 991,8 hPa 0,0 l/m 7,0 km/h (2 Bft) NO 44 0 min 0,000 mm 0,0 UV-I 51 W/m -1,2 C -1,5 C 9,7 km/h (2 Bft) 100,00 %
14.02.2016 08:22 -0,9 C 98 % 991,8 hPa 0,0 l/m 8,7 km/h (2 Bft) NO 40 0 min 0,000 mm 0,0 UV-I 52 W/m -1,2 C -3,3 C 12,9 km/h (3 Bft) 100,00 %
14.02.2016 08:23 -0,9 C 98 % 991,8 hPa 0,0 l/m 8,0 km/h (2 Bft) NO 37 0 min 0,000 mm 0,0 UV-I 52 W/m -1,2 C -2,6 C 11,3 km/h (2 Bft) 100,00 %
14.02.2016 08:24 -0,9 C 98 % 991,7 hPa 0,0 l/m 9,3 km/h (2 Bft) NO 46 0 min 0,000 mm 0,0 UV-I 50 W/m -1,2 C -3,8 C 12,9 km/h (3 Bft) 96,30 %
14.02.2016 08:25 -0,9 C 98 % 991,7 hPa 0,0 l/m 7,2 km/h (2 Bft) NO 50 0 min 0,000 mm 0,0 UV-I 53 W/m -1,2 C -1,8 C 9,7 km/h (2 Bft) 100,00 %
14.02.2016 08:26 -0,9 C 98 % 991,7 hPa 0,0 l/m 9,1 km/h (2 Bft) NO 39 0 min 0,000 mm 0,0 UV-I 56 W/m -1,2 C -3,6 C 11,3 km/h (2 Bft) 100,00 %
14.02.2016 08:27 -0,9 C 98 % 991,6 hPa 0,0 l/m 8,3 km/h (2 Bft) NO 41 0 min 0,000 mm 0,0 UV-I 65 W/m -1,2 C -2,9 C 11,3 km/h (2 Bft) 100,00 %
14.02.2016 08:28 -0,9 C 98 % 991,6 hPa 0,0 l/m 7,7 km/h (2 Bft) O-NO 64 0 min 0,000 mm 0,0 UV-I 64 W/m -1,2 C -2,3 C 9,7 km/h (2 Bft) 100,00 %
14.02.2016 08:29 -1,0 C 98 % 991,6 hPa 0,0 l/m 8,9 km/h (2 Bft) O-NO 66 0 min 0,000 mm 0,0 UV-I 60 W/m -1,3 C -3,6 C 12,9 km/h (3 Bft) 96,15 %
14.02.2016 08:30 -1,0 C 98 % 991,6 hPa 0,0 l/m 11,3 km/h (2 Bft) NO 46 0 min 0,000 mm 0,0 UV-I 50 W/m -1,3 C -5,6 C 16,1 km/h (3 Bft) 100,00 %
14.02.2016 08:31 -1,0 C 98 % 991,6 hPa 0,0 l/m 9,5 km/h (2 Bft) NO 43 0 min 0,000 mm 0,0 UV-I 42 W/m -1,3 C -4,1 C 14,5 km/h (3 Bft) 100,00 %
14.02.2016 08:32 -1,0 C 98 % 991,5 hPa 0,0 l/m 7,6 km/h (2 Bft) O-NO 57 0 min 0,000 mm 0,0 UV-I 47 W/m -1,3 C -2,3 C 12,9 km/h (3 Bft) 100,00 %
14.02.2016 08:33 -1,0 C 98 % 991,6 hPa 0,0 l/m 5,6 km/h (1 Bft) NO 53 0 min 0,000 mm 0,0 UV-I 63 W/m -1,3 C -1,0 C 8,0 km/h (2 Bft) 100,00 %
14.02.2016 08:34 -1,0 C 98 % 991,5 hPa 0,0 l/m 5,9 km/h (2 Bft) NO 38 0 min 0,000 mm 0,0 UV-I 63 W/m -1,3 C -1,0 C 8,0 km/h (2 Bft) 100,00 %
14.02.2016 08:35 -0,9 C 98 % 991,5 hPa 0,0 l/m 5,5 km/h (1 Bft) O-NO 72 0 min 0,000 mm 0,0 UV-I 62 W/m -1,2 C -0,9 C 8,0 km/h (2 Bft) 100,00 %
14.02.2016 08:36 -0,9 C 98 % 991,5 hPa 0,0 l/m 7,0 km/h (2 Bft) O-NO 62 0 min 0,000 mm 0,0 UV-I 58 W/m -1,2 C -1,5 C 9,7 km/h (2 Bft) 100,00 %
14.02.2016 08:37 -0,9 C 98 % 991,4 hPa 0,0 l/m 7,5 km/h (2 Bft) O-NO 64 0 min 0,000 mm 0,0 UV-I 61 W/m -1,2 C -2,1 C 8,0 km/h (2 Bft) 100,00 %
14.02.2016 08:38 -0,9 C 98 % 991,4 hPa 0,0 l/m 6,4 km/h (2 Bft) O-NO 61 0 min 0,000 mm 0,0 UV-I 65 W/m -1,2 C -0,9 C 8,0 km/h (2 Bft) 100,00 %
14.02.2016 08:39 -0,9 C 98 % 991,4 hPa 0,0 l/m 5,2 km/h (1 Bft) O-NO 57 0 min 0,000 mm 0,0 UV-I 80 W/m -1,2 C -0,9 C 6,4 km/h (2 Bft) 100,00 %
14.02.2016 08:40 -0,9 C 98 % 991,4 hPa 0,0 l/m 4,6 km/h (1 Bft) O-NO 57 0 min 0,000 mm 0,0 UV-I 81 W/m -1,2 C -0,9 C 4,8 km/h (1 Bft) 100,00 %
14.02.2016 08:41 -0,9 C 98 % 991,4 hPa 0,0 l/m 5,2 km/h (1 Bft) O 81 0 min 0,000 mm 0,0 UV-I 85 W/m -1,2 C -0,9 C 8,0 km/h (2 Bft) 100,00 %
14.02.2016 08:42 -0,9 C 98 % 991,4 hPa 0,0 l/m 2,6 km/h (1 Bft) O 81 0 min 0,000 mm 0,0 UV-I 95 W/m -1,2 C -0,9 C 3,2 km/h (1 Bft) 100,00 %
14.02.2016 08:43 -0,8 C 98 % 991,4 hPa 0,0 l/m 3,4 km/h (1 Bft) O-NO 62 0 min 0,000 mm 0,0 UV-I 106 W/m -1,1 C -0,8 C 6,4 km/h (2 Bft) 100,00 %
14.02.2016 08:44 -0,8 C 98 % 991,4 hPa 0,0 l/m 5,5 km/h (1 Bft) O-NO 74 0 min 0,000 mm 0,0 UV-I 106 W/m -1,1 C -0,8 C 8,0 km/h (2 Bft) 100,00 %
14.02.2016 08:45 -0,8 C 98 % 991,4 hPa 0,0 l/m 5,8 km/h (2 Bft) O-NO 63 0 min 0,000 mm 0,0 UV-I 99 W/m -1,1 C -0,8 C 8,0 km/h (2 Bft) 100,00 %
14.02.2016 08:46 -0,9 C 98 % 991,4 hPa 0,0 l/m 5,3 km/h (1 Bft) NO 54 0 min 0,000 mm 0,0 UV-I 99 W/m -1,2 C -0,9 C 8,0 km/h (2 Bft) 100,00 %
14.02.2016 08:47 -0,9 C 98 % 991,4 hPa 0,0 l/m 6,5 km/h (2 Bft) O-NO 70 0 min 0,000 mm 0,0 UV-I 107 W/m -1,2 C -1,0 C 8,0 km/h (2 Bft) 100,00 %
14.02.2016 08:48 -0,8 C 98 % 991,4 hPa 0,0 l/m 6,0 km/h (2 Bft) NO 53 0 min 0,000 mm 0,0 UV-I 107 W/m -1,1 C -0,8 C 8,0 km/h (2 Bft) 100,00 %
14.02.2016 08:49 -0,8 C 98 % 991,4 hPa 0,0 l/m 8,3 km/h (2 Bft) NO 52 0 min 0,000 mm 0,0 UV-I 110 W/m -1,1 C -2,8 C 11,3 km/h (2 Bft) 100,00 %
14.02.2016 08:50 -0,8 C 98 % 991,4 hPa 0,0 l/m 9,1 km/h (2 Bft) O-NO 66 0 min 0,000 mm 0,0 UV-I 98 W/m -1,1 C -3,5 C 12,9 km/h (3 Bft) 100,00 %
14.02.2016 08:51 -0,8 C 98 % 991,4 hPa 0,0 l/m 10,3 km/h (2 Bft) O-NO 57 0 min 0,000 mm 0,0 UV-I 75 W/m -1,1 C -4,6 C 14,5 km/h (3 Bft) 100,00 %
14.02.2016 08:52 -0,8 C 98 % 991,4 hPa 0,0 l/m 7,3 km/h (2 Bft) O-NO 59 0 min 0,000 mm 0,0 UV-I 74 W/m -1,1 C -1,8 C 9,7 km/h (2 Bft) 100,00 %
14.02.2016 08:53 -0,8 C 98 % 991,4 hPa 0,0 l/m 10,6 km/h (2 Bft) O-NO 63 0 min 0,000 mm 0,0 UV-I 83 W/m -1,1 C -4,8 C 12,9 km/h (3 Bft) 100,00 %
14.02.2016 08:54 -0,9 C 98 % 991,4 hPa 0,0 l/m 8,5 km/h (2 Bft) O-NO 57 0 min 0,000 mm 0,0 UV-I 97 W/m -1,2 C -3,1 C 12,9 km/h (3 Bft) 100,00 %
14.02.2016 08:55 -0,9 C 98 % 991,3 hPa 0,0 l/m 9,5 km/h (2 Bft) NO 40 0 min 0,000 mm 0,0 UV-I 101 W/m -1,2 C -4,0 C 14,5 km/h (3 Bft) 100,00 %
14.02.2016 08:56 -0,9 C 98 % 991,3 hPa 0,0 l/m 7,1 km/h (2 Bft) O-NO 66 0 min 0,000 mm 0,0 UV-I 100 W/m -1,2 C -1,6 C 8,0 km/h (2 Bft) 100,00 %
14.02.2016 08:57 -0,8 C 98 % 991,3 hPa 0,0 l/m 7,1 km/h (2 Bft) NO 52 0 min 0,000 mm 0,0 UV-I 105 W/m -1,1 C -1,5 C 8,0 km/h (2 Bft) 100,00 %
14.02.2016 08:58 -0,8 C 98 % 991,3 hPa 0,0 l/m 6,5 km/h (2 Bft) NO 42 0 min 0,000 mm 0,0 UV-I 101 W/m -1,1 C -0,9 C 8,0 km/h (2 Bft) 100,00 %
14.02.2016 08:59 -0,8 C 98 % 991,3 hPa 0,0 l/m 5,7 km/h (1 Bft) O-NO 61 0 min 0,000 mm 0,0 UV-I 106 W/m -1,1 C -0,8 C 8,0 km/h (2 Bft) 100,00 %
14.02.2016 09:00 -0,8 C 98 % 991,4 hPa 0,0 l/m 7,0 km/h (2 Bft) O-NO 66 0 min 0,025 mm 0,0 UV-I 100 W/m -1,1 C -1,4 C 9,7 km/h (2 Bft) 100,00 %
14.02.2016 09:01 -0,8 C 98 % 991,3 hPa 0,0 l/m 6,2 km/h (2 Bft) O 98 0 min 0,000 mm 0,0 UV-I 102 W/m -1,1 C -0,8 C 11,3 km/h (2 Bft) 100,00 %
14.02.2016 09:02 -0,8 C 98 % 991,3 hPa 0,0 l/m 9,1 km/h (2 Bft) O 94 0 min 0,000 mm 0,0 UV-I 96 W/m -1,1 C -3,5 C 12,9 km/h (3 Bft) 100,00 %
14.02.2016 09:03 -0,8 C 98 % 991,4 hPa 0,0 l/m 6,7 km/h (2 Bft) O-SO 103 0 min 0,000 mm 0,0 UV-I 86 W/m -1,1 C -1,1 C 11,3 km/h (2 Bft) 96,15 %
14.02.2016 09:04 -0,8 C 98 % 991,4 hPa 0,0 l/m 5,4 km/h (1 Bft) O-NO 73 0 min 0,000 mm 0,0 UV-I 87 W/m -1,1 C -0,8 C 6,4 km/h (2 Bft) 100,00 %
14.02.2016 09:05 -0,7 C 98 % 991,5 hPa 0,0 l/m 3,2 km/h (1 Bft) SO 134 0 min 0,000 mm 0,0 UV-I 89 W/m -1,0 C -0,7 C 4,8 km/h (1 Bft) 100,00 %
14.02.2016 09:06 -0,7 C 98 % 991,5 hPa 0,0 l/m 3,6 km/h (1 Bft) O-SO 103 0 min 0,000 mm 0,0 UV-I 82 W/m -1,0 C -0,7 C 6,4 km/h (2 Bft) 100,00 %
14.02.2016 09:07 -0,7 C 98 % 991,6 hPa 0,0 l/m 3,8 km/h (1 Bft) O-SO 103 0 min 0,000 mm 0,0 UV-I 73 W/m -1,0 C -0,7 C 4,8 km/h (1 Bft) 100,00 %
14.02.2016 09:08 -0,7 C 98 % 991,6 hPa 0,0 l/m 4,4 km/h (1 Bft) O 87 0 min 0,000 mm 0,0 UV-I 77 W/m -1,0 C -0,7 C 6,4 km/h (2 Bft) 100,00 %
14.02.2016 09:09 -0,7 C 98 % 991,6 hPa 0,0 l/m 3,6 km/h (1 Bft) O-SO 102 0 min 0,000 mm 0,0 UV-I 78 W/m -1,0 C -0,7 C 4,8 km/h (1 Bft) 100,00 %
14.02.2016 09:10 -0,7 C 98 % 991,6 hPa 0,0 l/m 4,5 km/h (1 Bft) SO 132 0 min 0,000 mm 0,0 UV-I 76 W/m -1,0 C -0,7 C 6,4 km/h (2 Bft) 100,00 %
14.02.2016 09:11 -0,7 C 98 % 991,6 hPa 0,0 l/m 5,4 km/h (1 Bft) O-SO 111 0 min 0,000 mm 0,0 UV-I 75 W/m -1,0 C -0,7 C 8,0 km/h (2 Bft) 100,00 %
14.02.2016 09:12 -0,7 C 98 % 991,6 hPa 0,0 l/m 10,7 km/h (2 Bft) O-SO 121 0 min 0,000 mm 0,0 UV-I 62 W/m -1,0 C -4,8 C 14,5 km/h (3 Bft) 97,56 %
14.02.2016 09:13 -0,7 C 98 % 991,6 hPa 0,0 l/m 11,2 km/h (2 Bft) O 97 0 min 0,000 mm 0,0 UV-I 66 W/m -1,0 C -5,2 C 12,9 km/h (3 Bft) 100,00 %
14.02.2016 09:14 -0,7 C 98 % 991,6 hPa 0,0 l/m 7,6 km/h (2 Bft) O-SO 123 0 min 0,000 mm 0,0 UV-I 66 W/m -1,0 C -2,0 C 12,9 km/h (3 Bft) 96,15 %
14.02.2016 09:15 -0,7 C 98 % 991,5 hPa 0,0 l/m 4,9 km/h (1 Bft) SO 124 0 min 0,000 mm 0,0 UV-I 77 W/m -1,0 C -0,7 C 6,4 km/h (2 Bft) 100,00 %
14.02.2016 09:16 -0,7 C 98 % 991,5 hPa 0,0 l/m 3,0 km/h (1 Bft) O-SO 110 0 min 0,000 mm 0,0 UV-I 84 W/m -1,0 C -0,7 C 4,8 km/h (1 Bft) 95,65 %
14.02.2016 09:17 -0,7 C 98 % 991,5 hPa 0,0 l/m 3,0 km/h (1 Bft) SO 138 0 min 0,000 mm 0,0 UV-I 100 W/m -1,0 C -0,7 C 4,8 km/h (1 Bft) 100,00 %
14.02.2016 09:18 -0,7 C 98 % 991,5 hPa 0,0 l/m 6,0 km/h (2 Bft) O-SO 122 0 min 0,000 mm 0,0 UV-I 99 W/m -1,0 C -0,7 C 8,0 km/h (2 Bft) 100,00 %
14.02.2016 09:19 -0,7 C 98 % 991,5 hPa 0,0 l/m 1,1 km/h (1 Bft) O-SO 122 0 min 0,000 mm 0,0 UV-I 114 W/m -1,0 C -0,7 C 3,2 km/h (1 Bft) 95,83 %
14.02.2016 09:20 -0,7 C 98 % 991,5 hPa 0,0 l/m 0,0 km/h (0 Bft) O-SO 122 0 min 0,000 mm 0,0 UV-I 118 W/m -1,0 C -0,7 C 0,0 km/h (0 Bft) 100,00 %
14.02.2016 09:21 -0,7 C 98 % 991,6 hPa 0,0 l/m 0,7 km/h (0 Bft) O-SO 122 0 min 0,000 mm 0,0 UV-I 106 W/m -1,0 C -0,7 C 1,6 km/h (1 Bft) 100,00 %
14.02.2016 09:22 -0,7 C 98 % 991,6 hPa 0,0 l/m 0,0 km/h (0 Bft) O-SO 122 0 min 0,000 mm 0,0 UV-I 105 W/m -1,0 C -0,7 C 0,0 km/h (0 Bft) 100,00 %
14.02.2016 09:23 -0,7 C 98 % 991,6 hPa 0,0 l/m 0,0 km/h (0 Bft) O-SO 122 0 min 0,000 mm 0,0 UV-I 110 W/m -1,0 C -0,7 C 0,0 km/h (0 Bft) 100,00 %
14.02.2016 09:24 -0,7 C 98 % 991,6 hPa 0,0 l/m 0,0 km/h (0 Bft) O-SO 122 0 min 0,000 mm 0,0 UV-I 99 W/m -1,0 C -0,7 C 0,0 km/h (0 Bft) 100,00 %
14.02.2016 09:25 -0,7 C 98 % 991,6 hPa 0,0 l/m 0,1 km/h (0 Bft) O-SO 122 0 min 0,000 mm 0,0 UV-I 79 W/m -1,0 C -0,7 C 1,6 km/h (1 Bft) 100,00 %
14.02.2016 09:26 -0,7 C 98 % 991,5 hPa 0,0 l/m 0,9 km/h (0 Bft) O-SO 122 0 min 0,000 mm 0,0 UV-I 92 W/m -1,0 C -0,7 C 1,6 km/h (1 Bft) 100,00 %
14.02.2016 09:27 -0,7 C 98 % 991,4 hPa 0,0 l/m 0,5 km/h (0 Bft) O-SO 122 0 min 0,000 mm 0,0 UV-I 94 W/m -1,0 C -0,7 C 1,6 km/h (1 Bft) 100,00 %
14.02.2016 09:28 -0,7 C 98 % 991,4 hPa 0,0 l/m 0,7 km/h (0 Bft) O-SO 122 0 min 0,000 mm 0,0 UV-I 108 W/m -1,0 C -0,7 C 1,6 km/h (1 Bft) 100,00 %
14.02.2016 09:29 -0,7 C 98 % 991,5 hPa 0,0 l/m 0,0 km/h (0 Bft) O-SO 122 0 min 0,000 mm 0,0 UV-I 150 W/m -1,0 C -0,7 C 0,0 km/h (0 Bft) 100,00 %
14.02.2016 09:30 -0,6 C 98 % 991,6 hPa 0,0 l/m 0,0 km/h (0 Bft) O-SO 122 0 min 0,000 mm 0,0 UV-I 167 W/m -0,9 C -0,6 C 0,0 km/h (0 Bft) 100,00 %
14.02.2016 09:31 -0,5 C 98 % 991,7 hPa 0,0 l/m 0,1 km/h (0 Bft) O-SO 122 0 min 0,000 mm 0,0 UV-I 160 W/m -0,8 C -0,5 C 1,6 km/h (1 Bft) 100,00 %
14.02.2016 09:32 -0,4 C 98 % 991,7 hPa 0,0 l/m 0,4 km/h (0 Bft) O-SO 122 0 min 0,000 mm 0,0 UV-I 153 W/m -0,7 C -0,4 C 1,6 km/h (1 Bft) 100,00 %
14.02.2016 09:33 -0,4 C 98 % 991,9 hPa 0,0 l/m 1,3 km/h (1 Bft) SO 124 0 min 0,000 mm 0,0 UV-I 152 W/m -0,7 C -0,4 C 1,6 km/h (1 Bft) 100,00 %
14.02.2016 09:34 -0,4 C 98 % 991,9 hPa 0,0 l/m 0,4 km/h (0 Bft) O-SO 123 0 min 0,000 mm 0,0 UV-I 141 W/m -0,7 C -0,4 C 1,6 km/h (1 Bft) 100,00 %
14.02.2016 09:35 -0,4 C 98 % 991,9 hPa 0,0 l/m 0,9 km/h (0 Bft) SO 124 0 min 0,000 mm 0,0 UV-I 128 W/m -0,7 C -0,4 C 3,2 km/h (1 Bft) 95,65 %
14.02.2016 09:36 -0,4 C 98 % 992,0 hPa 0,0 l/m 3,4 km/h (1 Bft) S-SW 198 0 min 0,000 mm 0,0 UV-I 113 W/m -0,7 C -0,4 C 4,8 km/h (1 Bft) 95,83 %
14.02.2016 09:37 -0,4 C 98 % 992,0 hPa 0,0 l/m 2,1 km/h (1 Bft) S-SW 197 0 min 0,000 mm 0,0 UV-I 130 W/m -0,7 C -0,4 C 4,8 km/h (1 Bft) 100,00 %
14.02.2016 09:38 -0,4 C 98 % 992,1 hPa 0,0 l/m 4,7 km/h (1 Bft) S 175 0 min 0,000 mm 0,0 UV-I 150 W/m -0,7 C -0,4 C 8,0 km/h (2 Bft) 95,83 %
14.02.2016 09:39 -0,4 C 98 % 992,2 hPa 0,0 l/m 1,9 km/h (1 Bft) S 171 0 min 0,000 mm 0,2 UV-I 161 W/m -0,7 C -0,4 C 4,8 km/h (1 Bft) 100,00 %
14.02.2016 09:40 -0,4 C 98 % 992,2 hPa 0,0 l/m 2,8 km/h (1 Bft) S-SO 161 0 min 0,000 mm 0,5 UV-I 165 W/m -0,7 C -0,4 C 4,8 km/h (1 Bft) 96,30 %
14.02.2016 09:41 -0,4 C 98 % 992,3 hPa 0,0 l/m 2,7 km/h (1 Bft) S-SO 148 0 min 0,000 mm 0,5 UV-I 183 W/m -0,7 C -0,4 C 4,8 km/h (1 Bft) 100,00 %
14.02.2016 09:42 -0,3 C 98 % 992,3 hPa 0,0 l/m 4,9 km/h (1 Bft) S 174 0 min 0,000 mm 0,1 UV-I 169 W/m -0,6 C -0,3 C 9,7 km/h (2 Bft) 96,30 %
14.02.2016 09:43 -0,4 C 98 % 992,3 hPa 0,0 l/m 4,0 km/h (1 Bft) SO 144 0 min 0,000 mm 0,0 UV-I 158 W/m -0,7 C -0,4 C 9,7 km/h (2 Bft) 95,65 %
14.02.2016 09:44 -0,4 C 98 % 992,4 hPa 0,0 l/m 4,8 km/h (1 Bft) S-SO 164 0 min 0,000 mm 0,0 UV-I 166 W/m -0,7 C -0,4 C 8,0 km/h (2 Bft) 100,00 %
14.02.2016 09:45 -0,4 C 98 % 992,3 hPa 0,0 l/m 4,4 km/h (1 Bft) S 183 0 min 0,000 mm 0,0 UV-I 152 W/m -0,7 C -0,4 C 8,0 km/h (2 Bft) 91,30 %
14.02.2016 09:46 -0,4 C 98 % 992,3 hPa 0,0 l/m 4,6 km/h (1 Bft) S-SO 152 0 min 0,000 mm 0,2 UV-I 135 W/m -0,7 C -0,4 C 8,0 km/h (2 Bft) 100,00 %
14.02.2016 09:47 -0,4 C 98 % 992,3 hPa 0,0 l/m 2,0 km/h (1 Bft) S-SO 163 0 min 0,000 mm 0,5 UV-I 146 W/m -0,7 C -0,4 C 6,4 km/h (2 Bft) 96,55 %
14.02.2016 09:48 -0,3 C 98 % 992,2 hPa 0,0 l/m 2,1 km/h (1 Bft) S-SO 163 0 min 0,000 mm 0,5 UV-I 128 W/m -0,6 C -0,3 C 3,2 km/h (1 Bft) 100,00 %
14.02.2016 09:49 -0,3 C 98 % 992,3 hPa 0,0 l/m 2,5 km/h (1 Bft) SO 146 0 min 0,000 mm 0,5 UV-I 126 W/m -0,6 C -0,3 C 4,8 km/h (1 Bft) 96,30 %
14.02.2016 09:50 -0,3 C 98 % 992,2 hPa 0,0 l/m 3,3 km/h (1 Bft) S-SO 161 0 min 0,000 mm 0,5 UV-I 130 W/m -0,6 C -0,3 C 6,4 km/h (2 Bft) 96,15 %
14.02.2016 09:51 -0,3 C 98 % 992,2 hPa 0,0 l/m 2,3 km/h (1 Bft) SO 142 0 min 0,000 mm 0,5 UV-I 144 W/m -0,6 C -0,3 C 4,8 km/h (1 Bft) 100,00 %
14.02.2016 09:52 -0,3 C 98 % 992,2 hPa 0,0 l/m 3,2 km/h (1 Bft) SO 139 0 min 0,000 mm 0,5 UV-I 181 W/m -0,6 C -0,3 C 4,8 km/h (1 Bft) 95,83 %
14.02.2016 09:53 -0,4 C 98 % 992,2 hPa 0,0 l/m 2,7 km/h (1 Bft) S-SO 161 0 min 0,000 mm 0,6 UV-I 182 W/m -0,7 C -0,4 C 4,8 km/h (1 Bft) 100,00 %
14.02.2016 09:54 -0,4 C 98 % 992,2 hPa 0,0 l/m 2,0 km/h (1 Bft) S-SO 160 1 min 0,000 mm 0,6 UV-I 257 W/m -0,7 C -0,4 C 6,4 km/h (2 Bft) 95,65 %
14.02.2016 09:55 -0,4 C 98 % 992,2 hPa 0,0 l/m 2,2 km/h (1 Bft) S-SO 159 1 min 0,000 mm 0,6 UV-I 232 W/m -0,7 C -0,4 C 3,2 km/h (1 Bft) 100,00 %
14.02.2016 09:56 -0,4 C 98 % 992,2 hPa 0,0 l/m 2,5 km/h (1 Bft) S-SO 155 1 min 0,000 mm 0,6 UV-I 211 W/m -0,7 C -0,4 C 4,8 km/h (1 Bft) 95,65 %
14.02.2016 09:57 -0,3 C 98 % 992,1 hPa 0,0 l/m 0,0 km/h (0 Bft) S-SO 155 1 min 0,000 mm 0,6 UV-I 236 W/m -0,6 C -0,3 C 0,0 km/h (0 Bft) 100,00 %
14.02.2016 09:58 -0,3 C 98 % 992,2 hPa 0,0 l/m 0,3 km/h (0 Bft) S-SO 155 1 min 0,000 mm 0,6 UV-I 216 W/m -0,6 C -0,3 C 1,6 km/h (1 Bft) 97,56 %
14.02.2016 09:59 -0,3 C 98 % 992,2 hPa 0,0 l/m 1,9 km/h (1 Bft) S-SO 155 0 min 0,000 mm 0,6 UV-I 190 W/m -0,6 C -0,3 C 3,2 km/h (1 Bft) 95,83 %
14.02.2016 10:00 -0,2 C 98 % 992,2 hPa 0,0 l/m 2,0 km/h (1 Bft) S-SO 153 0 min 0,000 mm 0,6 UV-I 198 W/m -0,5 C -0,2 C 3,2 km/h (1 Bft) 95,65 %
14.02.2016 10:01 -0,2 C 98 % 992,2 hPa 0,0 l/m 1,7 km/h (1 Bft) S-SO 153 1 min 0,051 mm 0,6 UV-I 230 W/m -0,5 C -0,2 C 4,8 km/h (1 Bft) 95,83 %
14.02.2016 10:02 -0,3 C 98 % 992,2 hPa 0,0 l/m 2,3 km/h (1 Bft) S-SO 153 1 min 0,000 mm 0,7 UV-I 241 W/m -0,6 C -0,3 C 3,2 km/h (1 Bft) 100,00 %
14.02.2016 10:03 -0,3 C 98 % 992,1 hPa 0,0 l/m 1,4 km/h (1 Bft) S-SO 153 1 min 0,000 mm 0,7 UV-I 229 W/m -0,6 C -0,3 C 3,2 km/h (1 Bft) 96,15 %
14.02.2016 10:04 -0,2 C 98 % 992,1 hPa 0,0 l/m 2,5 km/h (1 Bft) S-SO 153 0 min 0,000 mm 0,7 UV-I 202 W/m -0,5 C -0,2 C 4,8 km/h (1 Bft) 100,00 %
14.02.2016 10:05 -0,2 C 98 % 992,1 hPa 0,0 l/m 2,4 km/h (1 Bft) S-SO 150 1 min 0,000 mm 0,7 UV-I 229 W/m -0,5 C -0,2 C 4,8 km/h (1 Bft) 95,83 %
14.02.2016 10:06 -0,1 C 98 % 992,0 hPa 0,0 l/m 2,8 km/h (1 Bft) S-SO 147 1 min 0,000 mm 0,8 UV-I 295 W/m -0,4 C -0,1 C 3,2 km/h (1 Bft) 100,00 %
14.02.2016 10:07 -0,1 C 98 % 992,0 hPa 0,0 l/m 1,1 km/h (1 Bft) S-SO 147 1 min 0,000 mm 0,8 UV-I 295 W/m -0,4 C -0,1 C 3,2 km/h (1 Bft) 96,30 %
14.02.2016 10:08 0,0 C 98 % 992,0 hPa 0,0 l/m 1,4 km/h (1 Bft) S-SO 148 1 min 0,000 mm 0,8 UV-I 272 W/m -0,3 C 0,0 C 3,2 km/h (1 Bft) 100,00 %
14.02.2016 10:09 0,0 C 98 % 992,0 hPa 0,0 l/m 0,6 km/h (0 Bft) S-SO 148 1 min 0,000 mm 0,7 UV-I 271 W/m -0,3 C 0,0 C 1,6 km/h (1 Bft) 100,00 %
14.02.2016 10:10 0,0 C 98 % 992,0 hPa 0,0 l/m 0,1 km/h (0 Bft) S-SO 148 1 min 0,000 mm 0,8 UV-I 290 W/m -0,3 C 0,0 C 1,6 km/h (1 Bft) 100,00 %
14.02.2016 10:11 0,0 C 98 % 992,0 hPa 0,0 l/m 0,2 km/h (0 Bft) S-SO 148 1 min 0,000 mm 0,7 UV-I 253 W/m -0,3 C 0,0 C 1,6 km/h (1 Bft) 100,00 %
14.02.2016 10:12 -0,1 C 98 % 992,0 hPa 0,0 l/m 0,1 km/h (0 Bft) S-SO 148 0 min 0,000 mm 0,6 UV-I 203 W/m -0,4 C -0,1 C 1,6 km/h (1 Bft) 100,00 %
14.02.2016 10:13 0,0 C 98 % 991,9 hPa 0,0 l/m 0,0 km/h (0 Bft) S-SO 148 0 min 0,000 mm 0,6 UV-I 182 W/m -0,3 C 0,0 C 0,0 km/h (0 Bft) 100,00 %
14.02.2016 10:14 0,0 C 98 % 991,8 hPa 0,0 l/m 0,0 km/h (0 Bft) S-SO 148 0 min 0,000 mm 0,6 UV-I 188 W/m -0,3 C 0,0 C 0,0 km/h (0 Bft) 95,83 %
14.02.2016 10:15 0,1 C 98 % 991,9 hPa 0,0 l/m 0,6 km/h (0 Bft) S-SO 148 1 min 0,000 mm 0,7 UV-I 235 W/m -0,2 C 0,1 C 1,6 km/h (1 Bft) 95,65 %
14.02.2016 10:16 0,1 C 98 % 991,8 hPa 0,0 l/m 1,3 km/h (1 Bft) S-SO 148 1 min 0,000 mm 0,7 UV-I 226 W/m -0,2 C 0,1 C 3,2 km/h (1 Bft) 100,00 %
14.02.2016 10:17 0,1 C 98 % 991,8 hPa 0,0 l/m 0,9 km/h (0 Bft) S-SO 148 0 min 0,000 mm 0,7 UV-I 213 W/m -0,2 C 0,1 C 1,6 km/h (1 Bft) 100,00 %
14.02.2016 10:18 0,1 C 98 % 991,7 hPa 0,0 l/m 1,5 km/h (1 Bft) S-SO 148 0 min 0,000 mm 0,7 UV-I 192 W/m -0,2 C 0,1 C 3,2 km/h (1 Bft) 100,00 %
14.02.2016 10:19 0,1 C 98 % 991,7 hPa 0,0 l/m 1,7 km/h (1 Bft) S-SO 148 0 min 0,000 mm 0,7 UV-I 191 W/m -0,2 C 0,1 C 3,2 km/h (1 Bft) 95,65 %
14.02.2016 10:20 0,1 C 98 % 991,7 hPa 0,0 l/m 3,3 km/h (1 Bft) O-SO 119 0 min 0,000 mm 0,7 UV-I 221 W/m -0,2 C 0,1 C 4,8 km/h (1 Bft) 100,00 %
14.02.2016 10:21 0,1 C 98 % 991,7 hPa 0,0 l/m 2,6 km/h (1 Bft) O-SO 119 0 min 0,000 mm 0,7 UV-I 180 W/m -0,2 C 0,1 C 3,2 km/h (1 Bft) 100,00 %
14.02.2016 10:22 0,1 C 98 % 991,7 hPa 0,0 l/m 2,0 km/h (1 Bft) O-SO 119 0 min 0,000 mm 0,8 UV-I 201 W/m -0,2 C 0,1 C 3,2 km/h (1 Bft) 100,00 %
14.02.2016 10:23 0,2 C 98 % 991,7 hPa 0,0 l/m 1,3 km/h (1 Bft) SO 132 1 min 0,000 mm 0,8 UV-I 260 W/m -0,1 C 0,2 C 3,2 km/h (1 Bft) 95,65 %
14.02.2016 10:24 0,3 C 98 % 991,7 hPa 0,0 l/m 0,8 km/h (0 Bft) SO 138 1 min 0,000 mm 0,8 UV-I 268 W/m 0,0 C 0,3 C 1,6 km/h (1 Bft) 100,00 %
14.02.2016 10:25 0,3 C 98 % 991,7 hPa 0,0 l/m 5,5 km/h (1 Bft) S-SO 152 1 min 0,000 mm 0,8 UV-I 242 W/m 0,0 C 0,3 C 6,4 km/h (2 Bft) 100,00 %
14.02.2016 10:26 0,3 C 98 % 991,6 hPa 0,0 l/m 5,0 km/h (1 Bft) S-SO 152 0 min 0,000 mm 0,8 UV-I 201 W/m 0,0 C 0,3 C 8,0 km/h (2 Bft) 100,00 %
14.02.2016 10:27 0,3 C 98 % 991,6 hPa 0,0 l/m 3,2 km/h (1 Bft) S-SO 163 0 min 0,000 mm 0,8 UV-I 193 W/m 0,0 C 0,3 C 6,4 km/h (2 Bft) 100,00 %
14.02.2016 10:28 0,2 C 98 % 991,6 hPa 0,0 l/m 4,8 km/h (1 Bft) SO 140 0 min 0,000 mm 0,8 UV-I 222 W/m -0,1 C 0,2 C 8,0 km/h (2 Bft) 100,00 %
14.02.2016 10:29 0,2 C 98 % 991,5 hPa 0,0 l/m 5,1 km/h (1 Bft) S-SO 159 0 min 0,000 mm 0,8 UV-I 185 W/m -0,1 C 0,2 C 8,0 km/h (2 Bft) 100,00 %
14.02.2016 10:30 0,2 C 98 % 991,5 hPa 0,0 l/m 4,0 km/h (1 Bft) S-SO 153 0 min 0,000 mm 0,7 UV-I 169 W/m -0,1 C 0,2 C 8,0 km/h (2 Bft) 100,00 %
14.02.2016 10:31 0,1 C 98 % 991,5 hPa 0,0 l/m 3,1 km/h (1 Bft) S-SO 161 0 min 0,000 mm 0,8 UV-I 203 W/m -0,2 C 0,1 C 4,8 km/h (1 Bft) 100,00 %
14.02.2016 10:32 0,0 C 98 % 991,4 hPa 0,0 l/m 4,3 km/h (1 Bft) S-SO 152 0 min 0,000 mm 0,8 UV-I 213 W/m -0,3 C 0,0 C 6,4 km/h (2 Bft) 95,65 %
14.02.2016 10:33 -0,1 C 98 % 991,4 hPa 0,0 l/m 4,6 km/h (1 Bft) S-SO 159 0 min 0,000 mm 0,8 UV-I 180 W/m -0,4 C -0,1 C 8,0 km/h (2 Bft) 100,00 %
14.02.2016 10:34 -0,1 C 98 % 991,4 hPa 0,0 l/m 4,8 km/h (1 Bft) SO 142 0 min 0,000 mm 0,7 UV-I 171 W/m -0,4 C -0,1 C 8,0 km/h (2 Bft) 100,00 %
14.02.2016 10:35 -0,1 C 98 % 991,4 hPa 0,0 l/m 4,7 km/h (1 Bft) SO 139 0 min 0,000 mm 0,8 UV-I 200 W/m -0,4 C -0,1 C 8,0 km/h (2 Bft) 100,00 %
14.02.2016 10:36 -0,1 C 98 % 991,4 hPa 0,0 l/m 5,3 km/h (1 Bft) SO 139 0 min 0,000 mm 0,7 UV-I 198 W/m -0,4 C -0,1 C 8,0 km/h (2 Bft) 100,00 %
14.02.2016 10:37 -0,1 C 98 % 991,4 hPa 0,0 l/m 3,8 km/h (1 Bft) SO 143 0 min 0,000 mm 0,8 UV-I 192 W/m -0,4 C -0,1 C 8,0 km/h (2 Bft) 100,00 %
14.02.2016 10:40 -0,1 C 98 % 991,4 hPa 0,0 l/m 4,8 km/h (1 Bft) SO 135 0 min 0,000 mm 0,8 UV-I 192 W/m -0,4 C -0,1 C 8,0 km/h (2 Bft) 97,37 %
14.02.2016 10:45 0,1 C 98 % 991,4 hPa 0,0 l/m 3,2 km/h (1 Bft) S 180 0 min 0,000 mm 0,8 UV-I 239 W/m -0,2 C 0,1 C 6,4 km/h (2 Bft) 99,12 %
14.02.2016 10:52 0,3 C 98 % 991,5 hPa 0,0 l/m 2,1 km/h (1 Bft) S 177 7 min 0,000 mm 0,8 UV-I 252 W/m 0,0 C 0,3 C 4,8 km/h (1 Bft) 100,00 %
14.02.2016 10:53 0,3 C 98 % 991,5 hPa 0,0 l/m 1,6 km/h (1 Bft) S 177 1 min 0,000 mm 0,9 UV-I 278 W/m 0,0 C 0,3 C 3,2 km/h (1 Bft) 100,00 %
14.02.2016 10:54 0,3 C 98 % 991,4 hPa 0,0 l/m 0,9 km/h (0 Bft) S 177 0 min 0,000 mm 0,9 UV-I 219 W/m 0,0 C 0,3 C 3,2 km/h (1 Bft) 100,00 %
14.02.2016 10:55 0,3 C 98 % 991,5 hPa 0,0 l/m 2,3 km/h (1 Bft) S 177 0 min 0,000 mm 0,9 UV-I 193 W/m 0,0 C 0,3 C 3,2 km/h (1 Bft) 100,00 %
14.02.2016 10:56 0,3 C 98 % 991,5 hPa 0,0 l/m 1,6 km/h (1 Bft) S 177 0 min 0,000 mm 0,8 UV-I 219 W/m 0,0 C 0,3 C 3,2 km/h (1 Bft) 100,00 %
14.02.2016 10:57 0,3 C 98 % 991,5 hPa 0,0 l/m 1,9 km/h (1 Bft) S 177 1 min 0,000 mm 1,0 UV-I 254 W/m 0,0 C 0,3 C 3,2 km/h (1 Bft) 100,00 %
14.02.2016 10:58 0,4 C 98 % 991,5 hPa 0,0 l/m 2,5 km/h (1 Bft) S 177 1 min 0,000 mm 1,0 UV-I 308 W/m 0,1 C 0,4 C 4,8 km/h (1 Bft) 100,00 %
14.02.2016 10:59 0,4 C 98 % 991,5 hPa 0,0 l/m 2,3 km/h (1 Bft) S 177 1 min 0,000 mm 1,0 UV-I 329 W/m 0,1 C 0,4 C 3,2 km/h (1 Bft) 100,00 %
14.02.2016 11:00 0,4 C 98 % 991,5 hPa 0,0 l/m 2,9 km/h (1 Bft) S 191 1 min 0,076 mm 1,0 UV-I 324 W/m 0,1 C 0,4 C 3,2 km/h (1 Bft) 100,00 %
14.02.2016 11:01 0,6 C 98 % 991,5 hPa 0,0 l/m 2,7 km/h (1 Bft) S-SW 208 1 min 0,000 mm 1,0 UV-I 315 W/m 0,3 C 0,6 C 4,8 km/h (1 Bft) 100,00 %
14.02.2016 11:02 0,7 C 98 % 991,5 hPa 0,0 l/m 3,7 km/h (1 Bft) S 190 1 min 0,000 mm 1,0 UV-I 340 W/m 0,4 C 0,7 C 6,4 km/h (2 Bft) 100,00 %
14.02.2016 11:03 0,7 C 98 % 991,5 hPa 0,0 l/m 3,5 km/h (1 Bft) S 178 1 min 0,000 mm 1,1 UV-I 353 W/m 0,4 C 0,7 C 4,8 km/h (1 Bft) 95,65 %
14.02.2016 11:04 0,7 C 98 % 991,5 hPa 0,0 l/m 3,6 km/h (1 Bft) S 184 1 min 0,000 mm 1,1 UV-I 365 W/m 0,4 C 0,7 C 4,8 km/h (1 Bft) 100,00 %
14.02.2016 11:05 0,7 C 98 % 991,5 hPa 0,0 l/m 3,1 km/h (1 Bft) S-SW 192 1 min 0,000 mm 1,1 UV-I 328 W/m 0,4 C 0,7 C 4,8 km/h (1 Bft) 100,00 %
14.02.2016 11:06 0,7 C 98 % 991,5 hPa 0,0 l/m 2,4 km/h (1 Bft) S-SW 193 1 min 0,000 mm 1,2 UV-I 399 W/m 0,4 C 0,7 C 4,8 km/h (1 Bft) 100,00 %
14.02.2016 11:07 0,8 C 98 % 991,5 hPa 0,0 l/m 3,1 km/h (1 Bft) S-SW 195 1 min 0,000 mm 1,1 UV-I 399 W/m 0,5 C 0,8 C 4,8 km/h (1 Bft) 100,00 %
14.02.2016 11:08 0,9 C 98 % 991,5 hPa 0,0 l/m 2,2 km/h (1 Bft) S-SW 195 1 min 0,000 mm 1,1 UV-I 327 W/m 0,6 C 0,9 C 3,2 km/h (1 Bft) 100,00 %
14.02.2016 11:09 0,9 C 98 % 991,5 hPa 0,0 l/m 1,0 km/h (0 Bft) S-SW 195 1 min 0,000 mm 1,2 UV-I 364 W/m 0,6 C 0,9 C 3,2 km/h (1 Bft) 100,00 %
14.02.2016 11:10 1,0 C 98 % 991,4 hPa 0,0 l/m 2,2 km/h (1 Bft) S-SW 198 1 min 0,000 mm 1,1 UV-I 366 W/m 0,7 C 1,0 C 3,2 km/h (1 Bft) 100,00 %
14.02.2016 11:11 1,0 C 98 % 991,5 hPa 0,0 l/m 1,8 km/h (1 Bft) S-SW 198 1 min 0,000 mm 1,1 UV-I 318 W/m 0,7 C 1,0 C 3,2 km/h (1 Bft) 100,00 %
14.02.2016 11:12 1,0 C 98 % 991,5 hPa 0,0 l/m 1,9 km/h (1 Bft) S-SW 198 1 min 0,000 mm 1,1 UV-I 321 W/m 0,7 C 1,0 C 3,2 km/h (1 Bft) 93,33 %
14.02.2016 11:13 1,1 C 98 % 991,5 hPa 0,0 l/m 2,4 km/h (1 Bft) S-SW 197 1 min 0,000 mm 1,2 UV-I 328 W/m 0,8 C 1,1 C 3,2 km/h (1 Bft) 100,00 %
14.02.2016 11:14 1,1 C 98 % 991,5 hPa 0,0 l/m 1,4 km/h (1 Bft) S-SW 196 1 min 0,000 mm 1,2 UV-I 349 W/m 0,8 C 1,1 C 1,6 km/h (1 Bft) 100,00 %
14.02.2016 11:15 1,0 C 98 % 991,5 hPa 0,0 l/m 0,2 km/h (0 Bft) S-SW 196 1 min 0,000 mm 1,2 UV-I 331 W/m 0,7 C 1,0 C 1,6 km/h (1 Bft) 100,00 %
14.02.2016 11:16 1,1 C 98 % 991,4 hPa 0,0 l/m 0,3 km/h (0 Bft) S-SW 195 1 min 0,000 mm 1,2 UV-I 330 W/m 0,8 C 1,1 C 1,6 km/h (1 Bft) 100,00 %
14.02.2016 11:17 1,1 C 98 % 991,4 hPa 0,0 l/m 1,9 km/h (1 Bft) S-SW 207 1 min 0,000 mm 1,2 UV-I 340 W/m 0,8 C 1,1 C 4,8 km/h (1 Bft) 95,83 %
14.02.2016 11:18 1,2 C 98 % 991,4 hPa 0,0 l/m 1,8 km/h (1 Bft) S-SW 208 1 min 0,000 mm 1,2 UV-I 361 W/m 0,9 C 1,2 C 3,2 km/h (1 Bft) 96,15 %
14.02.2016 11:19 1,2 C 98 % 991,4 hPa 0,0 l/m 0,4 km/h (0 Bft) S-SW 208 1 min 0,000 mm 1,2 UV-I 386 W/m 0,9 C 1,2 C 1,6 km/h (1 Bft) 100,00 %
14.02.2016 11:20 1,3 C 98 % 991,4 hPa 0,0 l/m 1,2 km/h (1 Bft) S-SW 208 1 min 0,000 mm 1,3 UV-I 410 W/m 1,0 C 1,3 C 3,2 km/h (1 Bft) 100,00 %
14.02.2016 11:21 1,4 C 98 % 991,4 hPa 0,0 l/m 1,7 km/h (1 Bft) S-SW 208 1 min 0,000 mm 1,3 UV-I 429 W/m 1,1 C 1,4 C 3,2 km/h (1 Bft) 100,00 %
14.02.2016 11:22 1,5 C 98 % 991,3 hPa 0,0 l/m 1,0 km/h (0 Bft) S 184 1 min 0,000 mm 1,3 UV-I 448 W/m 1,2 C 1,5 C 1,6 km/h (1 Bft) 100,00 %
14.02.2016 11:23 1,4 C 98 % 991,2 hPa 0,0 l/m 2,0 km/h (1 Bft) S 184 1 min 0,000 mm 1,3 UV-I 460 W/m 1,1 C 1,4 C 3,2 km/h (1 Bft) 96,30 %
14.02.2016 11:24 1,4 C 98 % 991,2 hPa 0,0 l/m 2,2 km/h (1 Bft) S 182 1 min 0,000 mm 1,4 UV-I 476 W/m 1,1 C 1,4 C 4,8 km/h (1 Bft) 100,00 %
14.02.2016 11:25 1,5 C 98 % 991,2 hPa 0,0 l/m 1,3 km/h (1 Bft) S 182 1 min 0,000 mm 1,3 UV-I 424 W/m 1,2 C 1,5 C 3,2 km/h (1 Bft) 100,00 %
14.02.2016 11:26 1,5 C 98 % 991,2 hPa 0,0 l/m 1,2 km/h (1 Bft) S 182 1 min 0,000 mm 1,3 UV-I 398 W/m 1,2 C 1,5 C 3,2 km/h (1 Bft) 100,00 %
14.02.2016 11:27 1,6 C 98 % 991,2 hPa 0,0 l/m 0,4 km/h (0 Bft) S 182 1 min 0,000 mm 1,3 UV-I 380 W/m 1,3 C 1,6 C 1,6 km/h (1 Bft) 91,67 %
14.02.2016 11:28 1,6 C 98 % 991,2 hPa 0,0 l/m 1,9 km/h (1 Bft) S 191 1 min 0,000 mm 1,3 UV-I 353 W/m 1,3 C 1,6 C 3,2 km/h (1 Bft) 100,00 %
14.02.2016 11:29 1,7 C 98 % 991,2 hPa 0,0 l/m 3,7 km/h (1 Bft) S 191 1 min 0,000 mm 1,2 UV-I 329 W/m 1,4 C 1,7 C 4,8 km/h (1 Bft) 95,83 %
14.02.2016 11:30 1,8 C 98 % 991,2 hPa 0,0 l/m 3,6 km/h (1 Bft) S 185 1 min 0,000 mm 1,3 UV-I 340 W/m 1,5 C 1,8 C 4,8 km/h (1 Bft) 100,00 %
14.02.2016 11:31 1,8 C 98 % 991,2 hPa 0,0 l/m 3,5 km/h (1 Bft) SW 220 1 min 0,000 mm 1,3 UV-I 357 W/m 1,5 C 1,8 C 4,8 km/h (1 Bft) 95,83 %
14.02.2016 11:32 1,9 C 97 % 991,2 hPa 0,0 l/m 3,6 km/h (1 Bft) SW 235 1 min 0,000 mm 1,3 UV-I 379 W/m 1,5 C 1,9 C 6,4 km/h (2 Bft) 93,10 %
14.02.2016 11:33 1,9 C 97 % 991,2 hPa 0,0 l/m 5,0 km/h (1 Bft) W-SW 240 1 min 0,000 mm 1,3 UV-I 375 W/m 1,5 C 1,9 C 8,0 km/h (2 Bft) 100,00 %
14.02.2016 11:34 2,1 C 97 % 991,2 hPa 0,0 l/m 5,0 km/h (1 Bft) W-SW 242 1 min 0,000 mm 1,3 UV-I 414 W/m 1,7 C 2,1 C 6,4 km/h (2 Bft) 100,00 %
14.02.2016 11:35 2,1 C 97 % 991,2 hPa 0,0 l/m 4,5 km/h (1 Bft) W-SW 248 1 min 0,000 mm 1,4 UV-I 426 W/m 1,7 C 2,1 C 6,4 km/h (2 Bft) 95,65 %
14.02.2016 11:36 2,2 C 97 % 991,1 hPa 0,0 l/m 2,5 km/h (1 Bft) SW 220 1 min 0,000 mm 1,4 UV-I 470 W/m 1,8 C 2,2 C 3,2 km/h (1 Bft) 92,59 %
14.02.2016 11:37 2,2 C 97 % 991,1 hPa 0,0 l/m 1,1 km/h (1 Bft) SW 220 1 min 0,000 mm 1,5 UV-I 482 W/m 1,8 C 2,2 C 3,2 km/h (1 Bft) 100,00 %
14.02.2016 11:38 2,2 C 96 % 991,1 hPa 0,0 l/m 1,0 km/h (0 Bft) SW 220 1 min 0,000 mm 1,5 UV-I 479 W/m 1,6 C 2,2 C 1,6 km/h (1 Bft) 96,30 %
14.02.2016 11:39 2,2 C 96 % 991,0 hPa 0,0 l/m 0,9 km/h (0 Bft) SW 220 1 min 0,000 mm 1,4 UV-I 456 W/m 1,6 C 2,2 C 3,2 km/h (1 Bft) 100,00 %
14.02.2016 11:40 2,2 C 96 % 990,9 hPa 0,0 l/m 1,0 km/h (0 Bft) S-SW 209 1 min 0,000 mm 1,4 UV-I 431 W/m 1,6 C 2,2 C 3,2 km/h (1 Bft) 95,83 %
14.02.2016 11:41 2,3 C 96 % 990,9 hPa 0,0 l/m 3,4 km/h (1 Bft) S 184 1 min 0,000 mm 1,4 UV-I 409 W/m 1,7 C 2,3 C 4,8 km/h (1 Bft) 86,96 %
14.02.2016 11:42 2,3 C 96 % 990,9 hPa 0,0 l/m 1,9 km/h (1 Bft) S 184 1 min 0,000 mm 1,4 UV-I 409 W/m 1,7 C 2,3 C 3,2 km/h (1 Bft) 100,00 %
14.02.2016 11:43 2,3 C 95 % 990,9 hPa 0,0 l/m 2,6 km/h (1 Bft) SW 214 1 min 0,000 mm 1,4 UV-I 404 W/m 1,6 C 2,3 C 4,8 km/h (1 Bft) 95,65 %
14.02.2016 11:44 2,5 C 95 % 990,8 hPa 0,0 l/m 4,7 km/h (1 Bft) SW 219 1 min 0,000 mm 1,4 UV-I 412 W/m 1,8 C 2,5 C 6,4 km/h (2 Bft) 100,00 %
14.02.2016 11:45 2,7 C 95 % 990,9 hPa 0,0 l/m 4,4 km/h (1 Bft) W-SW 242 1 min 0,000 mm 1,4 UV-I 416 W/m 2,0 C 2,7 C 6,4 km/h (2 Bft) 96,15 %
14.02.2016 11:46 2,9 C 95 % 990,9 hPa 0,0 l/m 5,6 km/h (1 Bft) W-SW 239 1 min 0,000 mm 1,5 UV-I 466 W/m 2,2 C 2,9 C 6,4 km/h (2 Bft) 100,00 %
14.02.2016 11:47 3,0 C 95 % 990,9 hPa 0,0 l/m 5,7 km/h (1 Bft) SW 226 1 min 0,000 mm 1,4 UV-I 466 W/m 2,3 C 3,0 C 8,0 km/h (2 Bft) 96,15 %
14.02.2016 11:48 3,1 C 95 % 990,9 hPa 0,0 l/m 3,4 km/h (1 Bft) S-SW 197 1 min 0,000 mm 1,6 UV-I 500 W/m 2,4 C 3,1 C 4,8 km/h (1 Bft) 95,83 %
14.02.2016 11:49 3,1 C 93 % 990,9 hPa 0,0 l/m 3,3 km/h (1 Bft) SW 236 1 min 0,000 mm 1,5 UV-I 554 W/m 2,1 C 3,1 C 4,8 km/h (1 Bft) 86,96 %
14.02.2016 11:50 3,1 C 93 % 990,9 hPa 0,0 l/m 4,1 km/h (1 Bft) SW 234 1 min 0,000 mm 1,6 UV-I 566 W/m 2,1 C 3,1 C 6,4 km/h (2 Bft) 100,00 %
14.02.2016 11:51 3,1 C 93 % 990,9 hPa 0,0 l/m 2,4 km/h (1 Bft) S 178 1 min 0,000 mm 1,5 UV-I 505 W/m 2,1 C 3,1 C 4,8 km/h (1 Bft) 100,00 %
14.02.2016 11:52 3,1 C 93 % 990,9 hPa 0,0 l/m 5,0 km/h (1 Bft) SW 225 1 min 0,000 mm 1,5 UV-I 521 W/m 2,1 C 3,1 C 8,0 km/h (2 Bft) 95,83 %
14.02.2016 11:53 3,0 C 92 % 990,9 hPa 0,0 l/m 3,3 km/h (1 Bft) SW 216 1 min 0,000 mm 1,5 UV-I 516 W/m 1,8 C 3,0 C 4,8 km/h (1 Bft) 100,00 %
14.02.2016 11:54 3,0 C 92 % 990,9 hPa 0,0 l/m 3,2 km/h (1 Bft) S-SW 205 1 min 0,000 mm 1,6 UV-I 535 W/m 1,8 C 3,0 C 6,4 km/h (2 Bft) 100,00 %
14.02.2016 11:55 2,9 C 92 % 990,9 hPa 0,0 l/m 2,3 km/h (1 Bft) S-SW 205 1 min 0,000 mm 1,6 UV-I 529 W/m 1,7 C 2,9 C 4,8 km/h (1 Bft) 100,00 %
14.02.2016 11:56 3,0 C 92 % 990,9 hPa 0,0 l/m 3,3 km/h (1 Bft) S 188 1 min 0,000 mm 1,6 UV-I 521 W/m 1,8 C 3,0 C 6,4 km/h (2 Bft) 95,65 %
14.02.2016 11:57 3,0 C 92 % 990,9 hPa 0,0 l/m 4,6 km/h (1 Bft) SW 233 1 min 0,000 mm 1,6 UV-I 519 W/m 1,8 C 3,0 C 6,4 km/h (2 Bft) 100,00 %
14.02.2016 11:58 3,2 C 93 % 990,9 hPa 0,0 l/m 3,6 km/h (1 Bft) SW 227 1 min 0,000 mm 1,4 UV-I 519 W/m 2,2 C 3,2 C 4,8 km/h (1 Bft) 100,00 %
14.02.2016 11:59 3,2 C 92 % 990,9 hPa 0,0 l/m 3,4 km/h (1 Bft) SW 236 1 min 0,000 mm 1,6 UV-I 521 W/m 2,0 C 3,2 C 4,8 km/h (1 Bft) 100,00 %
14.02.2016 12:00 3,2 C 92 % 990,8 hPa 0,0 l/m 4,7 km/h (1 Bft) SW 231 1 min 0,153 mm 1,4 UV-I 524 W/m 2,0 C 3,2 C 6,4 km/h (2 Bft) 100,00 %
14.02.2016 12:01 3,3 C 92 % 990,8 hPa 0,0 l/m 2,5 km/h (1 Bft) S 179 1 min 0,000 mm 1,5 UV-I 419 W/m 2,1 C 3,3 C 4,8 km/h (1 Bft) 100,00 %
14.02.2016 12:02 3,3 C 91 % 990,8 hPa 0,0 l/m 1,5 km/h (1 Bft) S 174 1 min 0,000 mm 1,6 UV-I 376 W/m 2,0 C 3,3 C 4,8 km/h (1 Bft) 100,00 %
14.02.2016 12:03 3,4 C 91 % 990,7 hPa 0,0 l/m 5,0 km/h (1 Bft) W-SW 256 1 min 0,000 mm 1,6 UV-I 552 W/m 2,1 C 3,4 C 9,7 km/h (2 Bft) 100,00 %
14.02.2016 12:04 3,5 C 91 % 990,7 hPa 0,0 l/m 5,4 km/h (1 Bft) W-SW 245 1 min 0,000 mm 1,6 UV-I 539 W/m 2,2 C 3,5 C 8,0 km/h (2 Bft) 100,00 %
14.02.2016 12:05 3,6 C 91 % 990,7 hPa 0,0 l/m 3,2 km/h (1 Bft) SW 214 1 min 0,000 mm 1,4 UV-I 501 W/m 2,3 C 3,6 C 4,8 km/h (1 Bft) 100,00 %
14.02.2016 12:06 3,7 C 90 % 990,7 hPa 0,0 l/m 3,4 km/h (1 Bft) SW 231 1 min 0,000 mm 1,3 UV-I 368 W/m 2,2 C 3,7 C 4,8 km/h (1 Bft) 100,00 %
14.02.2016 12:07 3,7 C 89 % 990,6 hPa 0,0 l/m 2,5 km/h (1 Bft) SW 231 1 min 0,000 mm 1,3 UV-I 294 W/m 2,1 C 3,7 C 4,8 km/h (1 Bft) 100,00 %
14.02.2016 12:08 3,6 C 89 % 990,6 hPa 0,0 l/m 2,7 km/h (1 Bft) SW 231 1 min 0,000 mm 1,4 UV-I 360 W/m 2,0 C 3,6 C 3,2 km/h (1 Bft) 100,00 %
14.02.2016 12:09 3,7 C 89 % 990,6 hPa 0,0 l/m 3,0 km/h (1 Bft) SW 231 1 min 0,000 mm 1,3 UV-I 413 W/m 2,1 C 3,7 C 4,8 km/h (1 Bft) 100,00 %
14.02.2016 12:10 3,7 C 89 % 990,6 hPa 0,0 l/m 2,2 km/h (1 Bft) SW 231 1 min 0,000 mm 1,3 UV-I 367 W/m 2,1 C 3,7 C 3,2 km/h (1 Bft) 100,00 %
14.02.2016 12:11 3,7 C 88 % 990,5 hPa 0,0 l/m 1,3 km/h (1 Bft) SW 231 1 min 0,000 mm 1,2 UV-I 281 W/m 1,9 C 3,7 C 3,2 km/h (1 Bft) 100,00 %
14.02.2016 12:12 3,8 C 89 % 990,5 hPa 0,0 l/m 0,5 km/h (0 Bft) SW 216 0 min 0,000 mm 1,2 UV-I 253 W/m 2,2 C 3,8 C 3,2 km/h (1 Bft) 100,00 %
14.02.2016 12:13 3,9 C 88 % 990,5 hPa 0,0 l/m 0,1 km/h (0 Bft) SW 216 0 min 0,000 mm 1,2 UV-I 243 W/m 2,1 C 3,9 C 1,6 km/h (1 Bft) 95,65 %
14.02.2016 12:14 3,9 C 88 % 990,5 hPa 0,0 l/m 0,7 km/h (0 Bft) SW 216 0 min 0,000 mm 1,2 UV-I 262 W/m 2,1 C 3,9 C 1,6 km/h (1 Bft) 100,00 %
14.02.2016 12:15 3,9 C 88 % 990,5 hPa 0,0 l/m 0,1 km/h (0 Bft) SW 216 0 min 0,000 mm 1,2 UV-I 262 W/m 2,1 C 3,9 C 1,6 km/h (1 Bft) 100,00 %
14.02.2016 12:16 4,1 C 89 % 990,5 hPa 0,0 l/m 0,2 km/h (0 Bft) SW 216 1 min 0,000 mm 1,2 UV-I 282 W/m 2,5 C 4,1 C 1,6 km/h (1 Bft) 100,00 %
14.02.2016 12:17 4,1 C 88 % 990,5 hPa 0,0 l/m 0,4 km/h (0 Bft) SW 216 0 min 0,000 mm 1,2 UV-I 260 W/m 2,3 C 4,1 C 1,6 km/h (1 Bft) 100,00 %
14.02.2016 12:18 4,1 C 86 % 990,5 hPa 0,0 l/m 0,6 km/h (0 Bft) SW 216 1 min 0,000 mm 1,3 UV-I 326 W/m 2,0 C 4,1 C 1,6 km/h (1 Bft) 100,00 %
14.02.2016 12:19 4,1 C 87 % 990,5 hPa 0,0 l/m 0,1 km/h (0 Bft) SW 216 1 min 0,000 mm 1,2 UV-I 298 W/m 2,1 C 4,1 C 1,6 km/h (1 Bft) 100,00 %
14.02.2016 12:20 4,1 C 88 % 990,5 hPa 0,0 l/m 0,9 km/h (0 Bft) SW 216 1 min 0,000 mm 1,3 UV-I 278 W/m 2,3 C 4,1 C 1,6 km/h (1 Bft) 100,00 %
14.02.2016 12:21 4,2 C 87 % 990,5 hPa 0,0 l/m 3,5 km/h (1 Bft) SW 216 0 min 0,000 mm 1,2 UV-I 220 W/m 2,2 C 4,2 C 4,8 km/h (1 Bft) 90,91 %
14.02.2016 12:22 4,2 C 87 % 990,5 hPa 0,0 l/m 2,1 km/h (1 Bft) SW 216 0 min 0,000 mm 1,2 UV-I 206 W/m 2,2 C 4,2 C 3,2 km/h (1 Bft) 100,00 %
14.02.2016 12:23 4,3 C 87 % 990,5 hPa 0,0 l/m 2,2 km/h (1 Bft) SW 216 0 min 0,000 mm 1,2 UV-I 213 W/m 2,3 C 4,3 C 3,2 km/h (1 Bft) 100,00 %
14.02.2016 12:24 4,3 C 87 % 990,4 hPa 0,0 l/m 1,5 km/h (1 Bft) SW 216 0 min 0,000 mm 1,3 UV-I 223 W/m 2,3 C 4,3 C 3,2 km/h (1 Bft) 100,00 %
14.02.2016 12:25 4,3 C 86 % 990,3 hPa 0,0 l/m 1,8 km/h (1 Bft) SW 216 1 min 0,000 mm 1,3 UV-I 318 W/m 2,2 C 4,3 C 3,2 km/h (1 Bft) 100,00 %
14.02.2016 12:26 4,3 C 86 % 990,3 hPa 0,0 l/m 0,8 km/h (0 Bft) SW 216 1 min 0,000 mm 1,3 UV-I 328 W/m 2,2 C 4,3 C 3,2 km/h (1 Bft) 100,00 %
14.02.2016 12:27 4,4 C 86 % 990,3 hPa 0,0 l/m 0,4 km/h (0 Bft) SW 216 1 min 0,000 mm 1,3 UV-I 307 W/m 2,3 C 4,4 C 1,6 km/h (1 Bft) 100,00 %
14.02.2016 12:28 4,5 C 87 % 990,3 hPa 0,0 l/m 0,7 km/h (0 Bft) SW 216 1 min 0,000 mm 1,2 UV-I 276 W/m 2,5 C 4,5 C 1,6 km/h (1 Bft) 100,00 %
14.02.2016 12:29 4,7 C 87 % 990,3 hPa 0,0 l/m 0,7 km/h (0 Bft) SW 216 1 min 0,000 mm 1,3 UV-I 304 W/m 2,7 C 4,7 C 1,6 km/h (1 Bft) 100,00 %
14.02.2016 12:30 4,9 C 87 % 990,3 hPa 0,0 l/m 0,1 km/h (0 Bft) SW 216 1 min 0,000 mm 1,2 UV-I 294 W/m 2,9 C 4,9 C 1,6 km/h (1 Bft) 100,00 %
14.02.2016 12:31 5,0 C 86 % 990,3 hPa 0,0 l/m 1,5 km/h (1 Bft) SW 216 1 min 0,000 mm 1,2 UV-I 292 W/m 2,9 C 5,0 C 3,2 km/h (1 Bft) 100,00 %
14.02.2016 12:32 5,0 C 85 % 990,2 hPa 0,0 l/m 0,5 km/h (0 Bft) SW 216 1 min 0,000 mm 1,2 UV-I 289 W/m 2,7 C 5,0 C 1,6 km/h (1 Bft) 100,00 %
14.02.2016 12:33 5,0 C 84 % 990,2 hPa 0,0 l/m 0,2 km/h (0 Bft) SW 216 1 min 0,000 mm 1,2 UV-I 293 W/m 2,5 C 5,0 C 1,6 km/h (1 Bft) 100,00 %
14.02.2016 12:34 5,0 C 84 % 990,2 hPa 0,0 l/m 1,4 km/h (1 Bft) SW 216 1 min 0,000 mm 1,3 UV-I 310 W/m 2,5 C 5,0 C 3,2 km/h (1 Bft) 100,00 %
14.02.2016 12:35 5,1 C 85 % 990,1 hPa 0,0 l/m 1,9 km/h (1 Bft) SW 216 1 min 0,000 mm 1,3 UV-I 312 W/m 2,8 C 5,1 C 3,2 km/h (1 Bft) 100,00 %
14.02.2016 12:36 5,1 C 85 % 990,1 hPa 0,0 l/m 0,3 km/h (0 Bft) SW 216 1 min 0,000 mm 1,3 UV-I 309 W/m 2,8 C 5,1 C 1,6 km/h (1 Bft) 100,00 %
14.02.2016 12:37 5,1 C 85 % 990,1 hPa 0,0 l/m 0,2 km/h (0 Bft) SW 216 1 min 0,000 mm 1,2 UV-I 297 W/m 2,8 C 5,1 C 1,6 km/h (1 Bft) 100,00 %
14.02.2016 12:38 5,2 C 85 % 990,1 hPa 0,0 l/m 1,0 km/h (0 Bft) SW 216 1 min 0,000 mm 1,2 UV-I 286 W/m 2,9 C 5,2 C 1,6 km/h (1 Bft) 100,00 %
14.02.2016 12:39 5,2 C 85 % 990,1 hPa 0,0 l/m 0,7 km/h (0 Bft) SW 216 1 min 0,000 mm 1,2 UV-I 293 W/m 2,9 C 5,2 C 1,6 km/h (1 Bft) 100,00 %
14.02.2016 12:40 5,2 C 84 % 990,0 hPa 0,0 l/m 0,1 km/h (0 Bft) SW 216 1 min 0,000 mm 1,3 UV-I 319 W/m 2,7 C 5,2 C 1,6 km/h (1 Bft) 95,65 %
14.02.2016 12:41 5,2 C 83 % 990,1 hPa 0,0 l/m 0,0 km/h (0 Bft) SW 216 1 min 0,000 mm 1,3 UV-I 339 W/m 2,6 C 5,2 C 0,0 km/h (0 Bft) 100,00 %
14.02.2016 12:42 5,2 C 83 % 990,1 hPa 0,0 l/m 0,0 km/h (0 Bft) SW 216 1 min 0,000 mm 1,3 UV-I 327 W/m 2,6 C 5,2 C 0,0 km/h (0 Bft) 88,46 %
14.02.2016 12:43 5,3 C 85 % 990,0 hPa 0,0 l/m 0,7 km/h (0 Bft) SW 216 1 min 0,000 mm 1,3 UV-I 313 W/m 3,0 C 5,3 C 1,6 km/h (1 Bft) 100,00 %
14.02.2016 12:44 5,3 C 83 % 990,0 hPa 0,0 l/m 1,9 km/h (1 Bft) W-NW 286 1 min 0,000 mm 1,2 UV-I 301 W/m 2,7 C 5,3 C 3,2 km/h (1 Bft) 100,00 %
14.02.2016 12:45 5,3 C 83 % 989,9 hPa 0,0 l/m 1,1 km/h (1 Bft) W-NW 287 1 min 0,000 mm 1,2 UV-I 289 W/m 2,7 C 5,3 C 3,2 km/h (1 Bft) 100,00 %
14.02.2016 12:46 5,2 C 83 % 989,9 hPa 0,0 l/m 0,2 km/h (0 Bft) W-NW 287 1 min 0,000 mm 1,2 UV-I 275 W/m 2,6 C 5,2 C 1,6 km/h (1 Bft) 91,30 %
14.02.2016 12:47 5,3 C 83 % 989,9 hPa 0,0 l/m 0,4 km/h (0 Bft) W-NW 287 0 min 0,000 mm 1,2 UV-I 257 W/m 2,7 C 5,3 C 1,6 km/h (1 Bft) 100,00 %
14.02.2016 12:48 5,3 C 83 % 989,9 hPa 0,0 l/m 0,1 km/h (0 Bft) W-NW 287 0 min 0,000 mm 1,1 UV-I 233 W/m 2,7 C 5,3 C 1,6 km/h (1 Bft) 100,00 %
14.02.2016 12:49 5,4 C 84 % 989,9 hPa 0,0 l/m 0,2 km/h (0 Bft) W-NW 287 0 min 0,000 mm 1,1 UV-I 228 W/m 2,9 C 5,4 C 1,6 km/h (1 Bft) 100,00 %
14.02.2016 12:50 5,4 C 83 % 989,9 hPa 0,0 l/m 0,0 km/h (0 Bft) W-NW 287 0 min 0,000 mm 1,1 UV-I 220 W/m 2,7 C 5,4 C 0,0 km/h (0 Bft) 100,00 %
14.02.2016 12:51 5,4 C 82 % 989,9 hPa 0,0 l/m 0,2 km/h (0 Bft) W-NW 287 0 min 0,000 mm 1,1 UV-I 206 W/m 2,6 C 5,4 C 1,6 km/h (1 Bft) 100,00 %
14.02.2016 12:52 5,4 C 83 % 989,9 hPa 0,0 l/m 1,0 km/h (0 Bft) W-NW 287 0 min 0,000 mm 1,0 UV-I 205 W/m 2,7 C 5,4 C 3,2 km/h (1 Bft) 96,55 %
14.02.2016 12:53 5,4 C 83 % 989,9 hPa 0,0 l/m 3,0 km/h (1 Bft) N 360 0 min 0,000 mm 1,0 UV-I 203 W/m 2,7 C 5,4 C 4,8 km/h (1 Bft) 100,00 %
14.02.2016 12:54 5,4 C 82 % 989,9 hPa 0,0 l/m 2,4 km/h (1 Bft) N 360 0 min 0,000 mm 1,0 UV-I 204 W/m 2,6 C 5,4 C 3,2 km/h (1 Bft) 100,00 %
14.02.2016 12:55 5,3 C 82 % 989,9 hPa 0,0 l/m 0,5 km/h (0 Bft) N 360 0 min 0,000 mm 1,0 UV-I 209 W/m 2,5 C 5,3 C 3,2 km/h (1 Bft) 96,15 %
14.02.2016 12:56 5,3 C 82 % 989,9 hPa 0,0 l/m 2,0 km/h (1 Bft) N 360 0 min 0,000 mm 1,0 UV-I 213 W/m 2,5 C 5,3 C 3,2 km/h (1 Bft) 100,00 %
14.02.2016 12:57 5,4 C 80 % 989,9 hPa 0,0 l/m 1,7 km/h (1 Bft) N 360 0 min 0,000 mm 1,0 UV-I 212 W/m 2,2 C 5,4 C 3,2 km/h (1 Bft) 92,86 %
14.02.2016 12:58 5,4 C 79 % 989,8 hPa 0,0 l/m 1,8 km/h (1 Bft) N 360 0 min 0,000 mm 1,0 UV-I 210 W/m 2,1 C 5,4 C 3,2 km/h (1 Bft) 100,00 %
14.02.2016 12:59 5,4 C 79 % 989,9 hPa 0,0 l/m 3,2 km/h (1 Bft) N 360 0 min 0,000 mm 1,0 UV-I 212 W/m 2,1 C 5,4 C 4,8 km/h (1 Bft) 91,30 %
14.02.2016 13:00 5,4 C 80 % 989,9 hPa 0,0 l/m 1,3 km/h (1 Bft) N 360 0 min 0,127 mm 1,0 UV-I 219 W/m 2,2 C 5,4 C 1,6 km/h (1 Bft) 100,00 %
14.02.2016 13:01 5,4 C 81 % 989,8 hPa 0,0 l/m 2,1 km/h (1 Bft) N 360 0 min 0,000 mm 1,0 UV-I 227 W/m 2,4 C 5,4 C 3,2 km/h (1 Bft) 96,55 %
14.02.2016 13:02 5,4 C 80 % 989,8 hPa 0,0 l/m 1,2 km/h (1 Bft) N 360 0 min 0,000 mm 1,1 UV-I 236 W/m 2,2 C 5,4 C 1,6 km/h (1 Bft) 100,00 %
14.02.2016 13:03 5,5 C 80 % 989,8 hPa 0,0 l/m 1,1 km/h (1 Bft) N 360 0 min 0,000 mm 1,1 UV-I 244 W/m 2,3 C 5,5 C 3,2 km/h (1 Bft) 96,15 %
14.02.2016 13:04 5,5 C 79 % 989,8 hPa 0,0 l/m 0,8 km/h (0 Bft) N 355 0 min 0,000 mm 1,1 UV-I 246 W/m 2,2 C 5,5 C 3,2 km/h (1 Bft) 100,00 %
14.02.2016 13:05 5,5 C 78 % 989,7 hPa 0,0 l/m 2,3 km/h (1 Bft) N 355 0 min 0,000 mm 1,1 UV-I 244 W/m 2,0 C 5,5 C 3,2 km/h (1 Bft) 92,31 %
14.02.2016 13:06 5,6 C 78 % 989,7 hPa 0,0 l/m 1,2 km/h (1 Bft) N 355 0 min 0,000 mm 1,1 UV-I 246 W/m 2,1 C 5,6 C 3,2 km/h (1 Bft) 96,30 %
14.02.2016 13:07 5,6 C 80 % 989,7 hPa 0,0 l/m 2,7 km/h (1 Bft) N 355 0 min 0,000 mm 1,1 UV-I 241 W/m 2,4 C 5,6 C 4,8 km/h (1 Bft) 100,00 %
14.02.2016 13:08 5,7 C 80 % 989,7 hPa 0,0 l/m 1,2 km/h (1 Bft) N 355 0 min 0,000 mm 1,1 UV-I 239 W/m 2,5 C 5,7 C 3,2 km/h (1 Bft) 96,30 %
14.02.2016 13:09 5,7 C 80 % 989,6 hPa 0,0 l/m 0,6 km/h (0 Bft) N 355 0 min 0,000 mm 1,0 UV-I 232 W/m 2,5 C 5,7 C 1,6 km/h (1 Bft) 95,65 %
14.02.2016 13:10 5,8 C 83 % 989,6 hPa 0,0 l/m 0,4 km/h (0 Bft) N-NW 347 0 min 0,000 mm 1,0 UV-I 225 W/m 3,1 C 5,8 C 1,6 km/h (1 Bft) 100,00 %
14.02.2016 13:11 5,8 C 82 % 989,6 hPa 0,0 l/m 0,2 km/h (0 Bft) N-NW 339 0 min 0,000 mm 1,0 UV-I 222 W/m 3,0 C 5,8 C 1,6 km/h (1 Bft) 100,00 %
14.02.2016 13:12 5,8 C 80 % 989,6 hPa 0,0 l/m 0,3 km/h (0 Bft) N-NW 339 0 min 0,000 mm 1,0 UV-I 219 W/m 2,6 C 5,8 C 1,6 km/h (1 Bft) 96,15 %
14.02.2016 13:13 5,8 C 80 % 989,6 hPa 0,0 l/m 0,1 km/h (0 Bft) N-NW 339 0 min 0,000 mm 1,0 UV-I 220 W/m 2,6 C 5,8 C 1,6 km/h (1 Bft) 95,83 %
14.02.2016 13:14 5,8 C 81 % 989,6 hPa 0,0 l/m 0,4 km/h (0 Bft) N-NW 339 0 min 0,000 mm 1,0 UV-I 214 W/m 2,8 C 5,8 C 1,6 km/h (1 Bft) 100,00 %
14.02.2016 13:15 5,8 C 81 % 989,6 hPa 0,0 l/m 0,2 km/h (0 Bft) N-NW 339 0 min 0,000 mm 1,0 UV-I 214 W/m 2,8 C 5,8 C 1,6 km/h (1 Bft) 91,67 %
14.02.2016 13:16 5,8 C 79 % 989,6 hPa 0,0 l/m 0,1 km/h (0 Bft) N-NW 339 0 min 0,000 mm 1,0 UV-I 211 W/m 2,4 C 5,8 C 1,6 km/h (1 Bft) 100,00 %
14.02.2016 13:17 5,8 C 80 % 989,6 hPa 0,0 l/m 0,2 km/h (0 Bft) N-NW 339 0 min 0,000 mm 1,0 UV-I 209 W/m 2,6 C 5,8 C 1,6 km/h (1 Bft) 96,30 %
14.02.2016 13:18 5,9 C 80 % 989,6 hPa 0,0 l/m 0,9 km/h (0 Bft) N 360 0 min 0,000 mm 1,0 UV-I 207 W/m 2,7 C 5,9 C 3,2 km/h (1 Bft) 96,15 %
14.02.2016 13:19 5,9 C 79 % 989,6 hPa 0,0 l/m 4,2 km/h (1 Bft) N-NO 31 0 min 0,000 mm 1,0 UV-I 207 W/m 2,5 C 5,9 C 4,8 km/h (1 Bft) 100,00 %
14.02.2016 13:20 5,9 C 79 % 989,5 hPa 0,0 l/m 4,4 km/h (1 Bft) N-NO 32 0 min 0,000 mm 0,9 UV-I 207 W/m 2,5 C 5,9 C 4,8 km/h (1 Bft) 92,31 %
14.02.2016 13:21 5,9 C 78 % 989,5 hPa 0,0 l/m 4,0 km/h (1 Bft) N-NO 32 0 min 0,000 mm 0,9 UV-I 206 W/m 2,4 C 5,9 C 4,8 km/h (1 Bft) 100,00 %
14.02.2016 13:22 5,9 C 78 % 989,4 hPa 0,0 l/m 5,8 km/h (2 Bft) NO 44 0 min 0,000 mm 0,9 UV-I 207 W/m 2,4 C 5,9 C 6,4 km/h (2 Bft) 95,65 %
14.02.2016 13:23 5,9 C 77 % 989,4 hPa 0,0 l/m 4,3 km/h (1 Bft) NO 41 0 min 0,000 mm 0,9 UV-I 210 W/m 2,2 C 5,9 C 4,8 km/h (1 Bft) 100,00 %
14.02.2016 13:24 5,9 C 76 % 989,4 hPa 0,0 l/m 4,3 km/h (1 Bft) N-NO 32 0 min 0,000 mm 0,9 UV-I 209 W/m 2,0 C 5,9 C 6,4 km/h (2 Bft) 96,55 %
14.02.2016 13:25 5,9 C 78 % 989,4 hPa 0,0 l/m 5,0 km/h (1 Bft) N-NO 17 0 min 0,000 mm 0,9 UV-I 214 W/m 2,4 C 5,9 C 6,4 km/h (2 Bft) 95,83 %
14.02.2016 13:26 5,9 C 79 % 989,3 hPa 0,0 l/m 3,8 km/h (1 Bft) N-NO 13 0 min 0,000 mm 0,9 UV-I 218 W/m 2,5 C 5,9 C 6,4 km/h (2 Bft) 100,00 %
14.02.2016 13:27 5,9 C 79 % 989,3 hPa 0,0 l/m 3,8 km/h (1 Bft) N-NO 17 0 min 0,000 mm 0,9 UV-I 225 W/m 2,5 C 5,9 C 6,4 km/h (2 Bft) 100,00 %
14.02.2016 13:28 5,9 C 80 % 989,3 hPa 0,0 l/m 3,8 km/h (1 Bft) N-NO 23 0 min 0,000 mm 0,9 UV-I 228 W/m 2,7 C 5,9 C 6,4 km/h (2 Bft) 100,00 %
14.02.2016 13:29 5,9 C 79 % 989,3 hPa 0,0 l/m 7,4 km/h (2 Bft) N-NO 16 0 min 0,000 mm 0,9 UV-I 228 W/m 2,5 C 5,0 C 11,3 km/h (2 Bft) 95,83 %
14.02.2016 13:30 5,9 C 79 % 989,3 hPa 0,0 l/m 3,0 km/h (1 Bft) N-NO 12 0 min 0,000 mm 0,9 UV-I 218 W/m 2,5 C 5,9 C 4,8 km/h (1 Bft) 100,00 %
14.02.2016 13:31 5,9 C 80 % 989,3 hPa 0,0 l/m 4,6 km/h (1 Bft) N-NO 14 0 min 0,000 mm 0,9 UV-I 212 W/m 2,7 C 5,9 C 8,0 km/h (2 Bft) 96,15 %
14.02.2016 13:32 5,9 C 77 % 989,2 hPa 0,0 l/m 6,7 km/h (2 Bft) N-NO 22 0 min 0,000 mm 0,9 UV-I 206 W/m 2,2 C 5,7 C 8,0 km/h (2 Bft) 100,00 %
14.02.2016 13:33 5,9 C 78 % 989,3 hPa 0,0 l/m 6,5 km/h (2 Bft) N-NO 29 0 min 0,000 mm 0,8 UV-I 202 W/m 2,4 C 5,8 C 8,0 km/h (2 Bft) 100,00 %
14.02.2016 13:34 5,9 C 78 % 989,3 hPa 0,0 l/m 5,5 km/h (1 Bft) N-NO 31 0 min 0,000 mm 0,8 UV-I 198 W/m 2,4 C 5,9 C 8,0 km/h (2 Bft) 100,00 %
14.02.2016 13:35 6,0 C 77 % 989,3 hPa 0,0 l/m 5,1 km/h (1 Bft) N-NO 24 0 min 0,000 mm 0,8 UV-I 196 W/m 2,3 C 6,0 C 6,4 km/h (2 Bft) 100,00 %
14.02.2016 13:36 6,0 C 79 % 989,3 hPa 0,0 l/m 4,0 km/h (1 Bft) NO 41 0 min 0,000 mm 0,8 UV-I 195 W/m 2,6 C 6,0 C 4,8 km/h (1 Bft) 100,00 %
14.02.2016 13:37 6,1 C 79 % 989,4 hPa 0,0 l/m 5,7 km/h (1 Bft) NO 39 0 min 0,000 mm 0,8 UV-I 195 W/m 2,7 C 6,1 C 8,0 km/h (2 Bft) 100,00 %
14.02.2016 13:38 6,1 C 79 % 989,4 hPa 0,0 l/m 6,5 km/h (2 Bft) N-NO 26 0 min 0,000 mm 0,8 UV-I 195 W/m 2,7 C 6,0 C 8,0 km/h (2 Bft) 91,67 %
14.02.2016 13:39 6,1 C 79 % 989,4 hPa 0,0 l/m 6,1 km/h (2 Bft) N-NO 26 0 min 0,000 mm 0,8 UV-I 195 W/m 2,7 C 6,1 C 9,7 km/h (2 Bft) 100,00 %
14.02.2016 13:40 6,2 C 80 % 989,4 hPa 0,0 l/m 6,4 km/h (2 Bft) N-NO 14 0 min 0,000 mm 0,8 UV-I 194 W/m 3,0 C 6,2 C 8,0 km/h (2 Bft) 100,00 %
14.02.2016 13:41 6,2 C 80 % 989,4 hPa 0,0 l/m 6,0 km/h (2 Bft) NO 49 0 min 0,000 mm 0,8 UV-I 192 W/m 3,0 C 6,2 C 8,0 km/h (2 Bft) 100,00 %
14.02.2016 13:42 6,3 C 80 % 989,4 hPa 0,0 l/m 4,4 km/h (1 Bft) N-NO 24 0 min 0,000 mm 0,8 UV-I 192 W/m 3,1 C 6,3 C 8,0 km/h (2 Bft) 100,00 %
14.02.2016 13:43 6,3 C 80 % 989,4 hPa 0,0 l/m 3,8 km/h (1 Bft) N-NO 19 0 min 0,000 mm 0,7 UV-I 190 W/m 3,1 C 6,3 C 6,4 km/h (2 Bft) 100,00 %
14.02.2016 13:44 6,3 C 80 % 989,4 hPa 0,0 l/m 5,2 km/h (1 Bft) NO 45 0 min 0,000 mm 0,7 UV-I 186 W/m 3,1 C 6,3 C 6,4 km/h (2 Bft) 100,00 %
14.02.2016 13:45 6,3 C 78 % 989,4 hPa 0,0 l/m 9,3 km/h (2 Bft) O-NO 59 0 min 0,000 mm 0,7 UV-I 181 W/m 2,8 C 4,0 C 12,9 km/h (3 Bft) 100,00 %
14.02.2016 13:46 6,3 C 73 % 989,4 hPa 0,0 l/m 10,2 km/h (2 Bft) NO 47 0 min 0,000 mm 0,7 UV-I 177 W/m 1,8 C 3,4 C 14,5 km/h (3 Bft) 100,00 %
14.02.2016 13:47 6,3 C 74 % 989,4 hPa 0,0 l/m 8,5 km/h (2 Bft) NO 38 0 min 0,000 mm 0,7 UV-I 173 W/m 2,0 C 4,6 C 11,3 km/h (2 Bft) 100,00 %
14.02.2016 13:48 6,3 C 73 % 989,4 hPa 0,0 l/m 7,1 km/h (2 Bft) NO 46 0 min 0,000 mm 0,7 UV-I 169 W/m 1,8 C 5,7 C 11,3 km/h (2 Bft) 100,00 %
14.02.2016 13:49 6,3 C 73 % 989,4 hPa 0,0 l/m 9,3 km/h (2 Bft) O 81 0 min 0,000 mm 0,6 UV-I 164 W/m 1,8 C 4,0 C 12,9 km/h (3 Bft) 92,31 %
14.02.2016 13:50 6,3 C 73 % 989,3 hPa 0,0 l/m 9,6 km/h (2 Bft) NO 46 0 min 0,000 mm 0,6 UV-I 162 W/m 1,8 C 3,8 C 12,9 km/h (3 Bft) 100,00 %
14.02.2016 13:51 6,3 C 73 % 989,3 hPa 0,0 l/m 8,0 km/h (2 Bft) N-NO 32 0 min 0,000 mm 0,6 UV-I 159 W/m 1,8 C 5,0 C 12,9 km/h (3 Bft) 100,00 %
14.02.2016 13:52 6,3 C 74 % 989,3 hPa 0,0 l/m 11,7 km/h (2 Bft) O-NO 59 0 min 0,000 mm 0,6 UV-I 156 W/m 2,0 C 2,4 C 19,3 km/h (3 Bft) 100,00 %
14.02.2016 13:53 6,3 C 73 % 989,3 hPa 0,0 l/m 10,8 km/h (2 Bft) O-NO 57 0 min 0,000 mm 0,6 UV-I 154 W/m 1,8 C 3,0 C 16,1 km/h (3 Bft) 100,00 %
14.02.2016 13:54 6,2 C 75 % 989,3 hPa 0,0 l/m 9,5 km/h (2 Bft) NO 46 0 min 0,000 mm 0,6 UV-I 153 W/m 2,1 C 3,7 C 12,9 km/h (3 Bft) 100,00 %
14.02.2016 13:55 6,2 C 75 % 989,3 hPa 0,0 l/m 15,5 km/h (3 Bft) O-NO 69 0 min 0,000 mm 0,6 UV-I 151 W/m 2,1 C 0,3 C 17,7 km/h (3 Bft) 100,00 %
14.02.2016 13:56 6,2 C 74 % 989,3 hPa 0,0 l/m 11,5 km/h (2 Bft) O-NO 68 0 min 0,000 mm 0,6 UV-I 148 W/m 1,9 C 2,4 C 17,7 km/h (3 Bft) 96,55 %
14.02.2016 13:57 6,2 C 75 % 989,3 hPa 0,0 l/m 14,2 km/h (3 Bft) O-NO 71 0 min 0,000 mm 0,6 UV-I 147 W/m 2,1 C 0,9 C 19,3 km/h (3 Bft) 100,00 %
14.02.2016 13:58 6,1 C 75 % 989,3 hPa 0,0 l/m 14,8 km/h (3 Bft) O-NO 61 0 min 0,000 mm 0,5 UV-I 143 W/m 2,0 C 0,5 C 19,3 km/h (3 Bft) 100,00 %
14.02.2016 13:59 6,1 C 75 % 989,3 hPa 0,0 l/m 19,3 km/h (3 Bft) O-NO 69 0 min 0,000 mm 0,5 UV-I 139 W/m 2,0 C -1,5 C 25,7 km/h (4 Bft) 100,00 %
14.02.2016 14:00 6,0 C 74 % 989,3 hPa 0,0 l/m 15,9 km/h (3 Bft) NO 51 0 min 0,101 mm 0,5 UV-I 133 W/m 1,7 C -0,1 C 19,3 km/h (3 Bft) 96,15 %
14.02.2016 14:01 6,0 C 74 % 989,3 hPa 0,0 l/m 15,3 km/h (3 Bft) NO 51 0 min 0,000 mm 0,5 UV-I 129 W/m 1,7 C 0,1 C 19,3 km/h (3 Bft) 100,00 %
14.02.2016 14:02 5,9 C 76 % 989,4 hPa 0,0 l/m 14,7 km/h (3 Bft) NO 49 0 min 0,000 mm 0,5 UV-I 126 W/m 2,0 C 0,3 C 17,7 km/h (3 Bft) 100,00 %
14.02.2016 14:03 5,9 C 76 % 989,4 hPa 0,0 l/m 11,1 km/h (2 Bft) NO 46 0 min 0,000 mm 0,5 UV-I 123 W/m 2,0 C 2,3 C 19,3 km/h (3 Bft) 100,00 %
14.02.2016 14:04 5,8 C 77 % 989,4 hPa 0,0 l/m 16,9 km/h (3 Bft) O-NO 59 0 min 0,000 mm 0,5 UV-I 120 W/m 2,1 C -0,9 C 19,3 km/h (3 Bft) 100,00 %
14.02.2016 14:05 5,8 C 77 % 989,4 hPa 0,0 l/m 13,5 km/h (3 Bft) NO 53 0 min 0,000 mm 0,5 UV-I 118 W/m 2,1 C 0,8 C 17,7 km/h (3 Bft) 96,30 %
14.02.2016 14:06 5,7 C 77 % 989,5 hPa 0,0 l/m 16,1 km/h (3 Bft) NO 52 0 min 0,000 mm 0,1 UV-I 118 W/m 2,0 C -0,6 C 19,3 km/h (3 Bft) 96,55 %
14.02.2016 14:07 5,7 C 77 % 989,5 hPa 0,0 l/m 12,9 km/h (3 Bft) O-NO 64 0 min 0,000 mm 0,0 UV-I 115 W/m 2,0 C 1,0 C 17,7 km/h (3 Bft) 100,00 %
14.02.2016 14:08 5,6 C 78 % 989,4 hPa 0,0 l/m 9,2 km/h (2 Bft) NO 53 0 min 0,000 mm 0,0 UV-I 114 W/m 2,1 C 3,3 C 14,5 km/h (3 Bft) 100,00 %
14.02.2016 14:09 5,6 C 78 % 989,5 hPa 0,0 l/m 11,0 km/h (2 Bft) O-NO 68 0 min 0,000 mm 0,0 UV-I 113 W/m 2,1 C 2,1 C 17,7 km/h (3 Bft) 100,00 %
14.02.2016 14:10 5,5 C 79 % 989,5 hPa 0,0 l/m 12,5 km/h (3 Bft) NO 54 0 min 0,000 mm 0,0 UV-I 113 W/m 2,2 C 1,0 C 17,7 km/h (3 Bft) 100,00 %
14.02.2016 14:11 5,4 C 79 % 989,4 hPa 0,0 l/m 15,0 km/h (3 Bft) O-NO 58 0 min 0,000 mm 0,0 UV-I 113 W/m 2,1 C -0,4 C 17,7 km/h (3 Bft) 100,00 %
14.02.2016 14:12 5,4 C 79 % 989,4 hPa 0,0 l/m 12,5 km/h (3 Bft) NO 37 0 min 0,000 mm 0,0 UV-I 113 W/m 2,1 C 0,9 C 16,1 km/h (3 Bft) 100,00 %
14.02.2016 14:13 5,4 C 79 % 989,4 hPa 0,0 l/m 12,7 km/h (3 Bft) O-NO 61 0 min 0,000 mm 0,0 UV-I 111 W/m 2,1 C 0,8 C 17,7 km/h (3 Bft) 100,00 %
14.02.2016 14:14 5,3 C 79 % 989,4 hPa 0,0 l/m 15,8 km/h (3 Bft) NO 50 0 min 0,000 mm 0,0 UV-I 111 W/m 2,0 C -1,0 C 22,5 km/h (4 Bft) 100,00 %
14.02.2016 14:15 5,3 C 79 % 989,4 hPa 0,0 l/m 13,5 km/h (3 Bft) O-NO 63 0 min 0,000 mm 0,0 UV-I 111 W/m 2,0 C 0,2 C 19,3 km/h (3 Bft) 100,00 %
14.02.2016 14:16 5,3 C 80 % 989,4 hPa 0,0 l/m 12,0 km/h (2 Bft) O-NO 67 0 min 0,000 mm 0,0 UV-I 110 W/m 2,1 C 1,1 C 16,1 km/h (3 Bft) 96,30 %
14.02.2016 14:17 5,2 C 80 % 989,4 hPa 0,0 l/m 7,5 km/h (2 Bft) O-NO 57 0 min 0,000 mm 0,0 UV-I 109 W/m 2,0 C 4,2 C 9,7 km/h (2 Bft) 100,00 %
14.02.2016 14:18 5,2 C 81 % 989,4 hPa 0,0 l/m 7,5 km/h (2 Bft) O-NO 69 0 min 0,000 mm 0,0 UV-I 109 W/m 2,2 C 4,2 C 11,3 km/h (2 Bft) 100,00 %
14.02.2016 14:19 5,2 C 80 % 989,5 hPa 0,0 l/m 6,8 km/h (2 Bft) O-NO 63 0 min 0,000 mm 0,0 UV-I 108 W/m 2,0 C 4,9 C 8,0 km/h (2 Bft) 100,00 %
14.02.2016 14:20 5,2 C 81 % 989,5 hPa 0,0 l/m 11,2 km/h (2 Bft) O-NO 63 0 min 0,000 mm 0,0 UV-I 107 W/m 2,2 C 1,5 C 17,7 km/h (3 Bft) 100,00 %
14.02.2016 14:21 5,2 C 81 % 989,5 hPa 0,0 l/m 9,2 km/h (2 Bft) NO 55 0 min 0,000 mm 0,0 UV-I 106 W/m 2,2 C 2,9 C 14,5 km/h (3 Bft) 92,86 %
14.02.2016 14:22 5,2 C 81 % 989,5 hPa 0,0 l/m 8,2 km/h (2 Bft) NO 44 0 min 0,000 mm 0,0 UV-I 103 W/m 2,2 C 3,6 C 14,5 km/h (3 Bft) 100,00 %
14.02.2016 14:23 5,2 C 81 % 989,5 hPa 0,0 l/m 12,0 km/h (2 Bft) NO 46 0 min 0,000 mm 0,0 UV-I 100 W/m 2,2 C 1,0 C 16,1 km/h (3 Bft) 100,00 %
14.02.2016 14:24 5,2 C 81 % 989,4 hPa 0,0 l/m 8,5 km/h (2 Bft) N-NO 32 0 min 0,000 mm 0,0 UV-I 98 W/m 2,2 C 3,4 C 14,5 km/h (3 Bft) 100,00 %
14.02.2016 14:25 5,1 C 81 % 989,4 hPa 0,0 l/m 11,7 km/h (2 Bft) O-NO 59 0 min 0,000 mm 0,0 UV-I 96 W/m 2,1 C 1,1 C 16,1 km/h (3 Bft) 100,00 %
14.02.2016 14:26 5,1 C 82 % 989,5 hPa 0,0 l/m 12,6 km/h (3 Bft) NO 51 0 min 0,000 mm 0,0 UV-I 95 W/m 2,3 C 0,5 C 16,1 km/h (3 Bft) 93,33 %
14.02.2016 14:27 5,1 C 82 % 989,5 hPa 0,0 l/m 10,5 km/h (2 Bft) NO 37 0 min 0,000 mm 0,0 UV-I 93 W/m 2,3 C 1,8 C 14,5 km/h (3 Bft) 96,15 %
14.02.2016 14:28 5,1 C 82 % 989,5 hPa 0,0 l/m 8,3 km/h (2 Bft) O-NO 68 0 min 0,000 mm 0,0 UV-I 93 W/m 2,3 C 3,5 C 12,9 km/h (3 Bft) 96,30 %
14.02.2016 14:29 5,2 C 82 % 989,5 hPa 0,0 l/m 10,8 km/h (2 Bft) O-NO 74 0 min 0,000 mm 0,0 UV-I 93 W/m 2,4 C 1,7 C 16,1 km/h (3 Bft) 100,00 %
14.02.2016 14:30 5,1 C 82 % 989,5 hPa 0,0 l/m 14,2 km/h (3 Bft) NO 44 0 min 0,000 mm 0,0 UV-I 91 W/m 2,3 C -0,4 C 17,7 km/h (3 Bft) 100,00 %
14.02.2016 14:31 5,1 C 82 % 989,5 hPa 0,0 l/m 16,3 km/h (3 Bft) O-NO 72 0 min 0,000 mm 0,0 UV-I 91 W/m 2,3 C -1,4 C 20,9 km/h (4 Bft) 100,00 %
14.02.2016 14:32 5,1 C 81 % 989,5 hPa 0,0 l/m 18,1 km/h (3 Bft) O-NO 75 0 min 0,000 mm 0,0 UV-I 91 W/m 2,1 C -2,3 C 22,5 km/h (4 Bft) 100,00 %
14.02.2016 14:33 5,1 C 81 % 989,5 hPa 0,0 l/m 17,8 km/h (3 Bft) NO 36 0 min 0,000 mm 0,0 UV-I 91 W/m 2,1 C -2,1 C 24,1 km/h (4 Bft) 100,00 %
14.02.2016 14:34 5,1 C 81 % 989,5 hPa 0,0 l/m 18,1 km/h (3 Bft) NO 45 0 min 0,000 mm 0,0 UV-I 91 W/m 2,1 C -2,3 C 22,5 km/h (4 Bft) 100,00 %
14.02.2016 14:35 5,0 C 81 % 989,5 hPa 0,0 l/m 18,7 km/h (3 Bft) NO 55 0 min 0,000 mm 0,0 UV-I 91 W/m 2,0 C -2,6 C 22,5 km/h (4 Bft) 100,00 %
14.02.2016 14:36 4,9 C 81 % 989,5 hPa 0,0 l/m 19,3 km/h (3 Bft) O-NO 66 0 min 0,000 mm 0,0 UV-I 91 W/m 1,9 C -3,0 C 24,1 km/h (4 Bft) 96,15 %
14.02.2016 14:37 4,9 C 81 % 989,5 hPa 0,0 l/m 16,1 km/h (3 Bft) NO 56 0 min 0,000 mm 0,0 UV-I 90 W/m 1,9 C -1,6 C 20,9 km/h (4 Bft) 100,00 %
14.02.2016 14:38 4,9 C 82 % 989,5 hPa 0,0 l/m 20,6 km/h (4 Bft) NO 48 0 min 0,000 mm 0,0 UV-I 89 W/m 2,1 C -3,5 C 24,1 km/h (4 Bft) 100,00 %
14.02.2016 14:39 4,8 C 82 % 989,5 hPa 0,0 l/m 15,5 km/h (3 Bft) O-SO 117 0 min 0,000 mm 0,0 UV-I 88 W/m 2,0 C -1,4 C 17,7 km/h (3 Bft) 100,00 %
14.02.2016 14:40 4,8 C 83 % 989,5 hPa 0,0 l/m 12,5 km/h (3 Bft) O-NO 65 0 min 0,000 mm 0,0 UV-I 88 W/m 2,2 C 0,2 C 16,1 km/h (3 Bft) 100,00 %
14.02.2016 14:41 4,8 C 83 % 989,5 hPa 0,0 l/m 11,3 km/h (2 Bft) O-NO 76 0 min 0,000 mm 0,0 UV-I 90 W/m 2,2 C 1,0 C 17,7 km/h (3 Bft) 100,00 %
14.02.2016 14:42 4,8 C 83 % 989,5 hPa 0,0 l/m 12,5 km/h (3 Bft) O-NO 74 0 min 0,000 mm 0,0 UV-I 90 W/m 2,2 C 0,2 C 17,7 km/h (3 Bft) 100,00 %
14.02.2016 14:43 4,8 C 83 % 989,5 hPa 0,0 l/m 11,7 km/h (2 Bft) O-NO 61 0 min 0,000 mm 0,0 UV-I 90 W/m 2,2 C 0,7 C 16,1 km/h (3 Bft) 100,00 %
14.02.2016 14:44 4,8 C 83 % 989,5 hPa 0,0 l/m 9,9 km/h (2 Bft) O-NO 63 0 min 0,000 mm 0,0 UV-I 90 W/m 2,2 C 1,9 C 14,5 km/h (3 Bft) 100,00 %
14.02.2016 14:45 4,7 C 84 % 989,5 hPa 0,0 l/m 13,8 km/h (3 Bft) O-NO 74 0 min 0,000 mm 0,0 UV-I 90 W/m 2,2 C -0,6 C 17,7 km/h (3 Bft) 100,00 %
14.02.2016 14:46 4,7 C 84 % 989,5 hPa 0,0 l/m 13,4 km/h (3 Bft) O-NO 69 0 min 0,000 mm 0,0 UV-I 88 W/m 2,2 C -0,4 C 17,7 km/h (3 Bft) 100,00 %
14.02.2016 14:47 4,7 C 84 % 989,5 hPa 0,0 l/m 14,6 km/h (3 Bft) O-NO 73 0 min 0,000 mm 0,0 UV-I 88 W/m 2,2 C -1,1 C 19,3 km/h (3 Bft) 100,00 %
14.02.2016 14:48 4,7 C 84 % 989,5 hPa 0,0 l/m 14,6 km/h (3 Bft) O-NO 76 0 min 0,000 mm 0,0 UV-I 88 W/m 2,2 C -1,1 C 19,3 km/h (3 Bft) 100,00 %
14.02.2016 14:49 4,7 C 84 % 989,5 hPa 0,0 l/m 12,9 km/h (3 Bft) O-NO 71 0 min 0,000 mm 0,0 UV-I 88 W/m 2,2 C -0,1 C 16,1 km/h (3 Bft) 100,00 %
14.02.2016 14:50 4,7 C 85 % 989,5 hPa 0,0 l/m 13,1 km/h (3 Bft) O-NO 65 0 min 0,000 mm 0,0 UV-I 89 W/m 2,4 C -0,2 C 16,1 km/h (3 Bft) 100,00 %
14.02.2016 14:51 4,7 C 85 % 989,5 hPa 0,0 l/m 10,7 km/h (2 Bft) NO 51 0 min 0,000 mm 0,0 UV-I 90 W/m 2,4 C 1,3 C 14,5 km/h (3 Bft) 100,00 %
14.02.2016 14:52 4,7 C 84 % 989,5 hPa 0,0 l/m 14,1 km/h (3 Bft) O-NO 73 0 min 0,000 mm 0,0 UV-I 91 W/m 2,2 C -0,8 C 17,7 km/h (3 Bft) 95,83 %
14.02.2016 14:53 4,7 C 85 % 989,5 hPa 0,0 l/m 9,8 km/h (2 Bft) NO 38 0 min 0,000 mm 0,0 UV-I 91 W/m 2,4 C 1,9 C 14,5 km/h (3 Bft) 92,31 %
14.02.2016 14:54 4,6 C 85 % 989,4 hPa 0,0 l/m 8,4 km/h (2 Bft) NO 46 0 min 0,000 mm 0,0 UV-I 93 W/m 2,3 C 2,9 C 12,9 km/h (3 Bft) 100,00 %
14.02.2016 14:55 4,6 C 85 % 989,5 hPa 0,0 l/m 7,9 km/h (2 Bft) O-NO 61 0 min 0,000 mm 0,0 UV-I 92 W/m 2,3 C 3,3 C 14,5 km/h (3 Bft) 92,31 %
14.02.2016 14:56 4,6 C 86 % 989,5 hPa 0,0 l/m 11,2 km/h (2 Bft) NO 48 0 min 0,000 mm 0,0 UV-I 90 W/m 2,5 C 0,8 C 17,7 km/h (3 Bft) 100,00 %
14.02.2016 14:57 4,6 C 86 % 989,5 hPa 0,0 l/m 14,9 km/h (3 Bft) O-NO 63 0 min 0,000 mm 0,0 UV-I 89 W/m 2,5 C -1,4 C 19,3 km/h (3 Bft) 95,65 %
14.02.2016 14:58 4,6 C 85 % 989,5 hPa 0,0 l/m 14,2 km/h (3 Bft) NO 54 0 min 0,000 mm 0,0 UV-I 86 W/m 2,3 C -1,0 C 19,3 km/h (3 Bft) 100,00 %
14.02.2016 14:59 4,6 C 85 % 989,4 hPa 0,0 l/m 15,9 km/h (3 Bft) O-NO 63 0 min 0,000 mm 0,0 UV-I 84 W/m 2,3 C -1,9 C 19,3 km/h (3 Bft) 92,86 %
14.02.2016 15:00 4,6 C 85 % 989,4 hPa 0,0 l/m 16,4 km/h (3 Bft) O-NO 63 0 min 0,051 mm 0,0 UV-I 82 W/m 2,3 C -2,1 C 20,9 km/h (4 Bft) 100,00 %
14.02.2016 15:01 4,6 C 85 % 989,4 hPa 0,0 l/m 15,9 km/h (3 Bft) O-NO 57 0 min 0,000 mm 0,0 UV-I 81 W/m 2,3 C -1,9 C 20,9 km/h (4 Bft) 96,15 %
14.02.2016 15:02 4,5 C 86 % 989,4 hPa 0,0 l/m 13,3 km/h (3 Bft) O-NO 72 0 min 0,000 mm 0,0 UV-I 80 W/m 2,4 C -0,6 C 17,7 km/h (3 Bft) 96,30 %
14.02.2016 15:03 4,5 C 86 % 989,4 hPa 0,0 l/m 13,1 km/h (3 Bft) O-NO 71 0 min 0,000 mm 0,0 UV-I 77 W/m 2,4 C -0,5 C 16,1 km/h (3 Bft) 100,00 %
14.02.2016 15:04 4,5 C 86 % 989,5 hPa 0,0 l/m 10,2 km/h (2 Bft) NO 42 0 min 0,000 mm 0,0 UV-I 77 W/m 2,4 C 1,4 C 14,5 km/h (3 Bft) 96,30 %
14.02.2016 15:05 4,4 C 86 % 989,4 hPa 0,0 l/m 12,8 km/h (3 Bft) NO 45 0 min 0,000 mm 0,0 UV-I 76 W/m 2,3 C -0,4 C 17,7 km/h (3 Bft) 96,15 %
14.02.2016 15:06 4,5 C 87 % 989,4 hPa 0,0 l/m 16,1 km/h (3 Bft) O-NO 60 0 min 0,000 mm 0,0 UV-I 76 W/m 2,5 C -2,1 C 20,9 km/h (4 Bft) 95,24 %
14.02.2016 15:07 4,4 C 87 % 989,4 hPa 0,0 l/m 15,6 km/h (3 Bft) O-NO 76 0 min 0,000 mm 0,0 UV-I 76 W/m 2,4 C -2,0 C 19,3 km/h (3 Bft) 100,00 %
14.02.2016 15:08 4,4 C 87 % 989,4 hPa 0,0 l/m 15,8 km/h (3 Bft) NO 48 0 min 0,000 mm 0,0 UV-I 77 W/m 2,4 C -2,1 C 19,3 km/h (3 Bft) 96,30 %
14.02.2016 15:09 4,4 C 87 % 989,5 hPa 0,0 l/m 16,4 km/h (3 Bft) O-NO 61 0 min 0,000 mm 0,0 UV-I 79 W/m 2,4 C -2,4 C 20,9 km/h (4 Bft) 100,00 %
14.02.2016 15:10 4,4 C 87 % 989,5 hPa 0,0 l/m 14,8 km/h (3 Bft) NO 51 0 min 0,000 mm 0,0 UV-I 79 W/m 2,4 C -1,5 C 20,9 km/h (4 Bft) 95,83 %
14.02.2016 15:11 4,4 C 87 % 989,5 hPa 0,0 l/m 13,9 km/h (3 Bft) O-NO 61 0 min 0,000 mm 0,0 UV-I 79 W/m 2,4 C -1,1 C 19,3 km/h (3 Bft) 95,65 %
14.02.2016 15:12 4,4 C 87 % 989,6 hPa 0,0 l/m 13,9 km/h (3 Bft) NO 55 0 min 0,000 mm 0,0 UV-I 78 W/m 2,4 C -1,1 C 20,9 km/h (4 Bft) 100,00 %
14.02.2016 15:13 4,4 C 87 % 989,6 hPa 0,0 l/m 13,2 km/h (3 Bft) NO 38 0 min 0,000 mm 0,0 UV-I 77 W/m 2,4 C -0,7 C 16,1 km/h (3 Bft) 100,00 %
14.02.2016 15:14 4,3 C 88 % 989,6 hPa 0,0 l/m 14,7 km/h (3 Bft) O-NO 61 0 min 0,000 mm 0,0 UV-I 75 W/m 2,5 C -1,6 C 19,3 km/h (3 Bft) 96,88 %
14.02.2016 15:15 4,3 C 88 % 989,6 hPa 0,0 l/m 11,5 km/h (2 Bft) O-NO 74 0 min 0,000 mm 0,0 UV-I 72 W/m 2,5 C 0,3 C 16,1 km/h (3 Bft) 96,30 %
14.02.2016 15:16 4,3 C 87 % 989,6 hPa 0,0 l/m 12,5 km/h (3 Bft) NO 49 0 min 0,000 mm 0,0 UV-I 70 W/m 2,3 C -0,4 C 17,7 km/h (3 Bft) 100,00 %
14.02.2016 15:17 4,3 C 88 % 989,6 hPa 0,0 l/m 15,0 km/h (3 Bft) NO 52 0 min 0,000 mm 0,0 UV-I 70 W/m 2,5 C -1,8 C 19,3 km/h (3 Bft) 96,67 %
14.02.2016 15:18 4,3 C 88 % 989,6 hPa 0,0 l/m 16,5 km/h (3 Bft) O-NO 67 0 min 0,000 mm 0,0 UV-I 69 W/m 2,5 C -2,5 C 19,3 km/h (3 Bft) 100,00 %
14.02.2016 15:19 4,3 C 88 % 989,6 hPa 0,0 l/m 15,5 km/h (3 Bft) O-NO 71 0 min 0,000 mm 0,0 UV-I 69 W/m 2,5 C -2,0 C 17,7 km/h (3 Bft) 91,67 %
14.02.2016 15:20 4,3 C 88 % 989,6 hPa 0,0 l/m 13,3 km/h (3 Bft) O-NO 60 0 min 0,000 mm 0,0 UV-I 66 W/m 2,5 C -0,8 C 20,9 km/h (4 Bft) 92,31 %
14.02.2016 15:21 4,3 C 88 % 989,6 hPa 0,0 l/m 16,4 km/h (3 Bft) O-NO 57 0 min 0,000 mm 0,0 UV-I 63 W/m 2,5 C -2,5 C 19,3 km/h (3 Bft) 100,00 %
14.02.2016 15:22 4,3 C 88 % 989,6 hPa 0,0 l/m 17,0 km/h (3 Bft) NO 48 0 min 0,000 mm 0,0 UV-I 62 W/m 2,5 C -2,8 C 20,9 km/h (4 Bft) 95,65 %
14.02.2016 15:23 4,3 C 88 % 989,5 hPa 0,0 l/m 14,6 km/h (3 Bft) O-NO 58 0 min 0,000 mm 0,0 UV-I 59 W/m 2,5 C -1,6 C 17,7 km/h (3 Bft) 100,00 %
14.02.2016 15:24 4,3 C 88 % 989,5 hPa 0,0 l/m 16,1 km/h (3 Bft) O-NO 71 0 min 0,000 mm 0,0 UV-I 56 W/m 2,5 C -2,3 C 19,3 km/h (3 Bft) 95,65 %
14.02.2016 15:25 4,3 C 88 % 989,5 hPa 0,0 l/m 16,4 km/h (3 Bft) O-NO 57 0 min 0,000 mm 0,0 UV-I 53 W/m 2,5 C -2,5 C 20,9 km/h (4 Bft) 100,00 %
14.02.2016 15:26 4,2 C 88 % 989,5 hPa 0,0 l/m 15,0 km/h (3 Bft) NO 44 0 min 0,000 mm 0,0 UV-I 52 W/m 2,4 C -1,9 C 17,7 km/h (3 Bft) 96,15 %
14.02.2016 15:27 4,2 C 89 % 989,4 hPa 0,0 l/m 15,2 km/h (3 Bft) NO 46 0 min 0,000 mm 0,0 UV-I 51 W/m 2,6 C -2,0 C 20,9 km/h (4 Bft) 96,30 %
14.02.2016 15:28 4,2 C 89 % 989,4 hPa 0,0 l/m 18,7 km/h (3 Bft) O-NO 68 0 min 0,000 mm 0,0 UV-I 49 W/m 2,6 C -3,7 C 24,1 km/h (4 Bft) 100,00 %
14.02.2016 15:29 4,2 C 89 % 989,4 hPa 0,0 l/m 19,6 km/h (3 Bft) O-NO 60 0 min 0,000 mm 0,0 UV-I 46 W/m 2,6 C -4,0 C 20,9 km/h (4 Bft) 100,00 %
14.02.2016 15:30 4,2 C 88 % 989,3 hPa 0,0 l/m 18,3 km/h (3 Bft) O-NO 63 0 min 0,000 mm 0,0 UV-I 43 W/m 2,4 C -3,5 C 20,9 km/h (4 Bft) 96,15 %
14.02.2016 15:31 4,2 C 88 % 989,3 hPa 0,0 l/m 15,8 km/h (3 Bft) NO 47 0 min 0,000 mm 0,0 UV-I 41 W/m 2,4 C -2,3 C 19,3 km/h (3 Bft) 100,00 %
14.02.2016 15:32 4,2 C 89 % 989,3 hPa 0,0 l/m 17,8 km/h (3 Bft) NO 50 0 min 0,000 mm 0,0 UV-I 40 W/m 2,6 C -3,3 C 24,1 km/h (4 Bft) 100,00 %
14.02.2016 15:33 4,2 C 88 % 989,3 hPa 0,0 l/m 17,5 km/h (3 Bft) O-NO 57 0 min 0,000 mm 0,0 UV-I 40 W/m 2,4 C -3,1 C 20,9 km/h (4 Bft) 100,00 %
14.02.2016 15:34 4,2 C 88 % 989,3 hPa 0,0 l/m 18,9 km/h (3 Bft) NO 45 0 min 0,000 mm 0,0 UV-I 39 W/m 2,4 C -3,7 C 25,7 km/h (4 Bft) 100,00 %
14.02.2016 15:35 4,2 C 88 % 989,3 hPa 0,0 l/m 18,3 km/h (3 Bft) NO 55 0 min 0,000 mm 0,0 UV-I 39 W/m 2,4 C -3,5 C 24,1 km/h (4 Bft) 100,00 %
14.02.2016 15:36 4,2 C 89 % 989,3 hPa 0,0 l/m 15,3 km/h (3 Bft) O 82 0 min 0,000 mm 0,0 UV-I 38 W/m 2,6 C -2,0 C 17,7 km/h (3 Bft) 100,00 %
14.02.2016 15:37 4,1 C 89 % 989,3 hPa 0,0 l/m 16,5 km/h (3 Bft) NO 52 0 min 0,000 mm 0,0 UV-I 37 W/m 2,5 C -2,8 C 22,5 km/h (4 Bft) 95,65 %
14.02.2016 15:38 4,1 C 89 % 989,3 hPa 0,0 l/m 14,7 km/h (3 Bft) NO 45 0 min 0,000 mm 0,0 UV-I 37 W/m 2,5 C -1,9 C 19,3 km/h (3 Bft) 100,00 %
14.02.2016 15:39 4,1 C 89 % 989,3 hPa 0,0 l/m 16,1 km/h (3 Bft) O-NO 59 0 min 0,000 mm 0,0 UV-I 35 W/m 2,5 C -2,6 C 19,3 km/h (3 Bft) 100,00 %
14.02.2016 15:40 4,1 C 89 % 989,3 hPa 0,0 l/m 16,7 km/h (3 Bft) NO 56 0 min 0,000 mm 0,0 UV-I 35 W/m 2,5 C -2,9 C 20,9 km/h (4 Bft) 100,00 %
14.02.2016 15:41 4,1 C 89 % 989,3 hPa 0,0 l/m 15,7 km/h (3 Bft) O-NO 57 0 min 0,000 mm 0,0 UV-I 37 W/m 2,5 C -2,4 C 19,3 km/h (3 Bft) 100,00 %
14.02.2016 15:42 4,1 C 89 % 989,3 hPa 0,0 l/m 13,9 km/h (3 Bft) NO 47 0 min 0,000 mm 0,0 UV-I 38 W/m 2,5 C -1,4 C 17,7 km/h (3 Bft) 100,00 %
14.02.2016 15:43 4,1 C 89 % 989,3 hPa 0,0 l/m 17,4 km/h (3 Bft) O 84 0 min 0,000 mm 0,0 UV-I 39 W/m 2,5 C -3,2 C 20,9 km/h (4 Bft) 100,00 %
14.02.2016 15:44 4,1 C 89 % 989,3 hPa 0,0 l/m 16,6 km/h (3 Bft) O 80 0 min 0,000 mm 0,0 UV-I 39 W/m 2,5 C -2,8 C 20,9 km/h (4 Bft) 100,00 %
14.02.2016 15:45 4,1 C 89 % 989,3 hPa 0,0 l/m 16,9 km/h (3 Bft) O-NO 59 0 min 0,000 mm 0,0 UV-I 39 W/m 2,5 C -3,0 C 22,5 km/h (4 Bft) 100,00 %
14.02.2016 15:46 4,1 C 89 % 989,3 hPa 0,0 l/m 18,1 km/h (3 Bft) NO 44 0 min 0,000 mm 0,0 UV-I 38 W/m 2,5 C -3,5 C 22,5 km/h (4 Bft) 100,00 %
14.02.2016 15:47 4,1 C 88 % 989,3 hPa 0,0 l/m 14,3 km/h (3 Bft) O-NO 70 0 min 0,000 mm 0,0 UV-I 36 W/m 2,3 C -1,6 C 19,3 km/h (3 Bft) 92,31 %
14.02.2016 15:48 4,1 C 89 % 989,3 hPa 0,0 l/m 16,9 km/h (3 Bft) O-NO 66 0 min 0,000 mm 0,0 UV-I 35 W/m 2,5 C -3,0 C 22,5 km/h (4 Bft) 100,00 %
14.02.2016 15:49 4,1 C 88 % 989,3 hPa 0,0 l/m 13,8 km/h (3 Bft) O 81 0 min 0,000 mm 0,0 UV-I 34 W/m 2,3 C -1,4 C 17,7 km/h (3 Bft) 96,55 %
14.02.2016 15:50 4,1 C 88 % 989,3 hPa 0,0 l/m 15,9 km/h (3 Bft) O-NO 62 0 min 0,000 mm 0,0 UV-I 33 W/m 2,3 C -2,5 C 20,9 km/h (4 Bft) 100,00 %
14.02.2016 15:51 4,1 C 88 % 989,3 hPa 0,0 l/m 14,5 km/h (3 Bft) O 88 0 min 0,000 mm 0,0 UV-I 33 W/m 2,3 C -1,7 C 20,9 km/h (4 Bft) 100,00 %
14.02.2016 15:52 4,0 C 88 % 989,3 hPa 0,0 l/m 13,7 km/h (3 Bft) O 85 0 min 0,000 mm 0,0 UV-I 32 W/m 2,2 C -1,4 C 17,7 km/h (3 Bft) 100,00 %
14.02.2016 15:53 4,0 C 88 % 989,3 hPa 0,0 l/m 14,1 km/h (3 Bft) NO 45 0 min 0,000 mm 0,0 UV-I 32 W/m 2,2 C -1,6 C 17,7 km/h (3 Bft) 100,00 %
14.02.2016 15:54 4,1 C 88 % 989,4 hPa 0,0 l/m 11,3 km/h (2 Bft) O-NO 66 0 min 0,000 mm 0,0 UV-I 31 W/m 2,3 C 0,2 C 16,1 km/h (3 Bft) 100,00 %
14.02.2016 15:55 4,0 C 89 % 989,4 hPa 0,0 l/m 9,0 km/h (2 Bft) O-NO 63 0 min 0,000 mm 0,0 UV-I 29 W/m 2,4 C 1,7 C 12,9 km/h (3 Bft) 100,00 %
14.02.2016 15:56 4,0 C 89 % 989,3 hPa 0,0 l/m 6,4 km/h (2 Bft) O-NO 71 0 min 0,000 mm 0,0 UV-I 28 W/m 2,4 C 4,0 C 12,9 km/h (3 Bft) 100,00 %
14.02.2016 15:57 4,0 C 89 % 989,3 hPa 0,0 l/m 13,8 km/h (3 Bft) NO 52 0 min 0,000 mm 0,0 UV-I 26 W/m 2,4 C -1,5 C 19,3 km/h (3 Bft) 100,00 %
14.02.2016 15:58 4,0 C 89 % 989,3 hPa 0,0 l/m 14,1 km/h (3 Bft) O-NO 63 0 min 0,000 mm 0,0 UV-I 26 W/m 2,4 C -1,6 C 17,7 km/h (3 Bft) 95,65 %
14.02.2016 15:59 4,0 C 89 % 989,3 hPa 0,0 l/m 10,5 km/h (2 Bft) O-NO 63 0 min 0,000 mm 0,0 UV-I 25 W/m 2,4 C 0,6 C 16,1 km/h (3 Bft) 100,00 %
14.02.2016 16:00 4,0 C 89 % 989,3 hPa 0,0 l/m 13,3 km/h (3 Bft) O-NO 69 0 min 0,026 mm 0,0 UV-I 24 W/m 2,4 C -1,2 C 16,1 km/h (3 Bft) 95,65 %
14.02.2016 16:01 4,0 C 89 % 989,2 hPa 0,0 l/m 13,4 km/h (3 Bft) NO 54 0 min 0,000 mm 0,0 UV-I 23 W/m 2,4 C -1,2 C 17,7 km/h (3 Bft) 100,00 %
14.02.2016 16:02 4,0 C 89 % 989,1 hPa 0,0 l/m 10,7 km/h (2 Bft) NO 49 0 min 0,000 mm 0,0 UV-I 23 W/m 2,4 C 0,5 C 14,5 km/h (3 Bft) 100,00 %
14.02.2016 16:03 4,0 C 89 % 989,1 hPa 0,0 l/m 13,9 km/h (3 Bft) NO 37 0 min 0,000 mm 0,0 UV-I 23 W/m 2,4 C -1,5 C 17,7 km/h (3 Bft) 100,00 %
14.02.2016 16:04 3,9 C 89 % 989,2 hPa 0,0 l/m 10,1 km/h (2 Bft) O-NO 61 0 min 0,000 mm 0,0 UV-I 25 W/m 2,3 C 0,8 C 16,1 km/h (3 Bft) 100,00 %
14.02.2016 16:05 3,9 C 90 % 989,3 hPa 0,0 l/m 9,6 km/h (2 Bft) O-NO 58 0 min 0,000 mm 0,0 UV-I 25 W/m 2,4 C 1,2 C 14,5 km/h (3 Bft) 100,00 %
14.02.2016 16:06 3,9 C 90 % 989,4 hPa 0,0 l/m 12,5 km/h (3 Bft) O-NO 67 0 min 0,000 mm 0,0 UV-I 25 W/m 2,4 C -0,8 C 16,1 km/h (3 Bft) 100,00 %
14.02.2016 16:07 3,9 C 90 % 989,3 hPa 0,0 l/m 11,5 km/h (2 Bft) O-NO 60 0 min 0,000 mm 0,0 UV-I 25 W/m 2,4 C -0,2 C 14,5 km/h (3 Bft) 100,00 %
14.02.2016 16:08 3,9 C 90 % 989,3 hPa 0,0 l/m 11,6 km/h (2 Bft) NO 36 0 min 0,000 mm 0,0 UV-I 25 W/m 2,4 C -0,3 C 16,1 km/h (3 Bft) 100,00 %
14.02.2016 16:09 3,9 C 90 % 989,3 hPa 0,0 l/m 9,4 km/h (2 Bft) O-NO 63 0 min 0,000 mm 0,0 UV-I 25 W/m 2,4 C 1,3 C 14,5 km/h (3 Bft) 100,00 %
14.02.2016 16:10 3,8 C 90 % 989,3 hPa 0,0 l/m 11,4 km/h (2 Bft) O-NO 70 0 min 0,000 mm 0,0 UV-I 25 W/m 2,3 C -0,2 C 16,1 km/h (3 Bft) 100,00 %
14.02.2016 16:11 3,8 C 90 % 989,3 hPa 0,0 l/m 8,5 km/h (2 Bft) O-NO 59 0 min 0,000 mm 0,0 UV-I 25 W/m 2,3 C 1,9 C 11,3 km/h (2 Bft) 100,00 %
14.02.2016 16:12 3,8 C 90 % 989,3 hPa 0,0 l/m 12,4 km/h (3 Bft) NO 42 0 min 0,000 mm 0,0 UV-I 26 W/m 2,3 C -0,9 C 16,1 km/h (3 Bft) 100,00 %
14.02.2016 16:13 3,8 C 90 % 989,3 hPa 0,0 l/m 15,7 km/h (3 Bft) O-NO 61 0 min 0,000 mm 0,0 UV-I 26 W/m 2,3 C -2,7 C 19,3 km/h (3 Bft) 100,00 %
14.02.2016 16:14 3,8 C 90 % 989,3 hPa 0,0 l/m 12,7 km/h (3 Bft) NO 56 0 min 0,000 mm 0,0 UV-I 26 W/m 2,3 C -1,1 C 17,7 km/h (3 Bft) 100,00 %
14.02.2016 16:15 3,8 C 90 % 989,3 hPa 0,0 l/m 14,3 km/h (3 Bft) NO 52 0 min 0,000 mm 0,0 UV-I 26 W/m 2,3 C -2,0 C 17,7 km/h (3 Bft) 100,00 %
14.02.2016 16:16 3,8 C 90 % 989,3 hPa 0,0 l/m 12,2 km/h (2 Bft) O-NO 64 0 min 0,000 mm 0,0 UV-I 26 W/m 2,3 C -0,8 C 16,1 km/h (3 Bft) 100,00 %
14.02.2016 16:17 3,8 C 90 % 989,3 hPa 0,0 l/m 10,3 km/h (2 Bft) O-NO 73 0 min 0,000 mm 0,0 UV-I 26 W/m 2,3 C 0,5 C 14,5 km/h (3 Bft) 100,00 %
14.02.2016 16:18 3,8 C 91 % 989,2 hPa 0,0 l/m 10,3 km/h (2 Bft) NO 44 0 min 0,000 mm 0,0 UV-I 26 W/m 2,5 C 0,5 C 14,5 km/h (3 Bft) 100,00 %
14.02.2016 16:19 3,8 C 91 % 989,2 hPa 0,0 l/m 10,9 km/h (2 Bft) NO 39 0 min 0,000 mm 0,0 UV-I 26 W/m 2,5 C 0,1 C 14,5 km/h (3 Bft) 96,15 %
14.02.2016 16:20 3,8 C 91 % 989,2 hPa 0,0 l/m 17,2 km/h (3 Bft) O-NO 59 0 min 0,000 mm 0,0 UV-I 26 W/m 2,5 C -3,5 C 22,5 km/h (4 Bft) 100,00 %
14.02.2016 16:21 3,8 C 91 % 989,2 hPa 0,0 l/m 13,6 km/h (3 Bft) NO 56 0 min 0,000 mm 0,0 UV-I 26 W/m 2,5 C -1,6 C 17,7 km/h (3 Bft) 100,00 %
14.02.2016 16:22 3,8 C 91 % 989,2 hPa 0,0 l/m 10,4 km/h (2 Bft) O-NO 67 0 min 0,000 mm 0,0 UV-I 26 W/m 2,5 C 0,5 C 17,7 km/h (3 Bft) 100,00 %
14.02.2016 16:23 3,8 C 91 % 989,2 hPa 0,0 l/m 9,2 km/h (2 Bft) NO 53 0 min 0,000 mm 0,0 UV-I 26 W/m 2,5 C 1,4 C 12,9 km/h (3 Bft) 100,00 %
14.02.2016 16:24 3,8 C 91 % 989,2 hPa 0,0 l/m 6,4 km/h (2 Bft) O-NO 61 0 min 0,000 mm 0,0 UV-I 26 W/m 2,5 C 3,8 C 8,0 km/h (2 Bft) 100,00 %
14.02.2016 16:25 3,8 C 91 % 989,2 hPa 0,0 l/m 8,4 km/h (2 Bft) NO 53 0 min 0,000 mm 0,0 UV-I 26 W/m 2,5 C 2,0 C 14,5 km/h (3 Bft) 100,00 %
14.02.2016 16:26 3,8 C 91 % 989,2 hPa 0,0 l/m 10,9 km/h (2 Bft) O-NO 69 0 min 0,000 mm 0,0 UV-I 26 W/m 2,5 C 0,1 C 12,9 km/h (3 Bft) 100,00 %
14.02.2016 16:27 3,8 C 91 % 989,2 hPa 0,0 l/m 8,5 km/h (2 Bft) O-NO 64 0 min 0,000 mm 0,0 UV-I 26 W/m 2,5 C 1,9 C 9,7 km/h (2 Bft) 96,15 %
14.02.2016 16:28 3,8 C 91 % 989,2 hPa 0,0 l/m 8,2 km/h (2 Bft) NO 51 0 min 0,000 mm 0,0 UV-I 26 W/m 2,5 C 2,2 C 11,3 km/h (2 Bft) 100,00 %
14.02.2016 16:29 3,8 C 91 % 989,2 hPa 0,0 l/m 12,7 km/h (3 Bft) O 90 0 min 0,000 mm 0,0 UV-I 25 W/m 2,5 C -1,1 C 16,1 km/h (3 Bft) 100,00 %
14.02.2016 16:30 3,8 C 91 % 989,3 hPa 0,0 l/m 10,5 km/h (2 Bft) O-NO 71 0 min 0,000 mm 0,0 UV-I 25 W/m 2,5 C 0,4 C 16,1 km/h (3 Bft) 100,00 %
14.02.2016 16:31 3,8 C 91 % 989,3 hPa 0,0 l/m 9,8 km/h (2 Bft) NO 51 0 min 0,000 mm 0,0 UV-I 25 W/m 2,5 C 0,9 C 12,9 km/h (3 Bft) 100,00 %
14.02.2016 16:32 3,8 C 91 % 989,3 hPa 0,0 l/m 8,6 km/h (2 Bft) O-NO 66 0 min 0,000 mm 0,0 UV-I 25 W/m 2,5 C 1,8 C 11,3 km/h (2 Bft) 100,00 %
14.02.2016 16:33 3,7 C 91 % 989,3 hPa 0,0 l/m 6,5 km/h (2 Bft) O-NO 73 0 min 0,000 mm 0,0 UV-I 25 W/m 2,4 C 3,6 C 8,0 km/h (2 Bft) 100,00 %
14.02.2016 16:34 3,8 C 91 % 989,4 hPa 0,0 l/m 5,6 km/h (1 Bft) O-NO 74 0 min 0,000 mm 0,0 UV-I 25 W/m 2,5 C 3,8 C 8,0 km/h (2 Bft) 100,00 %
14.02.2016 16:35 3,7 C 91 % 989,4 hPa 0,0 l/m 5,7 km/h (1 Bft) NO 42 0 min 0,000 mm 0,0 UV-I 25 W/m 2,4 C 3,7 C 8,0 km/h (2 Bft) 100,00 %
14.02.2016 16:36 3,8 C 91 % 989,4 hPa 0,0 l/m 6,3 km/h (2 Bft) O-NO 69 0 min 0,000 mm 0,0 UV-I 24 W/m 2,5 C 3,8 C 9,7 km/h (2 Bft) 100,00 %
14.02.2016 16:37 3,8 C 91 % 989,4 hPa 0,0 l/m 8,8 km/h (2 Bft) O-NO 59 0 min 0,000 mm 0,0 UV-I 23 W/m 2,5 C 1,7 C 11,3 km/h (2 Bft) 100,00 %
14.02.2016 16:38 3,7 C 91 % 989,5 hPa 0,0 l/m 5,5 km/h (1 Bft) NO 52 0 min 0,000 mm 0,0 UV-I 21 W/m 2,4 C 3,7 C 8,0 km/h (2 Bft) 100,00 %
14.02.2016 16:39 3,7 C 91 % 989,4 hPa 0,0 l/m 4,4 km/h (1 Bft) O-NO 76 0 min 0,000 mm 0,0 UV-I 21 W/m 2,4 C 3,7 C 8,0 km/h (2 Bft) 96,30 %
14.02.2016 16:40 3,7 C 91 % 989,4 hPa 0,0 l/m 7,1 km/h (2 Bft) O-NO 59 0 min 0,000 mm 0,0 UV-I 19 W/m 2,4 C 3,1 C 9,7 km/h (2 Bft) 96,55 %
14.02.2016 16:41 3,7 C 91 % 989,4 hPa 0,0 l/m 4,9 km/h (1 Bft) NO 39 0 min 0,000 mm 0,0 UV-I 19 W/m 2,4 C 3,7 C 6,4 km/h (2 Bft) 95,83 %
14.02.2016 16:42 3,7 C 91 % 989,4 hPa 0,0 l/m 4,8 km/h (1 Bft) O-NO 67 0 min 0,000 mm 0,0 UV-I 18 W/m 2,4 C 3,7 C 6,4 km/h (2 Bft) 90,91 %
14.02.2016 16:43 3,7 C 91 % 989,4 hPa 0,0 l/m 6,5 km/h (2 Bft) O-NO 62 0 min 0,000 mm 0,0 UV-I 18 W/m 2,4 C 3,6 C 9,7 km/h (2 Bft) 100,00 %
14.02.2016 16:44 3,7 C 91 % 989,5 hPa 0,0 l/m 5,8 km/h (2 Bft) O 82 0 min 0,000 mm 0,0 UV-I 18 W/m 2,4 C 3,7 C 8,0 km/h (2 Bft) 100,00 %
14.02.2016 16:45 3,7 C 91 % 989,5 hPa 0,0 l/m 3,6 km/h (1 Bft) O-NO 67 0 min 0,000 mm 0,0 UV-I 17 W/m 2,4 C 3,7 C 4,8 km/h (1 Bft) 100,00 %
14.02.2016 16:46 3,7 C 91 % 989,5 hPa 0,0 l/m 2,5 km/h (1 Bft) N-NO 26 0 min 0,000 mm 0,0 UV-I 16 W/m 2,4 C 3,7 C 4,8 km/h (1 Bft) 100,00 %
14.02.2016 16:47 3,7 C 91 % 989,5 hPa 0,0 l/m 4,9 km/h (1 Bft) NO 38 0 min 0,000 mm 0,0 UV-I 16 W/m 2,4 C 3,7 C 8,0 km/h (2 Bft) 100,00 %
14.02.2016 16:48 3,7 C 92 % 989,5 hPa 0,0 l/m 5,1 km/h (1 Bft) NO 52 0 min 0,000 mm 0,0 UV-I 16 W/m 2,5 C 3,7 C 6,4 km/h (2 Bft) 100,00 %
14.02.2016 16:49 3,7 C 91 % 989,5 hPa 0,0 l/m 4,2 km/h (1 Bft) O-NO 61 0 min 0,000 mm 0,0 UV-I 16 W/m 2,4 C 3,7 C 4,8 km/h (1 Bft) 100,00 %
14.02.2016 16:50 3,7 C 91 % 989,5 hPa 0,0 l/m 5,5 km/h (1 Bft) O-NO 64 0 min 0,000 mm 0,0 UV-I 16 W/m 2,4 C 3,7 C 6,4 km/h (2 Bft) 100,00 %
14.02.2016 16:51 3,7 C 92 % 989,4 hPa 0,0 l/m 8,7 km/h (2 Bft) O-NO 78 0 min 0,000 mm 0,0 UV-I 15 W/m 2,5 C 1,6 C 12,9 km/h (3 Bft) 100,00 %
14.02.2016 16:52 3,7 C 91 % 989,3 hPa 0,0 l/m 9,3 km/h (2 Bft) O 79 0 min 0,000 mm 0,0 UV-I 14 W/m 2,4 C 1,2 C 12,9 km/h (3 Bft) 100,00 %
14.02.2016 16:53 3,7 C 92 % 989,3 hPa 0,0 l/m 9,4 km/h (2 Bft) NO 50 0 min 0,000 mm 0,0 UV-I 14 W/m 2,5 C 1,1 C 16,1 km/h (3 Bft) 100,00 %
14.02.2016 16:54 3,7 C 91 % 989,3 hPa 0,0 l/m 11,6 km/h (2 Bft) O 80 0 min 0,000 mm 0,0 UV-I 14 W/m 2,4 C -0,5 C 14,5 km/h (3 Bft) 100,00 %
14.02.2016 16:55 3,7 C 91 % 989,3 hPa 0,0 l/m 12,3 km/h (3 Bft) NO 51 0 min 0,000 mm 0,0 UV-I 14 W/m 2,4 C -0,9 C 16,1 km/h (3 Bft) 100,00 %
14.02.2016 16:56 3,7 C 91 % 989,3 hPa 0,0 l/m 14,7 km/h (3 Bft) O-NO 73 0 min 0,000 mm 0,0 UV-I 12 W/m 2,4 C -2,3 C 20,9 km/h (4 Bft) 96,67 %
14.02.2016 16:57 3,7 C 92 % 989,2 hPa 0,0 l/m 15,7 km/h (3 Bft) O-NO 77 0 min 0,000 mm 0,0 UV-I 12 W/m 2,5 C -2,9 C 20,9 km/h (4 Bft) 96,15 %
14.02.2016 16:58 3,7 C 92 % 989,2 hPa 0,0 l/m 12,5 km/h (3 Bft) O-NO 78 0 min 0,000 mm 0,0 UV-I 12 W/m 2,5 C -1,1 C 16,1 km/h (3 Bft) 93,33 %
14.02.2016 16:59 3,7 C 92 % 989,1 hPa 0,0 l/m 11,6 km/h (2 Bft) O-NO 57 0 min 0,000 mm 0,0 UV-I 11 W/m 2,5 C -0,5 C 16,1 km/h (3 Bft) 96,15 %
14.02.2016 17:00 3,7 C 92 % 989,1 hPa 0,0 l/m 12,4 km/h (3 Bft) NO 40 0 min 0,025 mm 0,0 UV-I 11 W/m 2,5 C -1,0 C 19,3 km/h (3 Bft) 100,00 %
14.02.2016 17:01 3,7 C 92 % 989,0 hPa 0,0 l/m 17,4 km/h (3 Bft) O-NO 69 0 min 0,000 mm 0,0 UV-I 11 W/m 2,5 C -3,7 C 20,9 km/h (4 Bft) 96,15 %
14.02.2016 17:02 3,7 C 92 % 988,9 hPa 0,0 l/m 16,5 km/h (3 Bft) O-NO 71 0 min 0,000 mm 0,0 UV-I 11 W/m 2,5 C -3,3 C 19,3 km/h (3 Bft) 100,00 %
14.02.2016 17:03 3,7 C 92 % 988,9 hPa 0,0 l/m 15,4 km/h (3 Bft) O-NO 66 0 min 0,000 mm 0,0 UV-I 11 W/m 2,5 C -2,7 C 20,9 km/h (4 Bft) 96,15 %
14.02.2016 17:04 3,7 C 92 % 988,9 hPa 0,0 l/m 13,5 km/h (3 Bft) O-NO 62 0 min 0,000 mm 0,0 UV-I 11 W/m 2,5 C -1,7 C 16,1 km/h (3 Bft) 93,33 %
14.02.2016 17:05 3,7 C 92 % 988,8 hPa 0,0 l/m 17,5 km/h (3 Bft) NO 51 0 min 0,000 mm 0,0 UV-I 11 W/m 2,5 C -3,8 C 22,5 km/h (4 Bft) 89,66 %
14.02.2016 17:06 3,7 C 92 % 988,8 hPa 0,0 l/m 18,1 km/h (3 Bft) O-NO 71 0 min 0,000 mm 0,0 UV-I 11 W/m 2,5 C -4,0 C 22,5 km/h (4 Bft) 95,83 %
14.02.2016 17:07 3,7 C 92 % 988,8 hPa 0,0 l/m 18,0 km/h (3 Bft) O 81 0 min 0,000 mm 0,0 UV-I 9 W/m 2,5 C -4,0 C 22,5 km/h (4 Bft) 100,00 %
14.02.2016 17:08 3,7 C 92 % 988,7 hPa 0,0 l/m 18,2 km/h (3 Bft) O-NO 62 0 min 0,000 mm 0,0 UV-I 9 W/m 2,5 C -4,1 C 22,5 km/h (4 Bft) 96,55 %
14.02.2016 17:09 3,7 C 92 % 988,7 hPa 0,0 l/m 17,2 km/h (3 Bft) O-NO 73 0 min 0,000 mm 0,0 UV-I 7 W/m 2,5 C -3,6 C 22,5 km/h (4 Bft) 100,00 %
14.02.2016 17:10 3,7 C 92 % 988,7 hPa 0,0 l/m 18,9 km/h (3 Bft) NO 48 0 min 0,000 mm 0,0 UV-I 6 W/m 2,5 C -4,4 C 25,7 km/h (4 Bft) 96,55 %
14.02.2016 17:11 3,7 C 92 % 988,8 hPa 0,0 l/m 18,6 km/h (3 Bft) O-NO 73 0 min 0,000 mm 0,0 UV-I 5 W/m 2,5 C -4,3 C 22,5 km/h (4 Bft) 95,65 %
14.02.2016 17:12 3,7 C 92 % 988,7 hPa 0,0 l/m 13,4 km/h (3 Bft) NO 48 0 min 0,000 mm 0,0 UV-I 5 W/m 2,5 C -1,6 C 22,5 km/h (4 Bft) 100,00 %
14.02.2016 17:13 3,7 C 92 % 988,7 hPa 0,0 l/m 8,3 km/h (2 Bft) O-NO 68 0 min 0,000 mm 0,0 UV-I 5 W/m 2,5 C 2,0 C 14,5 km/h (3 Bft) 96,30 %
14.02.2016 17:14 3,7 C 92 % 988,8 hPa 0,0 l/m 5,5 km/h (1 Bft) N 9 0 min 0,000 mm 0,0 UV-I 5 W/m 2,5 C 3,7 C 9,7 km/h (2 Bft) 100,00 %
14.02.2016 17:15 3,7 C 92 % 989,0 hPa 0,0 l/m 3,9 km/h (1 Bft) N-NO 15 0 min 0,000 mm 0,0 UV-I 4 W/m 2,5 C 3,7 C 11,3 km/h (2 Bft) 97,22 %
14.02.2016 17:16 3,7 C 92 % 989,1 hPa 0,0 l/m 4,4 km/h (1 Bft) NO 52 0 min 0,000 mm 0,0 UV-I 0 W/m 2,5 C 3,7 C 8,0 km/h (2 Bft) 100,00 %
14.02.2016 17:17 3,7 C 93 % 989,2 hPa 0,0 l/m 1,9 km/h (1 Bft) NO 34 0 min 0,000 mm 0,0 UV-I 0 W/m 2,7 C 3,7 C 4,8 km/h (1 Bft) 95,83 %
14.02.2016 17:18 3,7 C 93 % 989,2 hPa 0,0 l/m 0,9 km/h (0 Bft) N-NO 31 0 min 0,000 mm 0,0 UV-I 0 W/m 2,7 C 3,7 C 3,2 km/h (1 Bft) 95,65 %
14.02.2016 17:19 3,6 C 93 % 989,3 hPa 0,0 l/m 0,4 km/h (0 Bft) N-NO 31 0 min 0,000 mm 0,0 UV-I 0 W/m 2,6 C 3,6 C 3,2 km/h (1 Bft) 100,00 %
14.02.2016 17:20 3,6 C 93 % 989,2 hPa 0,0 l/m 6,1 km/h (2 Bft) O-NO 57 0 min 0,000 mm 0,0 UV-I 0 W/m 2,6 C 3,6 C 11,3 km/h (2 Bft) 100,00 %
14.02.2016 17:21 3,6 C 93 % 989,2 hPa 0,0 l/m 8,6 km/h (2 Bft) O-NO 61 0 min 0,000 mm 0,0 UV-I 0 W/m 2,6 C 1,6 C 11,3 km/h (2 Bft) 96,30 %
14.02.2016 17:22 3,6 C 93 % 989,2 hPa 0,0 l/m 5,4 km/h (1 Bft) NO 42 0 min 0,000 mm 0,0 UV-I 0 W/m 2,6 C 3,6 C 8,0 km/h (2 Bft) 95,65 %
14.02.2016 17:23 3,6 C 93 % 989,3 hPa 0,0 l/m 3,6 km/h (1 Bft) O 81 0 min 0,000 mm 0,0 UV-I 0 W/m 2,6 C 3,6 C 4,8 km/h (1 Bft) 100,00 %
14.02.2016 17:24 3,6 C 93 % 989,4 hPa 0,0 l/m 3,5 km/h (1 Bft) O-NO 78 0 min 0,000 mm 0,0 UV-I 0 W/m 2,6 C 3,6 C 4,8 km/h (1 Bft) 92,31 %
14.02.2016 17:25 3,6 C 93 % 989,4 hPa 0,0 l/m 3,0 km/h (1 Bft) O-NO 78 0 min 0,000 mm 0,0 UV-I 0 W/m 2,6 C 3,6 C 3,2 km/h (1 Bft) 100,00 %
14.02.2016 17:26 3,7 C 93 % 989,4 hPa 0,0 l/m 1,4 km/h (1 Bft) O-NO 78 0 min 0,000 mm 0,0 UV-I 0 W/m 2,7 C 3,7 C 3,2 km/h (1 Bft) 92,86 %
14.02.2016 17:27 3,6 C 93 % 989,4 hPa 0,0 l/m 2,7 km/h (1 Bft) O-NO 78 0 min 0,000 mm 0,0 UV-I 0 W/m 2,6 C 3,6 C 3,2 km/h (1 Bft) 96,30 %
14.02.2016 17:28 3,6 C 92 % 989,4 hPa 0,0 l/m 3,1 km/h (1 Bft) O-NO 77 0 min 0,000 mm 0,0 UV-I 0 W/m 2,4 C 3,6 C 4,8 km/h (1 Bft) 96,15 %
14.02.2016 17:29 3,6 C 93 % 989,4 hPa 0,0 l/m 5,0 km/h (1 Bft) NO 55 0 min 0,000 mm 0,0 UV-I 0 W/m 2,6 C 3,6 C 6,4 km/h (2 Bft) 100,00 %
14.02.2016 17:30 3,6 C 93 % 989,5 hPa 0,0 l/m 3,8 km/h (1 Bft) O-NO 63 0 min 0,000 mm 0,0 UV-I 0 W/m 2,6 C 3,6 C 4,8 km/h (1 Bft) 100,00 %
14.02.2016 17:31 3,6 C 93 % 989,5 hPa 0,0 l/m 2,8 km/h (1 Bft) O-NO 63 0 min 0,000 mm 0,0 UV-I 0 W/m 2,6 C 3,6 C 3,2 km/h (1 Bft) 100,00 %
14.02.2016 17:32 3,6 C 93 % 989,5 hPa 0,0 l/m 3,7 km/h (1 Bft) O-NO 63 0 min 0,000 mm 0,0 UV-I 0 W/m 2,6 C 3,6 C 4,8 km/h (1 Bft) 100,00 %
14.02.2016 17:33 3,6 C 93 % 989,5 hPa 0,0 l/m 4,6 km/h (1 Bft) O-NO 61 0 min 0,000 mm 0,0 UV-I 0 W/m 2,6 C 3,6 C 4,8 km/h (1 Bft) 96,15 %
14.02.2016 17:34 3,6 C 93 % 989,4 hPa 0,0 l/m 4,1 km/h (1 Bft) O-NO 57 0 min 0,000 mm 0,0 UV-I 0 W/m 2,6 C 3,6 C 4,8 km/h (1 Bft) 100,00 %
14.02.2016 17:35 3,6 C 93 % 989,4 hPa 0,0 l/m 3,6 km/h (1 Bft) O-NO 57 0 min 0,000 mm 0,0 UV-I 0 W/m 2,6 C 3,6 C 6,4 km/h (2 Bft) 100,00 %
14.02.2016 17:36 3,6 C 93 % 989,4 hPa 0,0 l/m 4,2 km/h (1 Bft) NO 46 0 min 0,000 mm 0,0 UV-I 0 W/m 2,6 C 3,6 C 6,4 km/h (2 Bft) 100,00 %
14.02.2016 17:37 3,6 C 93 % 989,3 hPa 0,0 l/m 4,7 km/h (1 Bft) N-NO 30 0 min 0,000 mm 0,0 UV-I 0 W/m 2,6 C 3,6 C 6,4 km/h (2 Bft) 100,00 %
14.02.2016 17:38 3,6 C 93 % 989,2 hPa 0,0 l/m 7,1 km/h (2 Bft) N-NO 29 0 min 0,000 mm 0,0 UV-I 0 W/m 2,6 C 3,0 C 8,0 km/h (2 Bft) 100,00 %
14.02.2016 17:39 3,6 C 93 % 989,2 hPa 0,0 l/m 10,9 km/h (2 Bft) N-NO 17 0 min 0,000 mm 0,0 UV-I 0 W/m 2,6 C -0,1 C 12,9 km/h (3 Bft) 100,00 %
14.02.2016 17:40 3,6 C 93 % 989,2 hPa 0,0 l/m 10,9 km/h (2 Bft) NO 44 0 min 0,000 mm 0,0 UV-I 0 W/m 2,6 C -0,1 C 16,1 km/h (3 Bft) 100,00 %
14.02.2016 17:41 3,6 C 93 % 989,2 hPa 0,0 l/m 12,4 km/h (3 Bft) N-NO 30 0 min 0,000 mm 0,0 UV-I 0 W/m 2,6 C -1,1 C 16,1 km/h (3 Bft) 100,00 %
14.02.2016 17:42 3,6 C 93 % 989,2 hPa 0,0 l/m 9,9 km/h (2 Bft) N-NO 24 0 min 0,000 mm 0,0 UV-I 0 W/m 2,6 C 0,6 C 14,5 km/h (3 Bft) 93,33 %
14.02.2016 17:43 3,6 C 93 % 989,3 hPa 0,0 l/m 9,7 km/h (2 Bft) N-NO 32 0 min 0,000 mm 0,0 UV-I 0 W/m 2,6 C 0,8 C 14,5 km/h (3 Bft) 100,00 %
14.02.2016 17:44 3,6 C 93 % 989,4 hPa 0,0 l/m 7,8 km/h (2 Bft) NO 36 0 min 0,000 mm 0,0 UV-I 0 W/m 2,6 C 2,3 C 11,3 km/h (2 Bft) 96,67 %
14.02.2016 17:45 3,6 C 93 % 989,6 hPa 0,0 l/m 4,0 km/h (1 Bft) NO 46 0 min 0,000 mm 0,0 UV-I 0 W/m 2,6 C 3,6 C 8,0 km/h (2 Bft) 100,00 %
14.02.2016 17:46 3,6 C 93 % 989,7 hPa 0,0 l/m 1,7 km/h (1 Bft) NO 46 0 min 0,000 mm 0,0 UV-I 0 W/m 2,6 C 3,6 C 3,2 km/h (1 Bft) 100,00 %
14.02.2016 17:47 3,6 C 93 % 989,7 hPa 0,0 l/m 3,9 km/h (1 Bft) W-SW 253 0 min 0,000 mm 0,0 UV-I 0 W/m 2,6 C 3,6 C 6,4 km/h (2 Bft) 95,65 %
14.02.2016 17:48 3,6 C 93 % 989,8 hPa 0,0 l/m 6,4 km/h (2 Bft) W-SW 251 0 min 0,000 mm 0,0 UV-I 0 W/m 2,6 C 3,6 C 9,7 km/h (2 Bft) 100,00 %
14.02.2016 17:49 3,6 C 93 % 989,8 hPa 0,0 l/m 6,0 km/h (2 Bft) W-NW 296 0 min 0,000 mm 0,0 UV-I 0 W/m 2,6 C 3,6 C 6,4 km/h (2 Bft) 100,00 %
14.02.2016 17:50 3,6 C 93 % 989,8 hPa 0,0 l/m 4,7 km/h (1 Bft) W-NW 293 0 min 0,000 mm 0,0 UV-I 0 W/m 2,6 C 3,6 C 6,4 km/h (2 Bft) 100,00 %
14.02.2016 17:51 3,6 C 93 % 989,9 hPa 0,0 l/m 1,5 km/h (1 Bft) W-NW 294 0 min 0,000 mm 0,0 UV-I 0 W/m 2,6 C 3,6 C 3,2 km/h (1 Bft) 100,00 %
14.02.2016 17:52 3,6 C 93 % 989,9 hPa 0,0 l/m 0,3 km/h (0 Bft) W-NW 294 0 min 0,000 mm 0,0 UV-I 0 W/m 2,6 C 3,6 C 1,6 km/h (1 Bft) 95,65 %
14.02.2016 17:53 3,6 C 93 % 989,9 hPa 0,0 l/m 2,5 km/h (1 Bft) N-NO 23 0 min 0,000 mm 0,0 UV-I 0 W/m 2,6 C 3,6 C 3,2 km/h (1 Bft) 100,00 %
14.02.2016 17:54 3,6 C 93 % 989,8 hPa 0,0 l/m 2,2 km/h (1 Bft) N 355 0 min 0,000 mm 0,0 UV-I 0 W/m 2,6 C 3,6 C 3,2 km/h (1 Bft) 100,00 %
14.02.2016 17:55 3,6 C 93 % 989,8 hPa 0,0 l/m 2,1 km/h (1 Bft) N 5 0 min 0,000 mm 0,0 UV-I 0 W/m 2,6 C 3,6 C 4,8 km/h (1 Bft) 100,00 %
14.02.2016 17:56 3,6 C 93 % 989,8 hPa 0,0 l/m 2,6 km/h (1 Bft) N 355 0 min 0,000 mm 0,0 UV-I 0 W/m 2,6 C 3,6 C 4,8 km/h (1 Bft) 100,00 %
14.02.2016 17:57 3,6 C 93 % 989,8 hPa 0,0 l/m 1,4 km/h (1 Bft) N 355 0 min 0,000 mm 0,0 UV-I 0 W/m 2,6 C 3,6 C 1,6 km/h (1 Bft) 100,00 %
14.02.2016 17:58 3,5 C 93 % 989,9 hPa 0,0 l/m 0,8 km/h (0 Bft) N 351 0 min 0,000 mm 0,0 UV-I 0 W/m 2,5 C 3,5 C 1,6 km/h (1 Bft) 96,15 %
14.02.2016 17:59 3,5 C 93 % 989,9 hPa 0,0 l/m 2,0 km/h (1 Bft) N-NW 348 0 min 0,000 mm 0,0 UV-I 0 W/m 2,5 C 3,5 C 3,2 km/h (1 Bft) 100,00 %
14.02.2016 18:00 3,5 C 93 % 989,9 hPa 0,0 l/m 0,4 km/h (0 Bft) N-NW 347 0 min 0,000 mm 0,0 UV-I 0 W/m 2,5 C 3,5 C 1,6 km/h (1 Bft) 100,00 %
14.02.2016 18:01 3,5 C 93 % 990,0 hPa 0,0 l/m 0,7 km/h (0 Bft) N-NW 347 0 min 0,000 mm 0,0 UV-I 0 W/m 2,5 C 3,5 C 1,6 km/h (1 Bft) 100,00 %
14.02.2016 18:02 3,5 C 93 % 990,0 hPa 0,0 l/m 0,5 km/h (0 Bft) N-NW 347 0 min 0,000 mm 0,0 UV-I 0 W/m 2,5 C 3,5 C 3,2 km/h (1 Bft) 100,00 %
14.02.2016 18:03 3,4 C 93 % 990,0 hPa 0,0 l/m 2,3 km/h (1 Bft) N 350 0 min 0,000 mm 0,0 UV-I 0 W/m 2,4 C 3,4 C 4,8 km/h (1 Bft) 100,00 %
14.02.2016 18:04 3,4 C 93 % 990,1 hPa 0,0 l/m 0,8 km/h (0 Bft) N 350 0 min 0,000 mm 0,0 UV-I 0 W/m 2,4 C 3,4 C 1,6 km/h (1 Bft) 100,00 %
14.02.2016 18:05 3,4 C 93 % 990,1 hPa 0,0 l/m 0,2 km/h (0 Bft) N 350 0 min 0,000 mm 0,0 UV-I 0 W/m 2,4 C 3,4 C 1,6 km/h (1 Bft) 100,00 %
14.02.2016 18:06 3,4 C 93 % 990,1 hPa 0,0 l/m 0,0 km/h (0 Bft) N 350 0 min 0,000 mm 0,0 UV-I 0 W/m 2,4 C 3,4 C 0,0 km/h (0 Bft) 100,00 %
14.02.2016 18:07 3,4 C 94 % 990,1 hPa 0,0 l/m 0,0 km/h (0 Bft) N 350 0 min 0,000 mm 0,0 UV-I 0 W/m 2,5 C 3,4 C 0,0 km/h (0 Bft) 100,00 %
14.02.2016 18:08 3,4 C 93 % 990,2 hPa 0,0 l/m 0,0 km/h (0 Bft) N 350 0 min 0,000 mm 0,0 UV-I 0 W/m 2,4 C 3,4 C 0,0 km/h (0 Bft) 95,65 %
14.02.2016 18:09 3,3 C 94 % 990,2 hPa 0,0 l/m 0,1 km/h (0 Bft) N 350 0 min 0,000 mm 0,0 UV-I 0 W/m 2,4 C 3,3 C 1,6 km/h (1 Bft) 100,00 %
14.02.2016 18:10 3,3 C 94 % 990,3 hPa 0,0 l/m 0,2 km/h (0 Bft) N 350 0 min 0,000 mm 0,0 UV-I 0 W/m 2,4 C 3,3 C 1,6 km/h (1 Bft) 100,00 %
14.02.2016 18:11 3,3 C 94 % 990,3 hPa 0,0 l/m 0,0 km/h (0 Bft) N 350 0 min 0,000 mm 0,0 UV-I 0 W/m 2,4 C 3,3 C 0,0 km/h (0 Bft) 100,00 %
14.02.2016 18:12 3,3 C 94 % 990,2 hPa 0,0 l/m 0,0 km/h (0 Bft) N 350 0 min 0,000 mm 0,0 UV-I 0 W/m 2,4 C 3,3 C 0,0 km/h (0 Bft) 95,65 %
14.02.2016 18:13 3,3 C 94 % 990,3 hPa 0,0 l/m 0,5 km/h (0 Bft) N 350 0 min 0,000 mm 0,0 UV-I 0 W/m 2,4 C 3,3 C 1,6 km/h (1 Bft) 100,00 %
14.02.2016 18:14 3,2 C 94 % 990,3 hPa 0,0 l/m 1,2 km/h (1 Bft) N 350 0 min 0,000 mm 0,0 UV-I 0 W/m 2,3 C 3,2 C 1,6 km/h (1 Bft) 100,00 %
14.02.2016 18:15 3,2 C 94 % 990,3 hPa 0,0 l/m 0,9 km/h (0 Bft) N 350 0 min 0,000 mm 0,0 UV-I 0 W/m 2,3 C 3,2 C 1,6 km/h (1 Bft) 100,00 %
14.02.2016 18:16 3,2 C 94 % 990,3 hPa 0,0 l/m 0,6 km/h (0 Bft) N 350 0 min 0,000 mm 0,0 UV-I 0 W/m 2,3 C 3,2 C 1,6 km/h (1 Bft) 100,00 %
14.02.2016 18:17 3,2 C 94 % 990,3 hPa 0,0 l/m 0,2 km/h (0 Bft) N 350 0 min 0,000 mm 0,0 UV-I 0 W/m 2,3 C 3,2 C 1,6 km/h (1 Bft) 100,00 %
14.02.2016 18:18 3,1 C 94 % 990,4 hPa 0,0 l/m 0,0 km/h (0 Bft) N 350 0 min 0,000 mm 0,0 UV-I 0 W/m 2,2 C 3,1 C 0,0 km/h (0 Bft) 100,00 %
14.02.2016 18:19 3,1 C 94 % 990,4 hPa 0,0 l/m 1,3 km/h (1 Bft) N-NW 344 0 min 0,000 mm 0,0 UV-I 0 W/m 2,2 C 3,1 C 3,2 km/h (1 Bft) 100,00 %
14.02.2016 18:20 3,1 C 94 % 990,4 hPa 0,0 l/m 0,8 km/h (0 Bft) N-NW 344 0 min 0,000 mm 0,0 UV-I 0 W/m 2,2 C 3,1 C 1,6 km/h (1 Bft) 100,00 %
14.02.2016 18:21 3,1 C 94 % 990,5 hPa 0,0 l/m 0,0 km/h (0 Bft) N-NW 344 0 min 0,000 mm 0,0 UV-I 0 W/m 2,2 C 3,1 C 0,0 km/h (0 Bft) 100,00 %
14.02.2016 18:22 3,0 C 94 % 990,5 hPa 0,0 l/m 0,1 km/h (0 Bft) N-NW 344 0 min 0,000 mm 0,0 UV-I 0 W/m 2,1 C 3,0 C 1,6 km/h (1 Bft) 100,00 %
14.02.2016 18:23 3,0 C 94 % 990,5 hPa 0,0 l/m 0,1 km/h (0 Bft) N-NW 344 0 min 0,000 mm 0,0 UV-I 0 W/m 2,1 C 3,0 C 1,6 km/h (1 Bft) 100,00 %
14.02.2016 18:24 3,0 C 94 % 990,6 hPa 0,0 l/m 1,3 km/h (1 Bft) N-NW 344 0 min 0,000 mm 0,0 UV-I 0 W/m 2,1 C 3,0 C 3,2 km/h (1 Bft) 100,00 %
14.02.2016 18:25 2,9 C 94 % 990,6 hPa 0,0 l/m 3,1 km/h (1 Bft) W-SW 250 0 min 0,000 mm 0,0 UV-I 0 W/m 2,0 C 2,9 C 4,8 km/h (1 Bft) 92,86 %
14.02.2016 18:26 2,9 C 94 % 990,8 hPa 0,0 l/m 3,0 km/h (1 Bft) W-SW 250 0 min 0,000 mm 0,0 UV-I 0 W/m 2,0 C 2,9 C 4,8 km/h (1 Bft) 100,00 %
14.02.2016 18:27 2,9 C 95 % 990,8 hPa 0,0 l/m 1,4 km/h (1 Bft) W-SW 250 0 min 0,000 mm 0,0 UV-I 0 W/m 2,2 C 2,9 C 3,2 km/h (1 Bft) 100,00 %
14.02.2016 18:28 2,9 C 95 % 990,8 hPa 0,0 l/m 2,3 km/h (1 Bft) W 280 0 min 0,000 mm 0,0 UV-I 0 W/m 2,2 C 2,9 C 3,2 km/h (1 Bft) 100,00 %
14.02.2016 18:29 2,9 C 95 % 990,7 hPa 0,0 l/m 1,5 km/h (1 Bft) N 350 0 min 0,000 mm 0,0 UV-I 0 W/m 2,2 C 2,9 C 3,2 km/h (1 Bft) 100,00 %
14.02.2016 18:30 2,9 C 95 % 990,8 hPa 0,0 l/m 3,1 km/h (1 Bft) N-NW 339 0 min 0,000 mm 0,0 UV-I 0 W/m 2,2 C 2,9 C 4,8 km/h (1 Bft) 100,00 %
14.02.2016 18:31 2,9 C 95 % 990,8 hPa 0,0 l/m 0,6 km/h (0 Bft) N-NW 329 0 min 0,000 mm 0,0 UV-I 0 W/m 2,2 C 2,9 C 1,6 km/h (1 Bft) 100,00 %
14.02.2016 18:32 2,9 C 95 % 990,9 hPa 0,0 l/m 0,7 km/h (0 Bft) N-NW 329 0 min 0,000 mm 0,0 UV-I 0 W/m 2,2 C 2,9 C 1,6 km/h (1 Bft) 100,00 %
14.02.2016 18:33 2,9 C 95 % 990,9 hPa 0,0 l/m 0,7 km/h (0 Bft) N-NW 329 0 min 0,000 mm 0,0 UV-I 0 W/m 2,2 C 2,9 C 3,2 km/h (1 Bft) 100,00 %
14.02.2016 18:34 2,9 C 95 % 990,9 hPa 0,0 l/m 1,7 km/h (1 Bft) N-NW 329 0 min 0,000 mm 0,0 UV-I 0 W/m 2,2 C 2,9 C 3,2 km/h (1 Bft) 95,65 %
14.02.2016 18:35 2,9 C 95 % 990,9 hPa 0,0 l/m 1,0 km/h (0 Bft) N-NW 329 0 min 0,000 mm 0,0 UV-I 0 W/m 2,2 C 2,9 C 3,2 km/h (1 Bft) 100,00 %
14.02.2016 18:36 2,9 C 95 % 990,9 hPa 0,0 l/m 0,6 km/h (0 Bft) NW 326 0 min 0,000 mm 0,0 UV-I 0 W/m 2,2 C 2,9 C 1,6 km/h (1 Bft) 100,00 %
14.02.2016 18:37 2,9 C 95 % 990,9 hPa 0,0 l/m 0,2 km/h (0 Bft) NW 325 0 min 0,000 mm 0,0 UV-I 0 W/m 2,2 C 2,9 C 1,6 km/h (1 Bft) 93,33 %
14.02.2016 18:38 2,9 C 95 % 990,8 hPa 0,0 l/m 0,1 km/h (0 Bft) NW 325 0 min 0,000 mm 0,0 UV-I 0 W/m 2,2 C 2,9 C 1,6 km/h (1 Bft) 100,00 %
14.02.2016 18:40 2,9 C 95 % 990,9 hPa 0,0 l/m 0,0 km/h (0 Bft) NW 315 0 min 0,000 mm 0,0 UV-I 0 W/m 2,2 C 2,9 C 1,6 km/h (1 Bft) 100,00 %
14.02.2016 18:43 2,9 C 95 % 991,0 hPa 0,0 l/m 0,0 km/h (0 Bft) NW 325 0 min 0,000 mm 0,0 UV-I 0 W/m 2,2 C 2,9 C 0,0 km/h (0 Bft) 99,17 %
14.02.2016 18:44 2,9 C 95 % 991,1 hPa 0,0 l/m 0,2 km/h (0 Bft) NW 325 0 min 0,000 mm 0,0 UV-I 0 W/m 2,2 C 2,9 C 1,6 km/h (1 Bft) 100,00 %
14.02.2016 18:45 2,9 C 95 % 991,2 hPa 0,0 l/m 2,3 km/h (1 Bft) W-SW 255 0 min 0,000 mm 0,0 UV-I 0 W/m 2,2 C 2,9 C 3,2 km/h (1 Bft) 96,30 %
14.02.2016 18:46 2,9 C 95 % 991,2 hPa 0,0 l/m 5,6 km/h (1 Bft) W-SW 247 0 min 0,000 mm 0,0 UV-I 0 W/m 2,2 C 2,9 C 8,0 km/h (2 Bft) 92,86 %
14.02.2016 18:47 2,9 C 95 % 991,3 hPa 0,0 l/m 4,1 km/h (1 Bft) W-SW 248 0 min 0,000 mm 0,0 UV-I 0 W/m 2,2 C 2,9 C 6,4 km/h (2 Bft) 100,00 %
14.02.2016 18:48 2,9 C 95 % 991,3 hPa 0,0 l/m 1,3 km/h (1 Bft) W-SW 248 0 min 0,000 mm 0,0 UV-I 0 W/m 2,2 C 2,9 C 1,6 km/h (1 Bft) 100,00 %
14.02.2016 18:49 2,9 C 95 % 991,3 hPa 0,0 l/m 0,7 km/h (0 Bft) W-SW 248 0 min 0,000 mm 0,0 UV-I 0 W/m 2,2 C 2,9 C 3,2 km/h (1 Bft) 100,00 %
14.02.2016 18:50 2,9 C 95 % 991,4 hPa 0,0 l/m 0,1 km/h (0 Bft) W-SW 248 0 min 0,000 mm 0,0 UV-I 0 W/m 2,2 C 2,9 C 1,6 km/h (1 Bft) 100,00 %
14.02.2016 18:51 2,9 C 95 % 991,5 hPa 0,0 l/m 0,7 km/h (0 Bft) W-SW 248 0 min 0,000 mm 0,0 UV-I 0 W/m 2,2 C 2,9 C 3,2 km/h (1 Bft) 100,00 %
14.02.2016 18:52 2,9 C 95 % 991,6 hPa 0,0 l/m 5,7 km/h (1 Bft) W-SW 250 0 min 0,000 mm 0,0 UV-I 0 W/m 2,2 C 2,9 C 9,7 km/h (2 Bft) 100,00 %
14.02.2016 18:53 2,9 C 95 % 991,6 hPa 0,0 l/m 5,0 km/h (1 Bft) S-SW 198 0 min 0,000 mm 0,0 UV-I 0 W/m 2,2 C 2,9 C 8,0 km/h (2 Bft) 100,00 %
14.02.2016 18:54 2,9 C 95 % 991,6 hPa 0,0 l/m 2,3 km/h (1 Bft) SW 214 0 min 0,000 mm 0,0 UV-I 0 W/m 2,2 C 2,9 C 3,2 km/h (1 Bft) 100,00 %
14.02.2016 18:55 3,0 C 95 % 991,6 hPa 0,0 l/m 1,1 km/h (1 Bft) SW 214 0 min 0,000 mm 0,0 UV-I 0 W/m 2,3 C 3,0 C 3,2 km/h (1 Bft) 100,00 %
14.02.2016 18:56 3,0 C 95 % 991,5 hPa 0,0 l/m 1,0 km/h (0 Bft) SW 214 0 min 0,000 mm 0,0 UV-I 0 W/m 2,3 C 3,0 C 3,2 km/h (1 Bft) 100,00 %
14.02.2016 18:57 3,0 C 95 % 991,5 hPa 0,0 l/m 0,6 km/h (0 Bft) SW 214 0 min 0,000 mm 0,0 UV-I 0 W/m 2,3 C 3,0 C 1,6 km/h (1 Bft) 100,00 %
14.02.2016 18:58 3,0 C 95 % 991,6 hPa 0,0 l/m 0,0 km/h (0 Bft) SW 214 0 min 0,000 mm 0,0 UV-I 0 W/m 2,3 C 3,0 C 0,0 km/h (0 Bft) 100,00 %
14.02.2016 18:59 3,0 C 95 % 991,5 hPa 0,0 l/m 0,0 km/h (0 Bft) SW 214 0 min 0,000 mm 0,0 UV-I 0 W/m 2,3 C 3,0 C 0,0 km/h (0 Bft) 93,33 %
14.02.2016 19:00 3,0 C 95 % 991,6 hPa 0,0 l/m 1,4 km/h (1 Bft) SW 214 0 min 0,000 mm 0,0 UV-I 0 W/m 2,3 C 3,0 C 3,2 km/h (1 Bft) 100,00 %
14.02.2016 19:01 3,0 C 95 % 991,6 hPa 0,0 l/m 2,5 km/h (1 Bft) SW 214 0 min 0,000 mm 0,0 UV-I 0 W/m 2,3 C 3,0 C 4,8 km/h (1 Bft) 95,65 %
14.02.2016 19:02 3,0 C 95 % 991,6 hPa 0,0 l/m 0,8 km/h (0 Bft) SW 214 0 min 0,000 mm 0,0 UV-I 0 W/m 2,3 C 3,0 C 3,2 km/h (1 Bft) 100,00 %
14.02.2016 19:03 3,0 C 95 % 991,6 hPa 0,0 l/m 0,1 km/h (0 Bft) SW 214 0 min 0,000 mm 0,0 UV-I 0 W/m 2,3 C 3,0 C 1,6 km/h (1 Bft) 92,31 %
14.02.2016 19:04 3,1 C 95 % 991,6 hPa 0,0 l/m 0,1 km/h (0 Bft) SW 214 0 min 0,000 mm 0,0 UV-I 0 W/m 2,4 C 3,1 C 1,6 km/h (1 Bft) 95,83 %
14.02.2016 19:05 3,1 C 95 % 991,7 hPa 0,0 l/m 1,7 km/h (1 Bft) SW 214 0 min 0,000 mm 0,0 UV-I 0 W/m 2,4 C 3,1 C 3,2 km/h (1 Bft) 100,00 %
14.02.2016 19:06 3,0 C 95 % 991,8 hPa 0,0 l/m 1,4 km/h (1 Bft) SW 214 0 min 0,000 mm 0,0 UV-I 0 W/m 2,3 C 3,0 C 3,2 km/h (1 Bft) 100,00 %
14.02.2016 19:07 3,1 C 95 % 991,8 hPa 0,0 l/m 0,0 km/h (0 Bft) SW 214 0 min 0,000 mm 0,0 UV-I 0 W/m 2,4 C 3,1 C 0,0 km/h (0 Bft) 92,31 %
14.02.2016 19:08 3,1 C 95 % 991,8 hPa 0,0 l/m 0,1 km/h (0 Bft) SW 214 0 min 0,000 mm 0,0 UV-I 0 W/m 2,4 C 3,1 C 1,6 km/h (1 Bft) 96,30 %
14.02.2016 19:09 3,1 C 95 % 991,9 hPa 0,0 l/m 0,0 km/h (0 Bft) SW 214 0 min 0,000 mm 0,0 UV-I 0 W/m 2,4 C 3,1 C 0,0 km/h (0 Bft) 100,00 %
14.02.2016 19:10 3,1 C 94 % 991,9 hPa 0,0 l/m 0,2 km/h (0 Bft) SW 214 0 min 0,000 mm 0,0 UV-I 0 W/m 2,2 C 3,1 C 1,6 km/h (1 Bft) 95,83 %
14.02.2016 19:11 3,0 C 94 % 991,9 hPa 0,0 l/m 0,9 km/h (0 Bft) SW 214 0 min 0,000 mm 0,0 UV-I 0 W/m 2,1 C 3,0 C 3,2 km/h (1 Bft) 96,15 %
14.02.2016 19:12 3,0 C 94 % 991,9 hPa 0,0 l/m 1,9 km/h (1 Bft) SW 214 0 min 0,000 mm 0,0 UV-I 0 W/m 2,1 C 3,0 C 3,2 km/h (1 Bft) 95,83 %
14.02.2016 19:13 3,0 C 94 % 991,9 hPa 0,0 l/m 3,0 km/h (1 Bft) SW 214 0 min 0,000 mm 0,0 UV-I 0 W/m 2,1 C 3,0 C 3,2 km/h (1 Bft) 100,00 %
14.02.2016 19:14 3,0 C 94 % 992,0 hPa 0,0 l/m 2,0 km/h (1 Bft) SW 214 0 min 0,000 mm 0,0 UV-I 0 W/m 2,1 C 3,0 C 3,2 km/h (1 Bft) 92,86 %
14.02.2016 19:15 3,0 C 94 % 992,0 hPa 0,0 l/m 2,8 km/h (1 Bft) SW 214 0 min 0,000 mm 0,0 UV-I 0 W/m 2,1 C 3,0 C 3,2 km/h (1 Bft) 97,37 %
14.02.2016 19:16 3,0 C 94 % 992,0 hPa 0,0 l/m 2,2 km/h (1 Bft) SW 214 0 min 0,000 mm 0,0 UV-I 0 W/m 2,1 C 3,0 C 3,2 km/h (1 Bft) 100,00 %
14.02.2016 19:17 3,0 C 94 % 992,0 hPa 0,0 l/m 2,6 km/h (1 Bft) SW 214 0 min 0,000 mm 0,0 UV-I 0 W/m 2,1 C 3,0 C 4,8 km/h (1 Bft) 96,15 %
14.02.2016 19:18 3,0 C 94 % 992,1 hPa 0,0 l/m 4,8 km/h (1 Bft) SW 223 0 min 0,000 mm 0,0 UV-I 0 W/m 2,1 C 3,0 C 6,4 km/h (2 Bft) 100,00 %
14.02.2016 19:19 3,0 C 94 % 992,1 hPa 0,0 l/m 5,8 km/h (2 Bft) SW 223 0 min 0,000 mm 0,0 UV-I 0 W/m 2,1 C 3,0 C 8,0 km/h (2 Bft) 93,33 %
14.02.2016 19:20 2,9 C 94 % 992,1 hPa 0,0 l/m 6,0 km/h (2 Bft) S-SW 204 0 min 0,000 mm 0,0 UV-I 0 W/m 2,0 C 2,9 C 8,0 km/h (2 Bft) 100,00 %
14.02.2016 19:21 2,9 C 94 % 992,2 hPa 0,0 l/m 3,2 km/h (1 Bft) S-SW 207 0 min 0,000 mm 0,0 UV-I 0 W/m 2,0 C 2,9 C 4,8 km/h (1 Bft) 96,15 %
14.02.2016 19:22 2,9 C 95 % 992,2 hPa 0,0 l/m 4,1 km/h (1 Bft) SW 232 0 min 0,000 mm 0,0 UV-I 0 W/m 2,2 C 2,9 C 4,8 km/h (1 Bft) 100,00 %
14.02.2016 19:23 2,9 C 95 % 992,3 hPa 0,0 l/m 4,9 km/h (1 Bft) S-SW 213 0 min 0,000 mm 0,0 UV-I 0 W/m 2,2 C 2,9 C 8,0 km/h (2 Bft) 95,83 %
14.02.2016 19:24 2,9 C 95 % 992,2 hPa 0,0 l/m 5,8 km/h (2 Bft) W-SW 252 0 min 0,000 mm 0,0 UV-I 0 W/m 2,2 C 2,9 C 8,0 km/h (2 Bft) 91,30 %
14.02.2016 19:25 2,9 C 95 % 992,3 hPa 0,0 l/m 6,3 km/h (2 Bft) W-SW 247 0 min 0,000 mm 0,0 UV-I 0 W/m 2,2 C 2,9 C 8,0 km/h (2 Bft) 100,00 %
14.02.2016 19:26 2,9 C 95 % 992,2 hPa 0,0 l/m 5,8 km/h (2 Bft) W 264 0 min 0,000 mm 0,0 UV-I 0 W/m 2,2 C 2,9 C 9,7 km/h (2 Bft) 92,86 %
14.02.2016 19:27 3,0 C 95 % 992,3 hPa 0,0 l/m 5,6 km/h (1 Bft) SW 228 0 min 0,000 mm 0,0 UV-I 0 W/m 2,3 C 3,0 C 9,7 km/h (2 Bft) 100,00 %
14.02.2016 19:28 3,0 C 95 % 992,3 hPa 0,0 l/m 4,8 km/h (1 Bft) W-SW 256 0 min 0,000 mm 0,0 UV-I 0 W/m 2,3 C 3,0 C 8,0 km/h (2 Bft) 100,00 %
14.02.2016 19:29 3,0 C 95 % 992,3 hPa 0,0 l/m 5,5 km/h (1 Bft) W-SW 243 0 min 0,000 mm 0,0 UV-I 0 W/m 2,3 C 3,0 C 8,0 km/h (2 Bft) 92,59 %
14.02.2016 19:30 3,0 C 95 % 992,3 hPa 0,0 l/m 4,5 km/h (1 Bft) W-SW 248 0 min 0,000 mm 0,0 UV-I 0 W/m 2,3 C 3,0 C 6,4 km/h (2 Bft) 100,00 %
14.02.2016 19:31 3,0 C 95 % 992,3 hPa 0,0 l/m 4,3 km/h (1 Bft) W-SW 245 0 min 0,000 mm 0,0 UV-I 0 W/m 2,3 C 3,0 C 6,4 km/h (2 Bft) 100,00 %
14.02.2016 19:32 3,1 C 95 % 992,4 hPa 0,0 l/m 4,9 km/h (1 Bft) W-SW 244 0 min 0,000 mm 0,0 UV-I 0 W/m 2,4 C 3,1 C 6,4 km/h (2 Bft) 96,15 %
14.02.2016 19:33 3,1 C 95 % 992,4 hPa 0,0 l/m 5,9 km/h (2 Bft) W-SW 243 0 min 0,000 mm 0,0 UV-I 0 W/m 2,4 C 3,1 C 8,0 km/h (2 Bft) 100,00 %
14.02.2016 19:34 3,1 C 95 % 992,4 hPa 0,0 l/m 5,6 km/h (1 Bft) W-SW 242 0 min 0,000 mm 0,0 UV-I 0 W/m 2,4 C 3,1 C 8,0 km/h (2 Bft) 100,00 %
14.02.2016 19:35 3,1 C 95 % 992,4 hPa 0,0 l/m 5,0 km/h (1 Bft) W-SW 253 0 min 0,000 mm 0,0 UV-I 0 W/m 2,4 C 3,1 C 6,4 km/h (2 Bft) 100,00 %
14.02.2016 19:36 3,1 C 95 % 992,3 hPa 0,0 l/m 5,4 km/h (1 Bft) W 263 0 min 0,000 mm 0,0 UV-I 0 W/m 2,4 C 3,1 C 8,0 km/h (2 Bft) 100,00 %
14.02.2016 19:37 3,1 C 95 % 992,4 hPa 0,0 l/m 5,1 km/h (1 Bft) W 263 0 min 0,000 mm 0,0 UV-I 0 W/m 2,4 C 3,1 C 6,4 km/h (2 Bft) 100,00 %
14.02.2016 19:38 3,1 C 95 % 992,4 hPa 0,0 l/m 5,2 km/h (1 Bft) W 277 0 min 0,000 mm 0,0 UV-I 0 W/m 2,4 C 3,1 C 8,0 km/h (2 Bft) 100,00 %
14.02.2016 19:39 3,1 C 94 % 992,4 hPa 0,0 l/m 5,4 km/h (1 Bft) W-SW 243 0 min 0,000 mm 0,0 UV-I 0 W/m 2,2 C 3,1 C 6,4 km/h (2 Bft) 92,31 %
14.02.2016 19:40 3,1 C 94 % 992,4 hPa 0,0 l/m 6,1 km/h (2 Bft) W-SW 258 0 min 0,000 mm 0,0 UV-I 0 W/m 2,2 C 3,1 C 8,0 km/h (2 Bft) 100,00 %
14.02.2016 19:41 3,1 C 94 % 992,5 hPa 0,0 l/m 6,6 km/h (2 Bft) W-SW 246 0 min 0,000 mm 0,0 UV-I 0 W/m 2,2 C 2,9 C 11,3 km/h (2 Bft) 96,15 %
14.02.2016 19:42 3,1 C 94 % 992,5 hPa 0,0 l/m 7,1 km/h (2 Bft) SW 232 0 min 0,000 mm 0,0 UV-I 0 W/m 2,2 C 2,4 C 9,7 km/h (2 Bft) 100,00 %
14.02.2016 19:43 3,1 C 94 % 992,5 hPa 0,0 l/m 8,5 km/h (2 Bft) W-SW 242 0 min 0,000 mm 0,0 UV-I 0 W/m 2,2 C 1,2 C 12,9 km/h (3 Bft) 96,15 %
14.02.2016 19:44 3,1 C 94 % 992,6 hPa 0,0 l/m 8,6 km/h (2 Bft) W 271 0 min 0,000 mm 0,0 UV-I 0 W/m 2,2 C 1,1 C 11,3 km/h (2 Bft) 100,00 %
14.02.2016 19:45 3,1 C 94 % 992,7 hPa 0,0 l/m 8,6 km/h (2 Bft) W-SW 250 0 min 0,000 mm 0,0 UV-I 0 W/m 2,2 C 1,1 C 12,9 km/h (3 Bft) 100,00 %
14.02.2016 19:46 3,1 C 94 % 992,6 hPa 0,0 l/m 7,1 km/h (2 Bft) W-SW 250 0 min 0,000 mm 0,0 UV-I 0 W/m 2,2 C 2,4 C 11,3 km/h (2 Bft) 100,00 %
14.02.2016 19:47 3,1 C 94 % 992,6 hPa 0,0 l/m 7,5 km/h (2 Bft) SW 232 0 min 0,000 mm 0,0 UV-I 0 W/m 2,2 C 2,1 C 11,3 km/h (2 Bft) 100,00 %
14.02.2016 19:48 3,1 C 95 % 992,7 hPa 0,0 l/m 7,1 km/h (2 Bft) W-SW 253 0 min 0,000 mm 0,0 UV-I 0 W/m 2,4 C 2,4 C 11,3 km/h (2 Bft) 100,00 %
14.02.2016 19:49 3,1 C 95 % 992,8 hPa 0,0 l/m 6,2 km/h (2 Bft) W-SW 237 0 min 0,000 mm 0,0 UV-I 0 W/m 2,4 C 3,1 C 8,0 km/h (2 Bft) 100,00 %
14.02.2016 19:50 3,2 C 95 % 992,8 hPa 0,0 l/m 7,4 km/h (2 Bft) W-SW 258 0 min 0,000 mm 0,0 UV-I 0 W/m 2,5 C 2,3 C 11,3 km/h (2 Bft) 100,00 %
14.02.2016 19:51 3,2 C 95 % 992,8 hPa 0,0 l/m 7,3 km/h (2 Bft) W 259 0 min 0,000 mm 0,0 UV-I 0 W/m 2,5 C 2,4 C 12,9 km/h (3 Bft) 100,00 %
14.02.2016 19:52 3,2 C 94 % 992,8 hPa 0,0 l/m 7,0 km/h (2 Bft) SW 235 0 min 0,000 mm 0,0 UV-I 0 W/m 2,3 C 2,6 C 11,3 km/h (2 Bft) 100,00 %
14.02.2016 19:53 3,2 C 94 % 992,8 hPa 0,0 l/m 4,7 km/h (1 Bft) W-SW 254 0 min 0,000 mm 0,0 UV-I 0 W/m 2,3 C 3,2 C 6,4 km/h (2 Bft) 100,00 %
14.02.2016 19:54 3,2 C 94 % 992,8 hPa 0,0 l/m 5,5 km/h (1 Bft) W-SW 252 0 min 0,000 mm 0,0 UV-I 0 W/m 2,3 C 3,2 C 6,4 km/h (2 Bft) 100,00 %
14.02.2016 19:55 3,2 C 94 % 992,9 hPa 0,0 l/m 6,6 km/h (2 Bft) SW 227 0 min 0,000 mm 0,0 UV-I 0 W/m 2,3 C 3,0 C 11,3 km/h (2 Bft) 100,00 %
14.02.2016 19:56 3,2 C 94 % 992,9 hPa 0,0 l/m 4,2 km/h (1 Bft) SW 225 0 min 0,000 mm 0,0 UV-I 0 W/m 2,3 C 3,2 C 6,4 km/h (2 Bft) 100,00 %
14.02.2016 19:57 3,2 C 94 % 992,9 hPa 0,0 l/m 5,4 km/h (1 Bft) S-SW 209 0 min 0,000 mm 0,0 UV-I 0 W/m 2,3 C 3,2 C 9,7 km/h (2 Bft) 100,00 %
14.02.2016 19:58 3,2 C 94 % 992,9 hPa 0,0 l/m 4,8 km/h (1 Bft) S-SW 202 0 min 0,000 mm 0,0 UV-I 0 W/m 2,3 C 3,2 C 6,4 km/h (2 Bft) 100,00 %
14.02.2016 19:59 3,2 C 94 % 992,9 hPa 0,0 l/m 4,5 km/h (1 Bft) S-SW 211 0 min 0,000 mm 0,0 UV-I 0 W/m 2,3 C 3,2 C 6,4 km/h (2 Bft) 95,65 %
14.02.2016 20:00 3,2 C 94 % 993,0 hPa 0,0 l/m 5,0 km/h (1 Bft) S 186 0 min 0,000 mm 0,0 UV-I 0 W/m 2,3 C 3,2 C 8,0 km/h (2 Bft) 100,00 %
14.02.2016 20:01 3,2 C 94 % 993,1 hPa 0,0 l/m 4,0 km/h (1 Bft) S 186 0 min 0,000 mm 0,0 UV-I 0 W/m 2,3 C 3,2 C 4,8 km/h (1 Bft) 95,83 %
14.02.2016 20:02 3,2 C 94 % 993,1 hPa 0,0 l/m 2,4 km/h (1 Bft) S 187 0 min 0,000 mm 0,0 UV-I 0 W/m 2,3 C 3,2 C 4,8 km/h (1 Bft) 100,00 %
14.02.2016 20:03 3,2 C 94 % 993,1 hPa 0,0 l/m 4,2 km/h (1 Bft) S 184 0 min 0,000 mm 0,0 UV-I 0 W/m 2,3 C 3,2 C 4,8 km/h (1 Bft) 100,00 %
14.02.2016 20:04 3,2 C 94 % 993,1 hPa 0,0 l/m 4,0 km/h (1 Bft) S 184 0 min 0,000 mm 0,0 UV-I 0 W/m 2,3 C 3,2 C 6,4 km/h (2 Bft) 100,00 %
14.02.2016 20:05 3,2 C 94 % 993,1 hPa 0,0 l/m 5,0 km/h (1 Bft) S 183 0 min 0,000 mm 0,0 UV-I 0 W/m 2,3 C 3,2 C 6,4 km/h (2 Bft) 100,00 %
14.02.2016 20:06 3,2 C 94 % 993,1 hPa 0,0 l/m 3,0 km/h (1 Bft) S 183 0 min 0,000 mm 0,0 UV-I 0 W/m 2,3 C 3,2 C 4,8 km/h (1 Bft) 92,86 %
14.02.2016 20:07 3,2 C 94 % 993,1 hPa 0,0 l/m 2,1 km/h (1 Bft) S 184 0 min 0,000 mm 0,0 UV-I 0 W/m 2,3 C 3,2 C 4,8 km/h (1 Bft) 100,00 %
14.02.2016 20:08 3,2 C 94 % 993,1 hPa 0,0 l/m 2,4 km/h (1 Bft) S 184 0 min 0,000 mm 0,0 UV-I 0 W/m 2,3 C 3,2 C 3,2 km/h (1 Bft) 100,00 %
14.02.2016 20:09 3,2 C 94 % 993,1 hPa 0,0 l/m 3,0 km/h (1 Bft) S 182 0 min 0,000 mm 0,0 UV-I 0 W/m 2,3 C 3,2 C 4,8 km/h (1 Bft) 100,00 %
14.02.2016 20:10 3,2 C 94 % 993,1 hPa 0,0 l/m 4,6 km/h (1 Bft) S 182 0 min 0,000 mm 0,0 UV-I 0 W/m 2,3 C 3,2 C 6,4 km/h (2 Bft) 100,00 %
14.02.2016 20:11 3,2 C 94 % 993,2 hPa 0,0 l/m 5,3 km/h (1 Bft) S 180 0 min 0,000 mm 0,0 UV-I 0 W/m 2,3 C 3,2 C 6,4 km/h (2 Bft) 100,00 %
14.02.2016 20:12 3,2 C 94 % 993,2 hPa 0,0 l/m 5,0 km/h (1 Bft) S 181 0 min 0,000 mm 0,0 UV-I 0 W/m 2,3 C 3,2 C 6,4 km/h (2 Bft) 100,00 %
14.02.2016 20:13 3,1 C 94 % 993,2 hPa 0,0 l/m 6,7 km/h (2 Bft) S-SW 197 0 min 0,000 mm 0,0 UV-I 0 W/m 2,2 C 2,8 C 8,0 km/h (2 Bft) 100,00 %
14.02.2016 20:14 3,1 C 94 % 993,3 hPa 0,0 l/m 6,9 km/h (2 Bft) S 178 0 min 0,000 mm 0,0 UV-I 0 W/m 2,2 C 2,6 C 9,7 km/h (2 Bft) 100,00 %
14.02.2016 20:15 3,1 C 94 % 993,3 hPa 0,0 l/m 7,3 km/h (2 Bft) S-SW 196 0 min 0,000 mm 0,0 UV-I 0 W/m 2,2 C 2,2 C 8,0 km/h (2 Bft) 100,00 %
14.02.2016 20:16 3,1 C 94 % 993,3 hPa 0,0 l/m 7,6 km/h (2 Bft) S-SW 198 0 min 0,000 mm 0,0 UV-I 0 W/m 2,2 C 2,0 C 11,3 km/h (2 Bft) 100,00 %
14.02.2016 20:17 3,1 C 94 % 993,4 hPa 0,0 l/m 7,7 km/h (2 Bft) S 180 0 min 0,000 mm 0,0 UV-I 0 W/m 2,2 C 1,9 C 9,7 km/h (2 Bft) 100,00 %
14.02.2016 20:18 3,1 C 94 % 993,3 hPa 0,0 l/m 8,9 km/h (2 Bft) S 183 0 min 0,000 mm 0,0 UV-I 0 W/m 2,2 C 0,8 C 11,3 km/h (2 Bft) 95,65 %
14.02.2016 20:19 3,1 C 94 % 993,3 hPa 0,0 l/m 8,1 km/h (2 Bft) S 174 0 min 0,000 mm 0,0 UV-I 0 W/m 2,2 C 1,5 C 11,3 km/h (2 Bft) 100,00 %
14.02.2016 20:20 3,1 C 94 % 993,4 hPa 0,0 l/m 9,0 km/h (2 Bft) S-SW 211 0 min 0,000 mm 0,0 UV-I 0 W/m 2,2 C 0,8 C 11,3 km/h (2 Bft) 95,83 %
14.02.2016 20:21 3,1 C 94 % 993,4 hPa 0,0 l/m 6,8 km/h (2 Bft) S-SW 196 0 min 0,000 mm 0,0 UV-I 0 W/m 2,2 C 2,7 C 9,7 km/h (2 Bft) 100,00 %
14.02.2016 20:22 3,1 C 94 % 993,4 hPa 0,0 l/m 9,6 km/h (2 Bft) S-SW 194 0 min 0,000 mm 0,0 UV-I 0 W/m 2,2 C 0,3 C 14,5 km/h (3 Bft) 100,00 %
14.02.2016 20:23 3,1 C 94 % 993,5 hPa 0,0 l/m 10,5 km/h (2 Bft) S-SW 206 0 min 0,000 mm 0,0 UV-I 0 W/m 2,2 C -0,4 C 14,5 km/h (3 Bft) 100,00 %
14.02.2016 20:24 3,1 C 94 % 993,4 hPa 0,0 l/m 10,9 km/h (2 Bft) S-SW 192 0 min 0,000 mm 0,0 UV-I 0 W/m 2,2 C -0,7 C 12,9 km/h (3 Bft) 100,00 %
14.02.2016 20:25 3,1 C 94 % 993,4 hPa 0,0 l/m 11,7 km/h (2 Bft) S-SW 208 0 min 0,000 mm 0,0 UV-I 0 W/m 2,2 C -1,2 C 16,1 km/h (3 Bft) 91,30 %
14.02.2016 20:26 3,1 C 94 % 993,4 hPa 0,0 l/m 12,1 km/h (2 Bft) SW 214 0 min 0,000 mm 0,0 UV-I 0 W/m 2,2 C -1,5 C 14,5 km/h (3 Bft) 100,00 %
14.02.2016 20:27 3,2 C 94 % 993,4 hPa 0,0 l/m 13,9 km/h (3 Bft) S 189 0 min 0,000 mm 0,0 UV-I 0 W/m 2,3 C -2,5 C 17,7 km/h (3 Bft) 100,00 %
14.02.2016 20:28 3,2 C 94 % 993,4 hPa 0,0 l/m 14,1 km/h (3 Bft) S-SW 209 0 min 0,000 mm 0,0 UV-I 0 W/m 2,3 C -2,6 C 17,7 km/h (3 Bft) 100,00 %
14.02.2016 20:29 3,2 C 94 % 993,4 hPa 0,0 l/m 15,4 km/h (3 Bft) S-SW 196 0 min 0,000 mm 0,0 UV-I 0 W/m 2,3 C -3,3 C 17,7 km/h (3 Bft) 100,00 %
14.02.2016 20:30 3,2 C 94 % 993,5 hPa 0,0 l/m 17,6 km/h (3 Bft) S 191 0 min 0,000 mm 0,0 UV-I 0 W/m 2,3 C -4,4 C 22,5 km/h (4 Bft) 100,00 %
14.02.2016 20:31 3,2 C 94 % 993,5 hPa 0,0 l/m 14,8 km/h (3 Bft) S-SW 202 0 min 0,000 mm 0,0 UV-I 0 W/m 2,3 C -3,0 C 20,9 km/h (4 Bft) 100,00 %
14.02.2016 20:32 3,2 C 94 % 993,5 hPa 0,0 l/m 15,5 km/h (3 Bft) S-SW 201 0 min 0,000 mm 0,0 UV-I 0 W/m 2,3 C -3,4 C 19,3 km/h (3 Bft) 100,00 %
14.02.2016 20:33 3,2 C 94 % 993,5 hPa 0,0 l/m 14,3 km/h (3 Bft) S-SW 193 0 min 0,000 mm 0,0 UV-I 0 W/m 2,3 C -2,7 C 19,3 km/h (3 Bft) 100,00 %
14.02.2016 20:34 3,2 C 94 % 993,5 hPa 0,0 l/m 11,5 km/h (2 Bft) S-SW 207 0 min 0,000 mm 0,0 UV-I 0 W/m 2,3 C -1,0 C 19,3 km/h (3 Bft) 100,00 %
14.02.2016 20:35 3,2 C 94 % 993,5 hPa 0,0 l/m 12,3 km/h (3 Bft) S 184 0 min 0,000 mm 0,0 UV-I 0 W/m 2,3 C -1,5 C 16,1 km/h (3 Bft) 100,00 %
14.02.2016 20:36 3,2 C 94 % 993,4 hPa 0,0 l/m 10,8 km/h (2 Bft) S-SW 203 0 min 0,000 mm 0,0 UV-I 0 W/m 2,3 C -0,5 C 16,1 km/h (3 Bft) 100,00 %
14.02.2016 20:37 3,2 C 94 % 993,4 hPa 0,0 l/m 10,5 km/h (2 Bft) S-SW 197 0 min 0,000 mm 0,0 UV-I 0 W/m 2,3 C -0,3 C 12,9 km/h (3 Bft) 100,00 %
14.02.2016 20:38 3,3 C 94 % 993,4 hPa 0,0 l/m 12,7 km/h (3 Bft) SO 144 0 min 0,000 mm 0,0 UV-I 0 W/m 2,4 C -1,6 C 16,1 km/h (3 Bft) 100,00 %
14.02.2016 20:39 3,3 C 94 % 993,5 hPa 0,0 l/m 11,4 km/h (2 Bft) S-SW 204 0 min 0,000 mm 0,0 UV-I 0 W/m 2,4 C -0,8 C 14,5 km/h (3 Bft) 100,00 %
14.02.2016 20:40 3,3 C 93 % 993,5 hPa 0,0 l/m 12,7 km/h (3 Bft) S-SW 200 0 min 0,000 mm 0,0 UV-I 0 W/m 2,3 C -1,6 C 16,1 km/h (3 Bft) 100,00 %
14.02.2016 20:41 3,3 C 93 % 993,5 hPa 0,0 l/m 12,8 km/h (3 Bft) S-SW 192 0 min 0,000 mm 0,0 UV-I 0 W/m 2,3 C -1,7 C 16,1 km/h (3 Bft) 100,00 %
14.02.2016 20:42 3,3 C 93 % 993,5 hPa 0,0 l/m 12,0 km/h (2 Bft) S-SW 213 0 min 0,000 mm 0,0 UV-I 0 W/m 2,3 C -1,2 C 14,5 km/h (3 Bft) 100,00 %
14.02.2016 20:43 3,3 C 93 % 993,6 hPa 0,0 l/m 11,9 km/h (2 Bft) S-SW 202 0 min 0,000 mm 0,0 UV-I 0 W/m 2,3 C -1,1 C 14,5 km/h (3 Bft) 100,00 %
14.02.2016 20:44 3,3 C 93 % 993,6 hPa 0,0 l/m 13,3 km/h (3 Bft) S-SW 209 0 min 0,000 mm 0,0 UV-I 0 W/m 2,3 C -2,0 C 14,5 km/h (3 Bft) 100,00 %
14.02.2016 20:45 3,3 C 93 % 993,7 hPa 0,0 l/m 11,6 km/h (2 Bft) SW 227 0 min 0,000 mm 0,0 UV-I 0 W/m 2,3 C -0,9 C 14,5 km/h (3 Bft) 100,00 %
14.02.2016 20:46 3,3 C 93 % 993,8 hPa 0,0 l/m 12,6 km/h (3 Bft) S 184 0 min 0,000 mm 0,0 UV-I 0 W/m 2,3 C -1,6 C 16,1 km/h (3 Bft) 95,65 %
14.02.2016 20:47 3,2 C 93 % 993,8 hPa 0,0 l/m 13,0 km/h (3 Bft) S-SW 205 0 min 0,000 mm 0,0 UV-I 0 W/m 2,2 C -1,9 C 16,1 km/h (3 Bft) 100,00 %
14.02.2016 20:48 3,2 C 93 % 993,8 hPa 0,0 l/m 10,9 km/h (2 Bft) S-SW 200 0 min 0,000 mm 0,0 UV-I 0 W/m 2,2 C -0,6 C 12,9 km/h (3 Bft) 100,00 %
14.02.2016 20:49 3,2 C 93 % 993,8 hPa 0,0 l/m 13,7 km/h (3 Bft) S-SW 200 0 min 0,000 mm 0,0 UV-I 0 W/m 2,2 C -2,4 C 16,1 km/h (3 Bft) 100,00 %
14.02.2016 20:50 3,2 C 93 % 993,8 hPa 0,0 l/m 11,9 km/h (2 Bft) S-SW 195 0 min 0,000 mm 0,0 UV-I 0 W/m 2,2 C -1,3 C 14,5 km/h (3 Bft) 92,86 %
14.02.2016 20:51 3,3 C 93 % 993,8 hPa 0,0 l/m 10,6 km/h (2 Bft) S 188 0 min 0,000 mm 0,0 UV-I 0 W/m 2,3 C -0,2 C 16,1 km/h (3 Bft) 100,00 %
14.02.2016 20:52 3,3 C 93 % 993,8 hPa 0,0 l/m 9,1 km/h (2 Bft) S-SW 205 0 min 0,000 mm 0,0 UV-I 0 W/m 2,3 C 0,9 C 11,3 km/h (2 Bft) 100,00 %
14.02.2016 20:53 3,3 C 93 % 993,9 hPa 0,0 l/m 8,7 km/h (2 Bft) S-SW 207 0 min 0,000 mm 0,0 UV-I 0 W/m 2,3 C 1,2 C 11,3 km/h (2 Bft) 100,00 %
14.02.2016 20:54 3,3 C 93 % 993,9 hPa 0,0 l/m 7,7 km/h (2 Bft) S 182 0 min 0,000 mm 0,0 UV-I 0 W/m 2,3 C 2,1 C 9,7 km/h (2 Bft) 95,65 %
14.02.2016 20:55 3,3 C 93 % 993,9 hPa 0,0 l/m 8,1 km/h (2 Bft) S-SW 194 0 min 0,000 mm 0,0 UV-I 0 W/m 2,3 C 1,7 C 11,3 km/h (2 Bft) 100,00 %
14.02.2016 20:56 3,3 C 93 % 994,0 hPa 0,0 l/m 9,5 km/h (2 Bft) SW 228 0 min 0,000 mm 0,0 UV-I 0 W/m 2,3 C 0,6 C 14,5 km/h (3 Bft) 100,00 %
14.02.2016 20:57 3,3 C 93 % 994,0 hPa 0,0 l/m 11,3 km/h (2 Bft) S 171 0 min 0,000 mm 0,0 UV-I 0 W/m 2,3 C -0,7 C 14,5 km/h (3 Bft) 100,00 %
14.02.2016 20:58 3,3 C 93 % 994,0 hPa 0,0 l/m 10,1 km/h (2 Bft) S-SW 192 0 min 0,000 mm 0,0 UV-I 0 W/m 2,3 C 0,1 C 16,1 km/h (3 Bft) 100,00 %
14.02.2016 20:59 3,3 C 93 % 994,1 hPa 0,0 l/m 9,1 km/h (2 Bft) S 186 0 min 0,000 mm 0,0 UV-I 0 W/m 2,3 C 0,9 C 14,5 km/h (3 Bft) 100,00 %
14.02.2016 21:00 3,3 C 93 % 994,1 hPa 0,0 l/m 8,6 km/h (2 Bft) W-SW 246 0 min 0,000 mm 0,0 UV-I 0 W/m 2,3 C 1,3 C 14,5 km/h (3 Bft) 100,00 %
14.02.2016 21:01 3,3 C 93 % 994,1 hPa 0,0 l/m 9,0 km/h (2 Bft) SW 223 0 min 0,000 mm 0,0 UV-I 0 W/m 2,3 C 1,0 C 14,5 km/h (3 Bft) 95,83 %
14.02.2016 21:02 3,4 C 93 % 994,1 hPa 0,0 l/m 8,5 km/h (2 Bft) W-SW 240 0 min 0,000 mm 0,0 UV-I 0 W/m 2,4 C 1,5 C 11,3 km/h (2 Bft) 100,00 %
14.02.2016 21:03 3,4 C 93 % 994,1 hPa 0,0 l/m 7,2 km/h (2 Bft) S-SW 194 0 min 0,000 mm 0,0 UV-I 0 W/m 2,4 C 2,7 C 12,9 km/h (3 Bft) 95,65 %
14.02.2016 21:04 3,4 C 92 % 994,2 hPa 0,0 l/m 8,0 km/h (2 Bft) S-SW 205 0 min 0,000 mm 0,0 UV-I 0 W/m 2,2 C 1,9 C 11,3 km/h (2 Bft) 100,00 %
14.02.2016 21:05 3,4 C 92 % 994,2 hPa 0,0 l/m 11,0 km/h (2 Bft) S-SW 204 0 min 0,000 mm 0,0 UV-I 0 W/m 2,2 C -0,4 C 17,7 km/h (3 Bft) 95,65 %
14.02.2016 21:06 3,4 C 92 % 994,3 hPa 0,0 l/m 8,0 km/h (2 Bft) S-SW 210 0 min 0,000 mm 0,0 UV-I 0 W/m 2,2 C 1,9 C 9,7 km/h (2 Bft) 95,83 %
14.02.2016 21:07 3,4 C 92 % 994,3 hPa 0,0 l/m 8,2 km/h (2 Bft) W-SW 246 0 min 0,000 mm 0,0 UV-I 0 W/m 2,2 C 1,7 C 12,9 km/h (3 Bft) 91,30 %
14.02.2016 21:08 3,4 C 92 % 994,3 hPa 0,0 l/m 7,9 km/h (2 Bft) W-SW 239 0 min 0,000 mm 0,0 UV-I 0 W/m 2,2 C 2,0 C 11,3 km/h (2 Bft) 95,83 %
14.02.2016 21:09 3,4 C 92 % 994,4 hPa 0,0 l/m 5,7 km/h (1 Bft) S-SW 206 0 min 0,000 mm 0,0 UV-I 0 W/m 2,2 C 3,4 C 8,0 km/h (2 Bft) 100,00 %
14.02.2016 21:10 3,4 C 92 % 994,4 hPa 0,0 l/m 6,2 km/h (2 Bft) SW 236 0 min 0,000 mm 0,0 UV-I 0 W/m 2,2 C 3,4 C 8,0 km/h (2 Bft) 95,83 %
14.02.2016 21:11 3,4 C 92 % 994,4 hPa 0,0 l/m 7,5 km/h (2 Bft) SW 230 0 min 0,000 mm 0,0 UV-I 0 W/m 2,2 C 2,4 C 9,7 km/h (2 Bft) 91,30 %
14.02.2016 21:12 3,4 C 92 % 994,4 hPa 0,0 l/m 8,8 km/h (2 Bft) SW 216 0 min 0,000 mm 0,0 UV-I 0 W/m 2,2 C 1,2 C 12,9 km/h (3 Bft) 95,83 %
14.02.2016 21:13 3,4 C 92 % 994,5 hPa 0,0 l/m 8,4 km/h (2 Bft) SW 230 0 min 0,000 mm 0,0 UV-I 0 W/m 2,2 C 1,6 C 12,9 km/h (3 Bft) 100,00 %
14.02.2016 21:14 3,4 C 92 % 994,5 hPa 0,0 l/m 9,0 km/h (2 Bft) SW 232 0 min 0,000 mm 0,0 UV-I 0 W/m 2,2 C 1,1 C 12,9 km/h (3 Bft) 91,67 %
14.02.2016 21:15 3,4 C 92 % 994,6 hPa 0,0 l/m 11,8 km/h (2 Bft) SW 230 0 min 0,000 mm 0,0 UV-I 0 W/m 2,2 C -1,0 C 16,1 km/h (3 Bft) 100,00 %
14.02.2016 21:16 3,4 C 92 % 994,6 hPa 0,0 l/m 11,5 km/h (2 Bft) SW 232 0 min 0,000 mm 0,0 UV-I 0 W/m 2,2 C -0,8 C 16,1 km/h (3 Bft) 97,37 %
14.02.2016 21:17 3,4 C 92 % 994,7 hPa 0,0 l/m 12,8 km/h (3 Bft) SW 220 0 min 0,000 mm 0,0 UV-I 0 W/m 2,2 C -1,6 C 19,3 km/h (3 Bft) 95,65 %
14.02.2016 21:18 3,4 C 92 % 994,7 hPa 0,0 l/m 9,5 km/h (2 Bft) S-SW 212 0 min 0,000 mm 0,0 UV-I 0 W/m 2,2 C 0,7 C 14,5 km/h (3 Bft) 100,00 %
14.02.2016 21:19 3,4 C 92 % 994,7 hPa 0,0 l/m 9,5 km/h (2 Bft) W-SW 241 0 min 0,000 mm 0,0 UV-I 0 W/m 2,2 C 0,7 C 14,5 km/h (3 Bft) 95,83 %
14.02.2016 21:20 3,4 C 92 % 994,8 hPa 0,0 l/m 11,7 km/h (2 Bft) SW 232 0 min 0,000 mm 0,0 UV-I 0 W/m 2,2 C -0,9 C 16,1 km/h (3 Bft) 95,65 %
14.02.2016 21:21 3,4 C 92 % 994,8 hPa 0,0 l/m 11,3 km/h (2 Bft) SW 233 0 min 0,000 mm 0,0 UV-I 0 W/m 2,2 C -0,6 C 16,1 km/h (3 Bft) 95,83 %
14.02.2016 21:22 3,4 C 92 % 994,8 hPa 0,0 l/m 12,3 km/h (3 Bft) SW 222 0 min 0,000 mm 0,0 UV-I 0 W/m 2,2 C -1,3 C 16,1 km/h (3 Bft) 100,00 %
14.02.2016 21:23 3,5 C 92 % 994,9 hPa 0,0 l/m 12,0 km/h (2 Bft) SW 226 0 min 0,000 mm 0,0 UV-I 0 W/m 2,3 C -1,0 C 16,1 km/h (3 Bft) 95,83 %
14.02.2016 21:24 3,5 C 92 % 994,9 hPa 0,0 l/m 13,7 km/h (3 Bft) SW 232 0 min 0,000 mm 0,0 UV-I 0 W/m 2,3 C -2,0 C 19,3 km/h (3 Bft) 95,65 %
14.02.2016 21:25 3,5 C 92 % 994,9 hPa 0,0 l/m 14,3 km/h (3 Bft) W-SW 237 0 min 0,000 mm 0,0 UV-I 0 W/m 2,3 C -2,4 C 17,7 km/h (3 Bft) 95,83 %
14.02.2016 21:26 3,6 C 92 % 995,0 hPa 0,0 l/m 14,9 km/h (3 Bft) W-SW 242 0 min 0,000 mm 0,0 UV-I 0 W/m 2,4 C -2,6 C 22,5 km/h (4 Bft) 95,65 %
14.02.2016 21:27 3,6 C 91 % 995,0 hPa 0,0 l/m 12,0 km/h (2 Bft) SW 223 0 min 0,000 mm 0,0 UV-I 0 W/m 2,3 C -0,9 C 14,5 km/h (3 Bft) 100,00 %
14.02.2016 21:28 3,6 C 91 % 995,0 hPa 0,0 l/m 17,3 km/h (3 Bft) W-SW 242 0 min 0,000 mm 0,0 UV-I 0 W/m 2,3 C -3,8 C 25,7 km/h (4 Bft) 95,65 %
14.02.2016 21:29 3,7 C 91 % 995,0 hPa 0,0 l/m 15,6 km/h (3 Bft) W 270 0 min 0,000 mm 0,0 UV-I 0 W/m 2,4 C -2,8 C 24,1 km/h (4 Bft) 95,83 %
14.02.2016 21:30 3,7 C 91 % 995,0 hPa 0,0 l/m 12,6 km/h (3 Bft) W-SW 240 0 min 0,000 mm 0,0 UV-I 0 W/m 2,4 C -1,1 C 16,1 km/h (3 Bft) 95,65 %
14.02.2016 21:31 3,8 C 91 % 995,1 hPa 0,0 l/m 12,4 km/h (3 Bft) SW 224 0 min 0,000 mm 0,0 UV-I 0 W/m 2,5 C -0,9 C 17,7 km/h (3 Bft) 95,83 %
14.02.2016 21:32 3,8 C 91 % 995,2 hPa 0,0 l/m 12,1 km/h (2 Bft) W-SW 238 0 min 0,000 mm 0,0 UV-I 0 W/m 2,5 C -0,7 C 19,3 km/h (3 Bft) 91,30 %
14.02.2016 21:33 3,8 C 91 % 995,2 hPa 0,0 l/m 13,1 km/h (3 Bft) W-SW 238 0 min 0,000 mm 0,0 UV-I 0 W/m 2,5 C -1,3 C 16,1 km/h (3 Bft) 95,83 %
14.02.2016 21:34 3,9 C 90 % 995,2 hPa 0,0 l/m 13,5 km/h (3 Bft) W-SW 258 0 min 0,000 mm 0,0 UV-I 0 W/m 2,4 C -1,4 C 19,3 km/h (3 Bft) 95,65 %
14.02.2016 21:35 3,9 C 90 % 995,3 hPa 0,0 l/m 14,3 km/h (3 Bft) SW 217 0 min 0,000 mm 0,0 UV-I 0 W/m 2,4 C -1,9 C 17,7 km/h (3 Bft) 95,83 %
14.02.2016 21:36 4,0 C 90 % 995,3 hPa 0,0 l/m 14,8 km/h (3 Bft) W-SW 245 0 min 0,000 mm 0,0 UV-I 0 W/m 2,5 C -2,0 C 19,3 km/h (3 Bft) 100,00 %
14.02.2016 21:37 4,1 C 90 % 995,3 hPa 0,0 l/m 18,3 km/h (3 Bft) W-SW 246 0 min 0,000 mm 0,0 UV-I 0 W/m 2,6 C -3,6 C 24,1 km/h (4 Bft) 95,83 %
14.02.2016 21:38 4,2 C 89 % 995,4 hPa 0,0 l/m 15,6 km/h (3 Bft) SW 225 0 min 0,000 mm 0,0 UV-I 0 W/m 2,6 C -2,2 C 22,5 km/h (4 Bft) 91,67 %
14.02.2016 21:39 4,2 C 89 % 995,4 hPa 0,0 l/m 12,3 km/h (3 Bft) W 271 0 min 0,000 mm 0,0 UV-I 0 W/m 2,6 C -0,4 C 16,1 km/h (3 Bft) 100,00 %
14.02.2016 21:40 4,2 C 89 % 995,4 hPa 0,0 l/m 10,7 km/h (2 Bft) W-SW 239 0 min 0,000 mm 0,0 UV-I 0 W/m 2,6 C 0,7 C 16,1 km/h (3 Bft) 100,00 %
14.02.2016 21:41 4,3 C 89 % 995,4 hPa 0,0 l/m 13,5 km/h (3 Bft) W-SW 237 0 min 0,000 mm 0,0 UV-I 0 W/m 2,7 C -0,9 C 20,9 km/h (4 Bft) 100,00 %
14.02.2016 21:42 4,3 C 89 % 995,5 hPa 0,0 l/m 12,4 km/h (3 Bft) SW 226 0 min 0,000 mm 0,0 UV-I 0 W/m 2,7 C -0,3 C 17,7 km/h (3 Bft) 100,00 %
14.02.2016 21:43 4,3 C 89 % 995,5 hPa 0,0 l/m 9,4 km/h (2 Bft) SW 231 0 min 0,000 mm 0,0 UV-I 0 W/m 2,7 C 1,7 C 12,9 km/h (3 Bft) 100,00 %
14.02.2016 21:44 4,3 C 89 % 995,5 hPa 0,0 l/m 8,9 km/h (2 Bft) W-SW 246 0 min 0,000 mm 0,0 UV-I 0 W/m 2,7 C 2,1 C 12,9 km/h (3 Bft) 95,83 %
14.02.2016 21:45 4,3 C 89 % 995,5 hPa 0,0 l/m 8,6 km/h (2 Bft) W-SW 245 0 min 0,000 mm 0,0 UV-I 0 W/m 2,7 C 2,4 C 14,5 km/h (3 Bft) 100,00 %
14.02.2016 21:46 4,3 C 88 % 995,5 hPa 0,0 l/m 10,4 km/h (2 Bft) S-SW 212 0 min 0,000 mm 0,0 UV-I 0 W/m 2,5 C 1,0 C 16,1 km/h (3 Bft) 100,00 %
14.02.2016 21:47 4,3 C 88 % 995,5 hPa 0,0 l/m 12,2 km/h (2 Bft) SW 234 0 min 0,000 mm 0,0 UV-I 0 W/m 2,5 C -0,2 C 19,3 km/h (3 Bft) 91,30 %
14.02.2016 21:48 4,3 C 88 % 995,6 hPa 0,0 l/m 10,7 km/h (2 Bft) W-SW 238 0 min 0,000 mm 0,0 UV-I 0 W/m 2,5 C 0,8 C 14,5 km/h (3 Bft) 100,00 %
14.02.2016 21:49 4,3 C 88 % 995,6 hPa 0,0 l/m 12,7 km/h (3 Bft) W-SW 238 0 min 0,000 mm 0,0 UV-I 0 W/m 2,5 C -0,5 C 19,3 km/h (3 Bft) 100,00 %
14.02.2016 21:50 4,3 C 88 % 995,6 hPa 0,0 l/m 10,8 km/h (2 Bft) SW 226 0 min 0,000 mm 0,0 UV-I 0 W/m 2,5 C 0,7 C 16,1 km/h (3 Bft) 100,00 %
14.02.2016 21:51 4,3 C 88 % 995,7 hPa 0,0 l/m 11,5 km/h (2 Bft) SW 232 0 min 0,000 mm 0,0 UV-I 0 W/m 2,5 C 0,3 C 14,5 km/h (3 Bft) 100,00 %
14.02.2016 21:52 4,3 C 88 % 995,7 hPa 0,0 l/m 8,9 km/h (2 Bft) W-SW 250 0 min 0,000 mm 0,0 UV-I 0 W/m 2,5 C 2,1 C 11,3 km/h (2 Bft) 100,00 %
14.02.2016 21:53 4,3 C 88 % 995,7 hPa 0,0 l/m 8,9 km/h (2 Bft) SW 226 0 min 0,000 mm 0,0 UV-I 0 W/m 2,5 C 2,1 C 11,3 km/h (2 Bft) 100,00 %
14.02.2016 21:54 4,4 C 88 % 995,7 hPa 0,0 l/m 6,4 km/h (2 Bft) SW 218 0 min 0,000 mm 0,0 UV-I 0 W/m 2,6 C 4,4 C 8,0 km/h (2 Bft) 100,00 %
14.02.2016 21:55 4,4 C 88 % 995,7 hPa 0,0 l/m 12,0 km/h (2 Bft) SW 229 0 min 0,000 mm 0,0 UV-I 0 W/m 2,6 C 0,1 C 16,1 km/h (3 Bft) 100,00 %
14.02.2016 21:56 4,4 C 88 % 995,7 hPa 0,0 l/m 9,5 km/h (2 Bft) S-SW 207 0 min 0,000 mm 0,0 UV-I 0 W/m 2,6 C 1,8 C 16,1 km/h (3 Bft) 95,65 %
14.02.2016 21:57 4,4 C 88 % 995,7 hPa 0,0 l/m 12,1 km/h (2 Bft) SW 230 0 min 0,000 mm 0,0 UV-I 0 W/m 2,6 C 0,0 C 16,1 km/h (3 Bft) 100,00 %
14.02.2016 21:58 4,4 C 88 % 995,7 hPa 0,0 l/m 12,1 km/h (2 Bft) S-SW 207 0 min 0,000 mm 0,0 UV-I 0 W/m 2,6 C 0,0 C 16,1 km/h (3 Bft) 95,65 %
14.02.2016 21:59 4,4 C 88 % 995,8 hPa 0,0 l/m 10,0 km/h (2 Bft) W-SW 241 0 min 0,000 mm 0,0 UV-I 0 W/m 2,6 C 1,4 C 17,7 km/h (3 Bft) 100,00 %
14.02.2016 22:00 4,4 C 88 % 995,8 hPa 0,0 l/m 10,7 km/h (2 Bft) W-SW 237 0 min 0,000 mm 0,0 UV-I 0 W/m 2,6 C 0,9 C 14,5 km/h (3 Bft) 100,00 %
14.02.2016 22:01 4,5 C 88 % 995,8 hPa 0,0 l/m 8,4 km/h (2 Bft) S-SW 198 0 min 0,000 mm 0,0 UV-I 0 W/m 2,7 C 2,7 C 12,9 km/h (3 Bft) 91,67 %
14.02.2016 22:02 4,5 C 88 % 995,8 hPa 0,0 l/m 8,3 km/h (2 Bft) SW 216 0 min 0,000 mm 0,0 UV-I 0 W/m 2,7 C 2,8 C 12,9 km/h (3 Bft) 100,00 %
14.02.2016 22:03 4,5 C 87 % 995,8 hPa 0,0 l/m 9,3 km/h (2 Bft) S-SW 212 0 min 0,000 mm 0,0 UV-I 0 W/m 2,5 C 2,0 C 12,9 km/h (3 Bft) 100,00 %
14.02.2016 22:04 4,6 C 87 % 995,8 hPa 0,0 l/m 9,6 km/h (2 Bft) W-SW 237 0 min 0,000 mm 0,0 UV-I 0 W/m 2,6 C 1,9 C 14,5 km/h (3 Bft) 95,65 %
14.02.2016 22:05 4,6 C 87 % 995,8 hPa 0,0 l/m 9,3 km/h (2 Bft) W-SW 250 0 min 0,000 mm 0,0 UV-I 0 W/m 2,6 C 2,1 C 12,9 km/h (3 Bft) 100,00 %
14.02.2016 22:06 4,6 C 87 % 995,9 hPa 0,0 l/m 9,0 km/h (2 Bft) SW 224 0 min 0,000 mm 0,0 UV-I 0 W/m 2,6 C 2,4 C 12,9 km/h (3 Bft) 100,00 %
14.02.2016 22:07 4,6 C 87 % 995,8 hPa 0,0 l/m 11,9 km/h (2 Bft) S-SW 204 0 min 0,000 mm 0,0 UV-I 0 W/m 2,6 C 0,4 C 19,3 km/h (3 Bft) 100,00 %
14.02.2016 22:08 4,6 C 87 % 995,9 hPa 0,0 l/m 10,5 km/h (2 Bft) SW 219 0 min 0,000 mm 0,0 UV-I 0 W/m 2,6 C 1,3 C 16,1 km/h (3 Bft) 91,30 %
14.02.2016 22:09 4,7 C 87 % 995,9 hPa 0,0 l/m 13,9 km/h (3 Bft) S-SW 211 0 min 0,000 mm 0,0 UV-I 0 W/m 2,7 C -0,7 C 20,9 km/h (4 Bft) 100,00 %
14.02.2016 22:10 4,7 C 87 % 995,9 hPa 0,0 l/m 14,5 km/h (3 Bft) S-SW 203 0 min 0,000 mm 0,0 UV-I 0 W/m 2,7 C -1,0 C 25,7 km/h (4 Bft) 95,65 %
14.02.2016 22:11 4,7 C 87 % 995,9 hPa 0,0 l/m 11,1 km/h (2 Bft) W-SW 242 0 min 0,000 mm 0,0 UV-I 0 W/m 2,7 C 1,0 C 14,5 km/h (3 Bft) 100,00 %
14.02.2016 22:12 4,7 C 87 % 996,0 hPa 0,0 l/m 12,3 km/h (3 Bft) SW 236 0 min 0,000 mm 0,0 UV-I 0 W/m 2,7 C 0,2 C 17,7 km/h (3 Bft) 100,00 %
14.02.2016 22:13 4,8 C 86 % 996,0 hPa 0,0 l/m 13,0 km/h (3 Bft) SW 228 0 min 0,000 mm 0,0 UV-I 0 W/m 2,7 C -0,1 C 19,3 km/h (3 Bft) 100,00 %
14.02.2016 22:14 4,8 C 86 % 996,0 hPa 0,0 l/m 13,5 km/h (3 Bft) W-SW 245 0 min 0,000 mm 0,0 UV-I 0 W/m 2,7 C -0,4 C 19,3 km/h (3 Bft) 95,65 %
14.02.2016 22:15 4,8 C 86 % 996,0 hPa 0,0 l/m 11,6 km/h (2 Bft) SW 223 0 min 0,000 mm 0,0 UV-I 0 W/m 2,7 C 0,8 C 16,1 km/h (3 Bft) 100,00 %
14.02.2016 22:16 4,8 C 86 % 996,1 hPa 0,0 l/m 10,5 km/h (2 Bft) W-SW 250 0 min 0,000 mm 0,0 UV-I 0 W/m 2,7 C 1,5 C 14,5 km/h (3 Bft) 100,00 %
14.02.2016 22:17 4,8 C 86 % 996,1 hPa 0,0 l/m 8,3 km/h (2 Bft) S-SW 205 0 min 0,000 mm 0,0 UV-I 0 W/m 2,7 C 3,1 C 9,7 km/h (2 Bft) 100,00 %
14.02.2016 22:18 4,8 C 86 % 996,1 hPa 0,0 l/m 11,6 km/h (2 Bft) W-SW 241 0 min 0,000 mm 0,0 UV-I 0 W/m 2,7 C 0,8 C 17,7 km/h (3 Bft) 95,83 %
14.02.2016 22:19 4,9 C 86 % 996,1 hPa 0,0 l/m 11,3 km/h (2 Bft) SW 231 0 min 0,000 mm 0,0 UV-I 0 W/m 2,8 C 1,1 C 16,1 km/h (3 Bft) 95,65 %
14.02.2016 22:20 4,9 C 86 % 996,1 hPa 0,0 l/m 11,3 km/h (2 Bft) S 181 0 min 0,000 mm 0,0 UV-I 0 W/m 2,8 C 1,1 C 16,1 km/h (3 Bft) 100,00 %
14.02.2016 22:21 4,9 C 86 % 996,2 hPa 0,0 l/m 13,1 km/h (3 Bft) SW 227 0 min 0,000 mm 0,0 UV-I 0 W/m 2,8 C -0,0 C 17,7 km/h (3 Bft) 95,65 %
14.02.2016 22:22 4,9 C 86 % 996,2 hPa 0,0 l/m 11,6 km/h (2 Bft) SW 236 0 min 0,000 mm 0,0 UV-I 0 W/m 2,8 C 0,9 C 17,7 km/h (3 Bft) 95,83 %
14.02.2016 22:23 4,9 C 86 % 996,2 hPa 0,0 l/m 11,5 km/h (2 Bft) W-SW 253 0 min 0,000 mm 0,0 UV-I 0 W/m 2,8 C 1,0 C 16,1 km/h (3 Bft) 100,00 %
14.02.2016 22:24 5,0 C 86 % 996,2 hPa 0,0 l/m 13,3 km/h (3 Bft) W-SW 240 0 min 0,000 mm 0,0 UV-I 0 W/m 2,9 C -0,0 C 17,7 km/h (3 Bft) 100,00 %
14.02.2016 22:25 5,0 C 86 % 996,2 hPa 0,0 l/m 12,7 km/h (3 Bft) S 184 0 min 0,000 mm 0,0 UV-I 0 W/m 2,9 C 0,3 C 16,1 km/h (3 Bft) 100,00 %
14.02.2016 22:26 5,1 C 86 % 996,3 hPa 0,0 l/m 9,6 km/h (2 Bft) SW 214 0 min 0,000 mm 0,0 UV-I 0 W/m 3,0 C 2,5 C 12,9 km/h (3 Bft) 100,00 %
14.02.2016 22:27 5,1 C 86 % 996,3 hPa 0,0 l/m 11,2 km/h (2 Bft) SW 234 0 min 0,000 mm 0,0 UV-I 0 W/m 3,0 C 1,4 C 16,1 km/h (3 Bft) 100,00 %
14.02.2016 22:28 5,1 C 86 % 996,3 hPa 0,0 l/m 11,9 km/h (2 Bft) S-SW 201 0 min 0,000 mm 0,0 UV-I 0 W/m 3,0 C 0,9 C 16,1 km/h (3 Bft) 100,00 %
14.02.2016 22:29 5,1 C 86 % 996,4 hPa 0,0 l/m 12,7 km/h (3 Bft) SW 236 0 min 0,000 mm 0,0 UV-I 0 W/m 3,0 C 0,5 C 19,3 km/h (3 Bft) 100,00 %
14.02.2016 22:30 5,1 C 86 % 996,4 hPa 0,0 l/m 9,4 km/h (2 Bft) W-SW 249 0 min 0,000 mm 0,0 UV-I 0 W/m 3,0 C 2,6 C 17,7 km/h (3 Bft) 100,00 %
14.02.2016 22:31 5,1 C 86 % 996,3 hPa 0,0 l/m 10,4 km/h (2 Bft) SW 223 0 min 0,000 mm 0,0 UV-I 0 W/m 3,0 C 1,9 C 16,1 km/h (3 Bft) 100,00 %
14.02.2016 22:32 5,1 C 86 % 996,3 hPa 0,0 l/m 11,9 km/h (2 Bft) SW 223 0 min 0,000 mm 0,0 UV-I 0 W/m 3,0 C 0,9 C 16,1 km/h (3 Bft) 100,00 %
14.02.2016 22:33 5,1 C 86 % 996,4 hPa 0,0 l/m 10,7 km/h (2 Bft) SW 230 0 min 0,000 mm 0,0 UV-I 0 W/m 3,0 C 1,7 C 14,5 km/h (3 Bft) 100,00 %
14.02.2016 22:34 5,1 C 86 % 996,4 hPa 0,0 l/m 9,3 km/h (2 Bft) W-SW 242 0 min 0,000 mm 0,0 UV-I 0 W/m 3,0 C 2,7 C 12,9 km/h (3 Bft) 100,00 %
14.02.2016 22:35 5,1 C 86 % 996,4 hPa 0,0 l/m 10,3 km/h (2 Bft) S-SW 213 0 min 0,000 mm 0,0 UV-I 0 W/m 3,0 C 2,0 C 16,1 km/h (3 Bft) 100,00 %
14.02.2016 22:36 5,1 C 86 % 996,4 hPa 0,0 l/m 9,6 km/h (2 Bft) W-SW 247 0 min 0,000 mm 0,0 UV-I 0 W/m 3,0 C 2,5 C 12,9 km/h (3 Bft) 95,83 %
14.02.2016 22:37 5,0 C 86 % 996,4 hPa 0,0 l/m 9,1 km/h (2 Bft) S-SW 193 0 min 0,000 mm 0,0 UV-I 0 W/m 2,9 C 2,7 C 12,9 km/h (3 Bft) 100,00 %
14.02.2016 22:38 5,0 C 87 % 996,4 hPa 0,0 l/m 10,7 km/h (2 Bft) SW 227 0 min 0,000 mm 0,0 UV-I 0 W/m 3,0 C 1,6 C 16,1 km/h (3 Bft) 100,00 %
14.02.2016 22:39 5,0 C 87 % 996,4 hPa 0,0 l/m 11,7 km/h (2 Bft) SW 234 0 min 0,000 mm 0,0 UV-I 0 W/m 3,0 C 0,9 C 16,1 km/h (3 Bft) 100,00 %
14.02.2016 22:40 4,9 C 87 % 996,4 hPa 0,0 l/m 10,0 km/h (2 Bft) SW 221 0 min 0,000 mm 0,0 UV-I 0 W/m 2,9 C 2,0 C 14,5 km/h (3 Bft) 100,00 %
14.02.2016 22:41 4,9 C 87 % 996,4 hPa 0,0 l/m 6,5 km/h (2 Bft) S-SW 202 0 min 0,000 mm 0,0 UV-I 0 W/m 2,9 C 4,8 C 8,0 km/h (2 Bft) 100,00 %
14.02.2016 22:42 4,9 C 87 % 996,4 hPa 0,0 l/m 6,8 km/h (2 Bft) S-SW 198 0 min 0,000 mm 0,0 UV-I 0 W/m 2,9 C 4,6 C 11,3 km/h (2 Bft) 100,00 %
14.02.2016 22:43 4,9 C 87 % 996,4 hPa 0,0 l/m 8,4 km/h (2 Bft) SW 233 0 min 0,000 mm 0,0 UV-I 0 W/m 2,9 C 3,2 C 12,9 km/h (3 Bft) 100,00 %
14.02.2016 22:44 4,9 C 87 % 996,5 hPa 0,0 l/m 7,6 km/h (2 Bft) W-SW 252 0 min 0,000 mm 0,0 UV-I 0 W/m 2,9 C 3,8 C 11,3 km/h (2 Bft) 95,65 %
14.02.2016 22:45 4,9 C 87 % 996,5 hPa 0,2 l/m 7,8 km/h (2 Bft) SW 227 0 min 0,000 mm 0,0 UV-I 0 W/m 2,9 C 3,7 C 9,7 km/h (2 Bft) 100,00 %
14.02.2016 22:46 4,9 C 88 % 996,5 hPa 0,0 l/m 8,2 km/h (2 Bft) SW 221 0 min 0,000 mm 0,0 UV-I 0 W/m 3,1 C 3,3 C 11,3 km/h (2 Bft) 96,15 %
14.02.2016 22:47 4,9 C 88 % 996,5 hPa 0,0 l/m 7,0 km/h (2 Bft) S-SW 200 0 min 0,000 mm 0,0 UV-I 0 W/m 3,1 C 4,4 C 9,7 km/h (2 Bft) 100,00 %
14.02.2016 22:48 4,8 C 88 % 996,5 hPa 0,0 l/m 7,4 km/h (2 Bft) S-SW 207 0 min 0,000 mm 0,0 UV-I 0 W/m 3,0 C 3,9 C 9,7 km/h (2 Bft) 95,65 %
14.02.2016 22:49 4,8 C 88 % 996,5 hPa 0,0 l/m 7,8 km/h (2 Bft) SW 214 0 min 0,000 mm 0,0 UV-I 0 W/m 3,0 C 3,6 C 9,7 km/h (2 Bft) 95,83 %
14.02.2016 22:50 4,8 C 88 % 996,6 hPa 0,0 l/m 5,4 km/h (1 Bft) S-SW 202 0 min 0,000 mm 0,0 UV-I 0 W/m 3,0 C 4,8 C 6,4 km/h (2 Bft) 95,65 %
14.02.2016 22:51 4,8 C 88 % 996,6 hPa 0,0 l/m 5,6 km/h (1 Bft) SW 221 0 min 0,000 mm 0,0 UV-I 0 W/m 3,0 C 4,8 C 8,0 km/h (2 Bft) 100,00 %
14.02.2016 22:52 4,8 C 88 % 996,6 hPa 0,0 l/m 5,7 km/h (1 Bft) SW 232 0 min 0,000 mm 0,0 UV-I 0 W/m 3,0 C 4,8 C 8,0 km/h (2 Bft) 95,65 %
14.02.2016 22:53 4,8 C 88 % 996,6 hPa 0,0 l/m 5,1 km/h (1 Bft) SW 235 0 min 0,000 mm 0,0 UV-I 0 W/m 3,0 C 4,8 C 6,4 km/h (2 Bft) 100,00 %
14.02.2016 22:54 4,8 C 88 % 996,6 hPa 0,0 l/m 6,2 km/h (2 Bft) SW 236 0 min 0,000 mm 0,0 UV-I 0 W/m 3,0 C 4,8 C 9,7 km/h (2 Bft) 100,00 %
14.02.2016 22:55 4,8 C 88 % 996,6 hPa 0,0 l/m 6,2 km/h (2 Bft) W-SW 238 0 min 0,000 mm 0,0 UV-I 0 W/m 3,0 C 4,8 C 8,0 km/h (2 Bft) 100,00 %
14.02.2016 22:56 4,8 C 88 % 996,7 hPa 0,0 l/m 6,5 km/h (2 Bft) SW 219 0 min 0,000 mm 0,0 UV-I 0 W/m 3,0 C 4,7 C 11,3 km/h (2 Bft) 100,00 %
14.02.2016 22:57 4,8 C 89 % 996,7 hPa 0,0 l/m 5,8 km/h (2 Bft) SW 217 0 min 0,000 mm 0,0 UV-I 0 W/m 3,1 C 4,8 C 8,0 km/h (2 Bft) 100,00 %
14.02.2016 22:58 4,8 C 89 % 996,7 hPa 0,0 l/m 5,5 km/h (1 Bft) S-SW 210 0 min 0,000 mm 0,0 UV-I 0 W/m 3,1 C 4,8 C 8,0 km/h (2 Bft) 96,30 %
14.02.2016 22:59 4,8 C 89 % 996,7 hPa 0,0 l/m 4,2 km/h (1 Bft) W-SW 238 0 min 0,000 mm 0,0 UV-I 0 W/m 3,1 C 4,8 C 4,8 km/h (1 Bft) 100,00 %
14.02.2016 23:00 4,8 C 89 % 996,7 hPa 0,0 l/m 8,5 km/h (2 Bft) SW 230 0 min 0,000 mm 0,0 UV-I 0 W/m 3,1 C 3,0 C 11,3 km/h (2 Bft) 100,00 %
14.02.2016 23:01 4,7 C 89 % 996,7 hPa 0,0 l/m 7,6 km/h (2 Bft) S-SW 205 0 min 0,000 mm 0,0 UV-I 0 W/m 3,0 C 3,6 C 9,7 km/h (2 Bft) 100,00 %
14.02.2016 23:02 4,7 C 89 % 996,8 hPa 0,0 l/m 7,8 km/h (2 Bft) SW 221 0 min 0,000 mm 0,0 UV-I 0 W/m 3,0 C 3,5 C 9,7 km/h (2 Bft) 100,00 %
14.02.2016 23:03 4,7 C 89 % 996,8 hPa 0,0 l/m 8,5 km/h (2 Bft) SW 221 0 min 0,000 mm 0,0 UV-I 0 W/m 3,0 C 2,9 C 11,3 km/h (2 Bft) 100,00 %
14.02.2016 23:04 4,7 C 89 % 996,9 hPa 0,0 l/m 8,7 km/h (2 Bft) W-SW 246 0 min 0,000 mm 0,0 UV-I 0 W/m 3,0 C 2,7 C 14,5 km/h (3 Bft) 100,00 %
14.02.2016 23:05 4,7 C 89 % 996,9 hPa 0,0 l/m 8,9 km/h (2 Bft) SW 227 0 min 0,000 mm 0,0 UV-I 0 W/m 3,0 C 2,6 C 11,3 km/h (2 Bft) 100,00 %
14.02.2016 23:06 4,7 C 89 % 996,9 hPa 0,0 l/m 8,6 km/h (2 Bft) W-SW 254 0 min 0,000 mm 0,0 UV-I 0 W/m 3,0 C 2,8 C 11,3 km/h (2 Bft) 100,00 %
14.02.2016 23:07 4,7 C 89 % 996,9 hPa 0,0 l/m 8,0 km/h (2 Bft) SW 233 0 min 0,000 mm 0,0 UV-I 0 W/m 3,0 C 3,3 C 9,7 km/h (2 Bft) 100,00 %
14.02.2016 23:08 4,7 C 89 % 996,9 hPa 0,0 l/m 8,2 km/h (2 Bft) W-SW 246 0 min 0,000 mm 0,0 UV-I 0 W/m 3,0 C 3,1 C 11,3 km/h (2 Bft) 95,83 %
14.02.2016 23:09 4,7 C 89 % 996,9 hPa 0,0 l/m 8,0 km/h (2 Bft) W 266 0 min 0,000 mm 0,0 UV-I 0 W/m 3,0 C 3,3 C 12,9 km/h (3 Bft) 100,00 %
14.02.2016 23:10 4,7 C 89 % 996,9 hPa 0,0 l/m 10,4 km/h (2 Bft) SW 236 0 min 0,000 mm 0,0 UV-I 0 W/m 3,0 C 1,5 C 14,5 km/h (3 Bft) 95,83 %
14.02.2016 23:11 4,7 C 89 % 996,9 hPa 0,0 l/m 9,3 km/h (2 Bft) W 261 0 min 0,000 mm 0,0 UV-I 0 W/m 3,0 C 2,3 C 11,3 km/h (2 Bft) 91,30 %
14.02.2016 23:12 4,7 C 89 % 996,9 hPa 0,0 l/m 8,3 km/h (2 Bft) S-SW 207 0 min 0,000 mm 0,0 UV-I 0 W/m 3,0 C 3,0 C 11,3 km/h (2 Bft) 95,83 %
14.02.2016 23:13 4,7 C 89 % 997,0 hPa 0,0 l/m 9,3 km/h (2 Bft) SW 216 0 min 0,000 mm 0,0 UV-I 0 W/m 3,0 C 2,3 C 11,3 km/h (2 Bft) 95,65 %
14.02.2016 23:14 4,7 C 89 % 997,0 hPa 0,0 l/m 8,0 km/h (2 Bft) SW 225 0 min 0,000 mm 0,0 UV-I 0 W/m 3,0 C 3,3 C 11,3 km/h (2 Bft) 95,83 %
14.02.2016 23:15 4,7 C 89 % 997,0 hPa 0,0 l/m 8,7 km/h (2 Bft) W-SW 257 0 min 0,000 mm 0,0 UV-I 0 W/m 3,0 C 2,7 C 12,9 km/h (3 Bft) 100,00 %
14.02.2016 23:16 4,7 C 89 % 997,1 hPa 0,0 l/m 8,2 km/h (2 Bft) W-SW 242 0 min 0,000 mm 0,0 UV-I 0 W/m 3,0 C 3,1 C 11,3 km/h (2 Bft) 95,65 %
14.02.2016 23:17 4,8 C 89 % 997,1 hPa 0,0 l/m 8,6 km/h (2 Bft) W-SW 238 0 min 0,000 mm 0,0 UV-I 0 W/m 3,1 C 2,9 C 12,9 km/h (3 Bft) 95,83 %
14.02.2016 23:18 4,8 C 89 % 997,1 hPa 0,0 l/m 7,7 km/h (2 Bft) SW 234 0 min 0,000 mm 0,0 UV-I 0 W/m 3,1 C 3,6 C 11,3 km/h (2 Bft) 100,00 %
14.02.2016 23:19 4,8 C 88 % 997,2 hPa 0,0 l/m 8,4 km/h (2 Bft) S-SW 213 0 min 0,000 mm 0,0 UV-I 0 W/m 3,0 C 3,1 C 11,3 km/h (2 Bft) 91,67 %
14.02.2016 23:20 4,8 C 88 % 997,2 hPa 0,0 l/m 6,9 km/h (2 Bft) W 264 0 min 0,000 mm 0,0 UV-I 0 W/m 3,0 C 4,4 C 9,7 km/h (2 Bft) 100,00 %
14.02.2016 23:21 4,8 C 88 % 997,3 hPa 0,0 l/m 7,7 km/h (2 Bft) W-SW 240 0 min 0,000 mm 0,0 UV-I 0 W/m 3,0 C 3,6 C 12,9 km/h (3 Bft) 95,83 %
14.02.2016 23:22 4,9 C 88 % 997,3 hPa 0,0 l/m 7,0 km/h (2 Bft) W-SW 255 0 min 0,000 mm 0,0 UV-I 0 W/m 3,1 C 4,4 C 9,7 km/h (2 Bft) 95,65 %
14.02.2016 23:23 4,9 C 88 % 997,3 hPa 0,0 l/m 8,4 km/h (2 Bft) W-SW 245 0 min 0,000 mm 0,0 UV-I 0 W/m 3,1 C 3,2 C 12,9 km/h (3 Bft) 95,83 %
14.02.2016 23:24 4,9 C 88 % 997,3 hPa 0,0 l/m 8,1 km/h (2 Bft) SW 235 0 min 0,000 mm 0,0 UV-I 0 W/m 3,1 C 3,4 C 12,9 km/h (3 Bft) 92,31 %
14.02.2016 23:25 4,9 C 88 % 997,4 hPa 0,0 l/m 6,8 km/h (2 Bft) SW 236 0 min 0,000 mm 0,0 UV-I 0 W/m 3,1 C 4,6 C 8,0 km/h (2 Bft) 100,00 %
14.02.2016 23:26 5,0 C 88 % 997,4 hPa 0,0 l/m 7,3 km/h (2 Bft) SW 236 0 min 0,000 mm 0,0 UV-I 0 W/m 3,2 C 4,2 C 11,3 km/h (2 Bft) 95,65 %
14.02.2016 23:27 5,0 C 88 % 997,4 hPa 0,0 l/m 8,4 km/h (2 Bft) SW 221 0 min 0,000 mm 0,0 UV-I 0 W/m 3,2 C 3,3 C 12,9 km/h (3 Bft) 100,00 %
14.02.2016 23:28 5,0 C 88 % 997,4 hPa 0,0 l/m 8,7 km/h (2 Bft) W-SW 247 0 min 0,000 mm 0,0 UV-I 0 W/m 3,2 C 3,0 C 11,3 km/h (2 Bft) 95,65 %
14.02.2016 23:29 5,0 C 88 % 997,4 hPa 0,0 l/m 9,4 km/h (2 Bft) SW 223 0 min 0,000 mm 0,0 UV-I 0 W/m 3,2 C 2,5 C 11,3 km/h (2 Bft) 91,67 %
14.02.2016 23:30 5,0 C 88 % 997,5 hPa 0,0 l/m 10,5 km/h (2 Bft) W-SW 247 0 min 0,000 mm 0,0 UV-I 0 W/m 3,2 C 1,7 C 17,7 km/h (3 Bft) 91,30 %
14.02.2016 23:31 5,1 C 88 % 997,6 hPa 0,0 l/m 12,5 km/h (3 Bft) W 259 0 min 0,000 mm 0,0 UV-I 0 W/m 3,3 C 0,6 C 17,7 km/h (3 Bft) 100,00 %
14.02.2016 23:32 5,1 C 88 % 997,6 hPa 0,0 l/m 8,6 km/h (2 Bft) W-SW 252 0 min 0,000 mm 0,0 UV-I 0 W/m 3,3 C 3,2 C 12,9 km/h (3 Bft) 91,30 %
14.02.2016 23:33 5,1 C 88 % 997,6 hPa 0,0 l/m 10,9 km/h (2 Bft) SW 220 0 min 0,000 mm 0,0 UV-I 0 W/m 3,3 C 1,6 C 14,5 km/h (3 Bft) 95,83 %
14.02.2016 23:34 5,1 C 88 % 997,6 hPa 0,0 l/m 10,6 km/h (2 Bft) SW 233 0 min 0,000 mm 0,0 UV-I 0 W/m 3,3 C 1,8 C 16,1 km/h (3 Bft) 100,00 %
14.02.2016 23:35 5,1 C 88 % 997,7 hPa 0,0 l/m 10,3 km/h (2 Bft) W-SW 248 0 min 0,000 mm 0,0 UV-I 0 W/m 3,3 C 2,0 C 14,5 km/h (3 Bft) 95,83 %
14.02.2016 23:36 5,1 C 88 % 997,7 hPa 0,0 l/m 16,6 km/h (3 Bft) W 274 0 min 0,000 mm 0,0 UV-I 0 W/m 3,3 C -1,6 C 20,9 km/h (4 Bft) 100,00 %
14.02.2016 23:37 5,2 C 88 % 997,7 hPa 0,0 l/m 11,9 km/h (2 Bft) W 267 0 min 0,000 mm 0,0 UV-I 0 W/m 3,4 C 1,0 C 16,1 km/h (3 Bft) 93,33 %
14.02.2016 23:38 5,2 C 88 % 997,7 hPa 0,0 l/m 13,1 km/h (3 Bft) W 265 0 min 0,000 mm 0,0 UV-I 0 W/m 3,4 C 0,3 C 16,1 km/h (3 Bft) 100,00 %
14.02.2016 23:39 5,2 C 88 % 997,7 hPa 0,0 l/m 14,1 km/h (3 Bft) SW 236 0 min 0,000 mm 0,0 UV-I 0 W/m 3,4 C -0,2 C 17,7 km/h (3 Bft) 91,30 %
14.02.2016 23:40 5,2 C 88 % 997,7 hPa 0,0 l/m 14,2 km/h (3 Bft) W 267 0 min 0,000 mm 0,0 UV-I 0 W/m 3,4 C -0,3 C 19,3 km/h (3 Bft) 100,00 %
14.02.2016 23:41 5,2 C 88 % 997,8 hPa 0,0 l/m 12,6 km/h (3 Bft) W-SW 246 0 min 0,000 mm 0,0 UV-I 0 W/m 3,4 C 0,6 C 16,1 km/h (3 Bft) 96,15 %
14.02.2016 23:42 5,3 C 88 % 997,8 hPa 0,0 l/m 10,1 km/h (2 Bft) W-SW 256 0 min 0,000 mm 0,0 UV-I 0 W/m 3,5 C 2,3 C 14,5 km/h (3 Bft) 95,83 %
14.02.2016 23:43 5,3 C 88 % 997,8 hPa 0,0 l/m 13,1 km/h (3 Bft) W 262 0 min 0,000 mm 0,0 UV-I 0 W/m 3,5 C 0,5 C 17,7 km/h (3 Bft) 95,65 %
14.02.2016 23:44 5,3 C 88 % 997,8 hPa 0,0 l/m 8,3 km/h (2 Bft) W-SW 255 0 min 0,000 mm 0,0 UV-I 0 W/m 3,5 C 3,7 C 11,3 km/h (2 Bft) 95,83 %
14.02.2016 23:45 5,3 C 88 % 997,9 hPa 0,0 l/m 7,6 km/h (2 Bft) W 259 0 min 0,000 mm 0,0 UV-I 0 W/m 3,5 C 4,3 C 12,9 km/h (3 Bft) 100,00 %
14.02.2016 23:46 5,3 C 88 % 997,9 hPa 0,0 l/m 10,4 km/h (2 Bft) W-SW 255 0 min 0,000 mm 0,0 UV-I 0 W/m 3,5 C 2,1 C 14,5 km/h (3 Bft) 100,00 %
14.02.2016 23:47 5,3 C 88 % 997,9 hPa 0,0 l/m 8,3 km/h (2 Bft) W-SW 254 0 min 0,000 mm 0,0 UV-I 0 W/m 3,5 C 3,7 C 12,9 km/h (3 Bft) 100,00 %
14.02.2016 23:48 5,3 C 88 % 997,9 hPa 0,0 l/m 11,5 km/h (2 Bft) W 265 0 min 0,000 mm 0,0 UV-I 0 W/m 3,5 C 1,4 C 17,7 km/h (3 Bft) 100,00 %
14.02.2016 23:49 5,3 C 88 % 997,9 hPa 0,0 l/m 11,5 km/h (2 Bft) W 262 0 min 0,000 mm 0,0 UV-I 0 W/m 3,5 C 1,4 C 16,1 km/h (3 Bft) 100,00 %
14.02.2016 23:50 5,3 C 88 % 997,9 hPa 0,0 l/m 9,3 km/h (2 Bft) W 273 0 min 0,000 mm 0,0 UV-I 0 W/m 3,5 C 2,9 C 14,5 km/h (3 Bft) 95,83 %
14.02.2016 23:51 5,3 C 88 % 997,9 hPa 0,0 l/m 8,5 km/h (2 Bft) W 280 0 min 0,000 mm 0,0 UV-I 0 W/m 3,5 C 3,5 C 11,3 km/h (2 Bft) 100,00 %
14.02.2016 23:52 5,3 C 88 % 997,9 hPa 0,0 l/m 11,3 km/h (2 Bft) W-SW 257 0 min 0,000 mm 0,0 UV-I 0 W/m 3,5 C 1,5 C 14,5 km/h (3 Bft) 96,30 %
14.02.2016 23:53 5,3 C 88 % 998,0 hPa 0,0 l/m 10,1 km/h (2 Bft) W-SW 248 0 min 0,000 mm 0,0 UV-I 0 W/m 3,5 C 2,3 C 14,5 km/h (3 Bft) 100,00 %
14.02.2016 23:54 5,3 C 88 % 998,0 hPa 0,0 l/m 12,6 km/h (3 Bft) W-SW 258 0 min 0,000 mm 0,0 UV-I 0 W/m 3,5 C 0,7 C 12,9 km/h (3 Bft) 95,83 %
14.02.2016 23:55 5,3 C 88 % 998,0 hPa 0,0 l/m 9,7 km/h (2 Bft) W 263 0 min 0,000 mm 0,0 UV-I 0 W/m 3,5 C 2,6 C 12,9 km/h (3 Bft) 100,00 %
14.02.2016 23:56 5,3 C 88 % 998,1 hPa 0,0 l/m 6,4 km/h (2 Bft) W-SW 257 0 min 0,000 mm 0,0 UV-I 0 W/m 3,5 C 5,3 C 11,3 km/h (2 Bft) 100,00 %
14.02.2016 23:57 5,3 C 89 % 998,2 hPa 0,0 l/m 9,5 km/h (2 Bft) W-SW 246 0 min 0,000 mm 0,0 UV-I 0 W/m 3,6 C 2,8 C 14,5 km/h (3 Bft) 100,00 %
14.02.2016 23:58 5,3 C 89 % 998,2 hPa 0,0 l/m 10,8 km/h (2 Bft) W-SW 242 0 min 0,000 mm 0,0 UV-I 0 W/m 3,6 C 1,9 C 14,5 km/h (3 Bft) 100,00 %
14.02.2016 23:59 5,3 C 89 % 998,2 hPa 0,0 l/m 8,8 km/h (2 Bft) W-SW 238 0 min 0,000 mm 0,0 UV-I 0 W/m 3,6 C 3,3 C 14,5 km/h (3 Bft) 100,00 %
_ Min-Zeit 06:53 13:46 17:08 - 02:05 - - - - - - 06:53 08:30 02:05 05:22
Minimum _ -1,9 C 73 % 988,7 hPa - 0,0 km/h (0 Bft) - - - - - - -2,3 C -5,6 C 0,0 km/h (0 Bft) 86,96 %
_ Max-Zeit 13:42 07:15 23:57 22:45 14:38 - - 10:52 12:00 11:48 11:50 23:57 13:42 13:59 00:00
Maximum _ 6,3 C 98 % 998,2 hPa 0,2 l/m 20,6 km/h
NO (4 Bft)
- - 7 min 0,153 mm 1,6 UV-I 566 W/m 3,6 C 6,3 C 25,7 km/h
O-NO (4 Bft)
100,00 %
Durchschnitt _ 1,9 C 93 % 991,7 hPa #0,2 l/m 5,6 km/h (1 Bft) O-NO - #2:09 h #0,635 mm 1,0 UV-I 151 W/m 0,8 C 0,7 C 8,1 km/h (2 Bft) 98,57 %